Date StartTime U_cm/s V_cm/s W_cm/s Ustd_cm/s Vstd_cm/s Wstd_cm/s Uvar_(cm/s)^2 Vvar_(cm/s)^2 Wvar_(cm/s)^2 KE_(m/s)^2 TurbulentKE_(m/s)^2 HorizWindSpeed_cm/s FrictionSpeec_cm/s DragCoef SpeedOfSound_m/s SonicTemperature_C Pressure_mb 
12/17/2013  00:00:00      -46.170      -21.656      -10.816        7.686       13.446        8.288       59.067      180.807       68.686        0.151        0.015       50.996        6.752        0.018      330.150       -2.663      872.407
12/17/2013  00:01:00      -52.125      -14.551      -11.178       13.191        9.784        9.432      174.014       95.731       88.961        0.171        0.018       54.118        3.861        0.005      330.224       -2.539      872.395
12/17/2013  00:02:00      -77.868      -12.093       -9.981       15.799        9.560        9.639      249.619       91.387       92.905        0.337        0.022       78.802        5.030        0.004      330.043       -2.835      872.379
12/17/2013  00:03:00      -70.887       -4.465      -11.758       14.437        8.770        8.101      208.417       76.905       65.631        0.277        0.018       71.028        5.074        0.005      330.095       -2.750      872.370
12/17/2013  00:04:00      -61.410       -9.278       -4.191       14.449       10.905       10.428      208.760      118.911      108.749        0.216        0.022       62.107        9.873        0.025      330.051       -2.822      872.363
12/17/2013  00:05:00      -60.776      -12.547      -11.757        9.151       10.364        7.896       83.744      107.421       62.345        0.212        0.013       62.058        3.616        0.003      330.043       -2.836      872.365
12/17/2013  00:06:00      -72.946      -18.348      -13.554       11.266       11.608        8.725      126.934      134.749       76.125        0.309        0.017       75.218        3.468        0.002      330.004       -2.901      872.376
12/17/2013  00:07:00      -78.481      -11.110      -11.333       22.095       15.810       13.613      488.169      249.962      185.324        0.367        0.046       79.263        9.862        0.015      329.961       -2.971      872.377
12/17/2013  00:08:00      -69.145      -16.627      -11.575       14.885       15.176        9.484      221.574      230.301       89.952        0.287        0.027       71.116        6.536        0.008      329.977       -2.945      872.381
12/17/2013  00:09:00      -72.396       -7.719      -12.528       12.020        8.538       12.515      144.476       72.901      156.614        0.292        0.019       72.807        9.352        0.016      329.996       -2.914      872.373
12/17/2013  00:10:00      -86.965       -7.062       -7.610       23.249       13.958       12.162      540.520      194.825      147.902        0.428        0.044       87.252        9.599        0.012      330.029       -2.860      872.366
12/17/2013  00:11:00     -103.954       -6.485      -12.068       16.354       10.699       11.393      267.443      114.473      129.796        0.575        0.026      104.156        7.290        0.005      330.006       -2.895      872.365
12/17/2013  00:12:00      -67.439       -5.736      -10.110       22.069       11.007       10.964      487.034      121.150      120.199        0.271        0.036       67.683        9.146        0.018      330.010       -2.890      872.357
12/17/2013  00:13:00      -71.549      -13.755      -10.607       12.382       14.182       11.844      153.304      201.141      140.276        0.296        0.025       72.859        8.016        0.012      329.943       -3.002      872.346
12/17/2013  00:14:00      -70.380       -7.654      -12.708       13.202       12.080        9.143      174.286      145.935       83.592        0.279        0.020       70.795        6.397        0.008      329.923       -3.033      872.331
12/17/2013  00:15:00      -67.095       -5.048       -9.129       12.259       14.424       11.238      150.292      208.039      126.286        0.255        0.024       67.284        7.399        0.012      329.957       -2.980      872.321
12/17/2013  00:16:00      -69.018       -7.097      -11.290       17.878       16.066        9.848      319.625      258.128       96.975        0.281        0.034       69.382        9.120        0.017      329.947       -2.995      872.312
12/17/2013  00:17:00      -61.911       -9.709       -7.864       15.298       14.268        8.123      234.016      203.582       65.981        0.225        0.025       62.668        6.182        0.010      330.000       -2.908      872.310
12/17/2013  00:18:00      -66.446      -13.452      -10.926       14.985       13.210       10.735      224.565      174.509      115.232        0.261        0.026       67.794        9.947        0.022      329.958       -2.976      872.315
12/17/2013  00:19:00      -81.895      -13.037      -10.919       18.014       15.132       11.045      324.512      228.973      121.999        0.384        0.034       82.927        4.006        0.002      329.935       -3.015      872.326
12/17/2013  00:20:00      -92.078      -13.153      -14.988       12.425       14.550        9.066      154.371      211.689       82.194        0.466        0.022       93.012        2.640        0.001      329.928       -3.027      872.339
12/17/2013  00:21:00      -69.365      -14.453       -4.016       17.411       19.475       13.390      303.142      379.287      179.301        0.295        0.043       70.855        8.387        0.014      329.926       -3.029      872.354
12/17/2013  00:22:00      -88.575      -10.441      -14.491       13.843       11.991        8.201      191.634      143.794       67.255        0.428        0.020       89.189        5.712        0.004      329.832       -3.183      872.351
12/17/2013  00:23:00      -76.971      -15.588      -13.015       14.505       13.403       10.444      210.384      179.641      109.082        0.342        0.025       78.534        6.958        0.008      329.902       -3.068      872.344
12/17/2013  00:24:00      -68.650      -18.613       -4.471       12.661       13.292        9.341      160.306      176.668       87.248        0.275        0.021       71.128        5.132        0.005      329.888       -3.090      872.332
12/17/2013  00:25:00      -79.099      -15.698      -11.106       17.555       13.420       12.276      308.161      180.101      150.691        0.363        0.032       80.641       10.283        0.016      329.843       -3.163      872.330
12/17/2013  00:26:00      -79.216      -10.063      -12.086       14.658       17.441       13.808      214.852      304.200      190.662        0.362        0.035       79.853        8.629        0.012      329.812       -3.216      872.328
12/17/2013  00:27:00      -89.997      -18.759      -12.727       19.666       24.566       12.419      386.753      603.497      154.233        0.488        0.057       91.931        8.772        0.009      329.828       -3.188      872.336
12/17/2013  00:28:00      -87.116      -16.622      -13.518       17.608       18.786       13.459      310.041      352.920      181.139        0.445        0.042       88.688       10.018        0.013      329.797       -3.239      872.344
12/17/2013  00:29:00      -91.810      -25.736      -14.494       23.331       13.610       12.165      544.346      185.243      147.993        0.509        0.044       95.349        4.741        0.002      329.781       -3.266      872.355
12/17/2013  00:30:00      -96.778      -12.104      -11.959       18.168       15.143       11.392      330.081      229.308      129.784        0.517        0.034       97.532        4.426        0.002      329.787       -3.256      872.360
12/17/2013  00:31:00      -81.805      -12.445      -17.620       14.076       17.822        9.787      198.135      317.612       95.790        0.388        0.031       82.747        5.335        0.004      329.777       -3.272      872.342
12/17/2013  00:32:00      -69.138      -15.262       -9.789       17.357       14.185       12.895      301.259      201.213      166.270        0.289        0.033       70.802        8.832        0.016      329.802       -3.231      872.310
12/17/2013  00:33:00      -63.644      -10.422       -8.799       12.277       18.948       11.536      150.736      359.038      133.082        0.244        0.032       64.491        9.746        0.023      329.819       -3.203      872.282
12/17/2013  00:34:00      -46.878       -7.964       -8.195        7.987       12.374        8.362       63.796      153.106       69.916        0.131        0.014       47.550        5.579        0.014      329.923       -3.034      872.250
12/17/2013  00:35:00      -48.932      -17.514       -5.525       10.529       11.489        5.773      110.854      132.007       33.323        0.150        0.014       51.972        4.646        0.008      329.900       -3.072      872.236
12/17/2013  00:36:00      -53.002      -21.655       -7.651       10.428       13.079        7.229      108.753      171.069       52.264        0.183        0.017       57.255        4.802        0.007      329.884       -3.098      872.245
12/17/2013  00:37:00      -73.964      -24.783      -13.199        9.816       10.936        8.400       96.345      119.594       70.557        0.327        0.014       78.006        5.028        0.004      329.773       -3.280      872.245
12/17/2013  00:38:00      -70.975      -30.797      -11.735       15.022       22.219       13.454      225.658      493.706      181.001        0.351        0.045       77.368        7.164        0.009      329.742       -3.329      872.245
12/17/2013  00:39:00      -79.800      -12.489       -7.097       25.280       15.159       13.125      639.068      229.792      172.275        0.381        0.052       80.771       12.890        0.025      329.693       -3.410      872.245
12/17/2013  00:40:00      -81.208       -5.446      -15.159       14.852       11.399       10.311      220.586      129.930      106.323        0.366        0.023       81.390        7.058        0.008      329.732       -3.346      872.240
12/17/2013  00:41:00      -78.993        0.775      -16.531       13.029        7.762        8.479      169.746       60.250       71.889        0.341        0.015       78.997        5.204        0.004      329.728       -3.351      872.230
12/17/2013  00:42:00      -74.568       -8.926      -10.916       17.317       17.880       14.627      299.877      319.708      213.946        0.330        0.042       75.100       11.084        0.022      329.756       -3.308      872.225
12/17/2013  00:43:00      -94.860       -8.347      -13.340       12.512       11.114        9.174      156.560      123.523       84.171        0.481        0.018       95.227        5.390        0.003      329.704       -3.392      872.218
12/17/2013  00:44:00      -90.671      -10.926      -14.416       17.268       13.504       11.348      298.177      182.366      128.774        0.458        0.030       91.327        6.381        0.005      329.727       -3.354      872.216
12/17/2013  00:45:00      -84.973      -18.929       -9.355       23.063       15.428       12.448      531.881      238.023      154.963        0.430        0.046       87.056        8.751        0.010      329.721       -3.363      872.217
12/17/2013  00:46:00      -93.836      -27.943      -12.949       35.976       19.722       16.368     1294.292      388.955      267.918        0.585        0.098       97.908       13.058        0.018      329.713       -3.377      872.229
12/17/2013  00:47:00     -100.360      -21.452      -13.004       22.521       22.720       15.298      507.195      516.186      234.023        0.598        0.063      102.627        9.548        0.009      329.670       -3.447      872.235
12/17/2013  00:48:00      -94.970      -18.452      -11.804       27.773       18.882       16.254      771.320      356.531      264.194        0.545        0.070       96.746       10.772        0.012      329.711       -3.381      872.242
12/17/2013  00:49:00      -83.663       -1.440       -7.241       28.600       28.043       20.062      817.976      786.438      402.466        0.453        0.100       83.676       18.420        0.048      329.708       -3.384      872.247
12/17/2013  00:50:00      -86.348       -0.648       -3.607       39.335       28.625       21.469     1547.234      819.381      460.923        0.515        0.141       86.350       18.342        0.045      329.695       -3.406      872.249
12/17/2013  00:51:00      -46.602      -26.979        1.512       34.974       29.679       20.627     1223.213      880.870      425.456        0.272        0.126       53.848       10.761        0.040      329.701       -3.397      872.242
12/17/2013  00:52:00      -80.138       -4.590       -6.734       25.026       30.955       18.430      626.301      958.231      339.652        0.421        0.096       80.269       13.039        0.026      329.744       -3.328      872.244
12/17/2013  00:53:00      -99.721      -13.626       -9.508       31.955       29.822       14.998     1021.119      889.356      224.954        0.618        0.107      100.648       12.424        0.015      329.733       -3.345      872.244
12/17/2013  00:54:00     -108.309      -22.292       -4.842       41.630       31.977       18.192     1733.070     1022.526      330.959        0.767        0.154      110.579       17.858        0.026      329.733       -3.343      872.259
12/17/2013  00:55:00     -102.451      -37.069      -13.928       22.405       22.004       15.469      502.003      484.196      239.294        0.664        0.061      108.951        8.313        0.006      329.641       -3.494      872.279
12/17/2013  00:56:00      -97.225      -30.158       -9.206       41.255       34.667       17.668     1701.997     1201.799      312.161        0.683        0.161      101.795       16.088        0.025      329.672       -3.443      872.269
12/17/2013  00:57:00      -80.702      -13.076       -3.524       34.669       30.470       24.795     1201.950      928.436      614.808        0.472        0.137       81.754        8.897        0.012      329.684       -3.424      872.255
12/17/2013  00:58:00      -97.608      -27.932       -9.256       21.547       22.285       14.650      464.262      496.613      214.627        0.578        0.059      101.526       10.945        0.012      329.691       -3.412      872.237
12/17/2013  00:59:00     -107.073      -26.610       -8.690       30.582       30.338       18.625      935.284      920.401      346.897        0.723        0.110      110.330       13.603        0.015      329.634       -3.507      872.216
12/17/2013  01:00:00      -94.245      -13.588       -9.984       32.012       22.293       20.179     1024.748      496.967      407.197        0.555        0.096       95.219       10.871        0.013      329.743       -3.328      872.214
12/17/2013  01:01:00     -115.313      -26.317      -14.056       38.465       23.795       17.946     1479.565      566.223      322.075        0.828        0.118      118.278        7.929        0.004      329.712       -3.380      872.209
12/17/2013  01:02:00     -128.644      -30.493      -10.141       31.326       27.535       13.814      981.324      758.180      190.829        0.976        0.097      132.209        7.345        0.003      329.656       -3.471      872.194
12/17/2013  01:03:00      -89.756      -32.858        1.901       31.153       21.810       19.585      970.516      475.686      383.575        0.548        0.091       95.581       18.815        0.039      329.619       -3.531      872.180
12/17/2013  01:04:00      -85.520      -40.681      -15.028       24.455       22.456       11.200      598.064      504.280      125.441        0.521        0.061       94.702        9.751        0.011      329.625       -3.520      872.161
12/17/2013  01:05:00      -45.641      -44.144       -8.249       14.613       23.568       13.007      213.527      555.429      169.191        0.252        0.047       63.497        3.982        0.004      329.695       -3.406      872.164
12/17/2013  01:06:00      -48.285      -12.282      -14.799       27.321       16.805       16.387      746.418      282.397      268.521        0.200        0.065       49.823       13.242        0.071      329.745       -3.323      872.165
12/17/2013  01:07:00     -120.635      -27.467      -17.910       25.750       24.961       16.797      663.043      623.035      282.146        0.860        0.078      123.722        8.905        0.005      329.716       -3.372      872.160
12/17/2013  01:08:00     -110.772      -43.214      -18.511       24.247       24.381       15.432      587.900      594.430      238.148        0.795        0.071      118.903        8.809        0.005      329.703       -3.395      872.163
12/17/2013  01:09:00      -79.974      -19.635      -15.631       23.863       19.054       12.519      569.431      363.061      156.737        0.406        0.054       82.349       10.130        0.015      329.782       -3.265      872.157
12/17/2013  01:10:00      -95.308      -37.994      -16.465       20.523       20.398       16.182      421.199      416.062      261.868        0.595        0.055      102.602        8.032        0.006      329.830       -3.186      872.159
12/17/2013  01:11:00      -89.496      -47.000       -7.684       22.403       15.439       15.650      501.897      238.369      244.930        0.563        0.049      101.087       13.139        0.017      329.748       -3.321      872.155
12/17/2013  01:12:00      -97.105      -25.871       -7.617       17.182       20.336       13.717      295.225      413.543      188.148        0.553        0.045      100.492        7.068        0.005      329.757       -3.305      872.152
12/17/2013  01:13:00     -109.516      -40.342      -12.426       22.132       19.708       14.359      489.804      388.401      206.170        0.743        0.054      116.710       11.173        0.009      329.713       -3.376      872.141
12/17/2013  01:14:00     -100.896      -31.155      -16.721       22.331       23.091       16.330      498.681      533.214      266.673        0.636        0.065      105.596       13.091        0.015      329.673       -3.442      872.138
12/17/2013  01:15:00      -84.268      -41.637       -6.214       20.547       18.102       13.179      422.191      327.685      173.692        0.490        0.046       93.994       10.928        0.014      329.698       -3.402      872.155
12/17/2013  01:16:00     -138.107      -11.391      -19.922       19.582       13.939       11.314      383.447      194.298      128.013        1.015        0.035      138.576        6.940        0.003      329.820       -3.202      872.167
12/17/2013  01:17:00     -124.537       -6.171      -17.492        9.329       13.287        8.405       87.026      176.551       70.645        0.809        0.017      124.689        5.374        0.002      329.849       -3.154      872.176
12/17/2013  01:18:00      -97.252      -22.770       -8.651       25.140       16.245       12.965      632.033      263.904      168.090        0.556        0.053       99.883       14.302        0.021      329.828       -3.187      872.182
12/17/2013  01:19:00     -110.336      -27.718       -9.457       18.333       12.752       11.559      336.087      162.611      133.620        0.683        0.032      113.765       10.373        0.008      329.837       -3.172      872.184
12/17/2013  01:20:00     -101.145      -26.992       -5.376       21.399       17.988       12.691      457.932      323.577      161.060        0.596        0.047      104.684        9.905        0.009      329.814       -3.212      872.184
12/17/2013  01:21:00     -117.535      -40.385       -9.727       15.111       12.676        8.091      228.330      160.685       65.459        0.800        0.023      124.280        2.748        0.000      329.855       -3.144      872.183
12/17/2013  01:22:00      -93.259      -24.792       -2.356       22.555       19.400       13.640      508.710      376.354      186.051        0.519        0.054       96.498       13.106        0.018      329.866       -3.127      872.176
12/17/2013  01:23:00     -107.548      -22.077       -7.149       26.892       16.805       15.567      723.179      282.392      242.329        0.668        0.062      109.791       15.958        0.021      329.813       -3.213      872.157
12/17/2013  01:24:00     -129.527      -34.650       -7.650       19.216       13.713       15.531      369.253      188.046      241.200        0.942        0.040      134.082       12.998        0.009      329.778       -3.271      872.141
12/17/2013  01:25:00     -136.881      -36.026       -7.256       18.802       18.798       11.446      353.522      353.381      131.020        1.046        0.042      141.543       10.028        0.005      329.781       -3.266      872.132
12/17/2013  01:26:00     -120.321      -51.571       -5.344       30.697       15.065       10.510      942.287      226.950      110.469        0.922        0.064      130.907       14.139        0.012      329.771       -3.283      872.136
12/17/2013  01:27:00     -107.792      -53.573       -7.858       23.993       18.648       16.397      575.686      347.761      268.861        0.787        0.060      120.371       10.091        0.007      329.817       -3.206      872.138
12/17/2013  01:28:00      -92.906      -33.373       -3.754       24.939       21.872       11.314      621.970      478.372      128.003        0.549        0.061       98.718        9.973        0.010      329.836       -3.176      872.145
12/17/2013  01:29:00      -92.231      -50.189       -6.259       13.977       17.005       11.178      195.366      289.177      124.950        0.584        0.030      105.003        7.782        0.005      329.776       -3.274      872.148
12/17/2013  01:30:00      -89.838      -47.796       -5.407       13.011       13.680        8.027      169.289      187.136       64.439        0.540        0.021      101.761        6.705        0.004      329.798       -3.239      872.148
12/17/2013  01:31:00      -89.277      -48.005       -6.343       21.472       15.682       11.014      461.065      245.933      121.308        0.557        0.041      101.365        7.556        0.006      329.877       -3.110      872.147
12/17/2013  01:32:00      -62.689      -49.048       -1.174       21.537       17.261       14.876      463.830      297.946      221.288        0.366        0.049       79.597       13.108        0.027      329.869       -3.122      872.148
12/17/2013  01:33:00      -91.013      -50.038       -4.373       19.463       19.743       13.160      378.812      389.798      173.185        0.587        0.047      103.862       10.751        0.011      329.881       -3.103      872.157
12/17/2013  01:34:00      -89.278      -33.322       -4.247       29.799       19.154       13.953      887.956      366.889      194.680        0.527        0.072       95.294       13.078        0.019      329.872       -3.118      872.165
12/17/2013  01:35:00      -65.801      -21.795        4.234       37.734       23.947       14.202     1423.846      573.474      201.694        0.351        0.110       69.316       15.477        0.050      329.867       -3.125      872.166
12/17/2013  01:36:00      -99.113      -32.142       -1.612       18.504       20.462       12.434      342.399      418.689      154.610        0.589        0.046      104.195        9.874        0.009      329.852       -3.151      872.168
12/17/2013  01:37:00      -92.174      -20.260       -0.466       26.222       17.420       14.382      687.572      303.455      206.851        0.505        0.060       94.374       15.020        0.025      329.841       -3.168      872.171
12/17/2013  01:38:00     -105.572      -27.461       -3.876       20.829       22.744       13.345      433.836      517.292      178.082        0.652        0.056      109.085        8.150        0.006      329.849       -3.154      872.175
12/17/2013  01:39:00      -96.045      -18.299       -1.620       36.932       20.808       18.341     1363.995      432.970      336.401        0.585        0.107       97.773       20.174        0.043      329.778       -3.271      872.167
12/17/2013  01:40:00      -80.722      -10.126       -3.338       28.901       24.683       16.983      835.284      609.275      288.411        0.418        0.087       81.355       16.197        0.040      329.733       -3.344      872.166
12/17/2013  01:41:00      -89.812       -7.343       -6.846       36.007       19.650       18.764     1296.509      386.134      352.070        0.510        0.102       90.112       18.579        0.043      329.764       -3.295      872.165
12/17/2013  01:42:00      -89.389       -1.010       -6.698       26.971       24.449       19.748      727.439      597.767      389.968        0.488        0.086       89.395       18.143        0.041      329.710       -3.381      872.166
12/17/2013  01:43:00     -118.550        2.800      -16.273       26.274       24.102       22.213      690.318      580.907      493.426        0.805        0.088      118.584       17.419        0.022      329.740       -3.332      872.171
12/17/2013  01:44:00      -96.444      -11.560       -4.694       47.959       37.360       26.916     2300.104     1395.758      724.483        0.694        0.221       97.135       29.902        0.095      329.700       -3.398      872.181
12/17/2013  01:45:00     -111.995      -11.090       -4.740       30.684       22.617       20.391      941.486      511.534      415.783        0.728        0.093      112.543       15.880        0.020      329.625       -3.522      872.198
12/17/2013  01:46:00     -131.429       -7.919      -15.091       38.032       23.569       24.154     1446.469      555.513      583.401        1.007        0.129      131.668       24.884        0.036      329.590       -3.579      872.209
12/17/2013  01:47:00     -114.236      -48.964      -18.018       19.427       23.334       13.732      377.427      544.454      188.559        0.844        0.056      124.287       14.043        0.013      329.584       -3.589      872.215
12/17/2013  01:48:00      -85.520      -31.580       -1.348       22.267       33.293       17.704      495.813     1108.429      313.445        0.511        0.096       91.164       12.375        0.018      329.573       -3.607      872.215
12/17/2013  01:49:00      -72.852      -24.156       -0.505       29.057       22.531       17.337      844.335      507.637      300.564        0.377        0.083       76.753       15.898        0.043      329.532       -3.674      872.224
12/17/2013  01:50:00      -86.126      -22.320       -7.028       25.886       23.028       15.117      670.104      530.274      228.511        0.470        0.071       88.971       10.049        0.013      329.513       -3.703      872.225
12/17/2013  01:51:00      -96.168      -26.778      -12.802       35.379       28.956       16.219     1251.668      838.425      263.057        0.624        0.118       99.827       11.922        0.014      329.515       -3.699      872.229
12/17/2013  01:52:00      -52.978      -36.586       -5.315       27.740       31.633       16.934      769.509     1000.663      286.774        0.311        0.103       64.383       14.602        0.051      329.532       -3.675      872.235
12/17/2013  01:53:00     -102.186      -51.632       -9.813       24.783       21.544       16.993      614.187      464.163      288.775        0.729        0.068      114.489       13.300        0.013      329.487       -3.747      872.243
12/17/2013  01:54:00      -67.292      -54.446        0.429       38.024       31.101       18.989     1445.847      967.252      360.592        0.513        0.139       86.560       16.400        0.036      329.481       -3.757      872.255
12/17/2013  01:55:00     -105.410      -31.166       -2.259       31.328       23.499       17.539      981.434      552.185      307.626        0.696        0.092      109.921       17.534        0.025      329.437       -3.829      872.257
12/17/2013  01:56:00      -72.015      -33.179       -7.578       32.426       23.629       15.335     1051.428      558.316      235.157        0.409        0.092       79.290       16.948        0.046      329.460       -3.790      872.257
12/17/2013  01:57:00      -71.665      -20.542       -7.255       28.970       17.085       10.519      839.247      291.896      110.649        0.343        0.062       74.551        9.538        0.016      329.439       -3.826      872.244
12/17/2013  01:58:00      -96.890       -8.547      -10.519       22.203       14.268       11.744      492.980      203.577      137.912        0.520        0.042       97.266        6.765        0.005      329.526       -3.683      872.223
12/17/2013  01:59:00      -53.573       -4.951       -9.056       19.420       13.396       12.873      377.128      179.447      165.704        0.185        0.036       53.801        8.783        0.027      329.534       -3.671      872.199
12/17/2013  02:00:00      -63.879       -4.146       -6.075       10.115        9.730        6.282      102.320       94.668       39.458        0.219        0.012       64.014        3.316        0.003      329.648       -3.483      872.179
12/17/2013  02:01:00      -62.896      -19.367      -10.487       13.076       14.777        8.568      170.990      218.348       73.409        0.245        0.023       65.810        3.635        0.003      329.623       -3.524      872.170
12/17/2013  02:02:00      -68.673      -19.857      -12.536       11.352       14.424        8.265      128.866      208.066       68.317        0.284        0.020       71.486        5.506        0.006      329.569       -3.615      872.163
12/17/2013  02:03:00      -82.566      -13.951      -11.418       13.794       14.442        7.456      190.277      208.567       55.597        0.380        0.023       83.736        3.633        0.002      329.578       -3.598      872.159
12/17/2013  02:04:00      -50.354      -21.545      -11.457       14.452       14.009       10.015      208.850      196.250      100.298        0.182        0.025       54.770        6.840        0.016      329.577       -3.601      872.157
12/17/2013  02:05:00      -49.910      -18.594      -11.011       13.232       16.524       10.889      175.074      273.027      118.569        0.176        0.028       53.261        4.370        0.007      329.549       -3.644      872.158
12/17/2013  02:06:00      -53.124      -17.547       -7.722       13.379       15.119       14.340      178.996      228.583      205.647        0.190        0.031       55.947        6.056        0.012      329.523       -3.690      872.156
12/17/2013  02:07:00      -56.371      -12.810      -11.057        7.108        9.884        5.943       50.522       97.687       35.324        0.182        0.009       57.808        5.343        0.009      329.513       -3.704      872.166
12/17/2013  02:08:00      -68.935      -10.370       -4.930        7.686        9.001        6.174       59.082       81.016       38.116        0.253        0.009       69.710        4.067        0.003      329.480       -3.757      872.174
12/17/2013  02:09:00      -65.884      -10.357      -10.283       15.459       10.109        8.042      238.970      102.186       64.672        0.248        0.020       66.693        3.296        0.002      329.456       -3.796      872.188
12/17/2013  02:10:00      -89.241        1.606      -12.425       16.780       11.727       10.242      281.581      137.528      104.902        0.432        0.026       89.256        4.431        0.002      329.436       -3.831      872.200
12/17/2013  02:11:00      -89.691       -3.885      -17.062       16.601       13.126       11.400      275.577      172.292      129.969        0.446        0.029       89.775        7.254        0.007      329.384       -3.916      872.220
12/17/2013  02:12:00      -84.991       -5.188       -9.520       19.935       14.321        8.550      397.389      205.099       73.110        0.401        0.034       85.149        5.969        0.005      329.417       -3.860      872.219
12/17/2013  02:13:00      -79.963        1.012      -13.703       12.738        8.352        7.878      162.252       69.751       62.064        0.344        0.015       79.969        4.272        0.003      329.477       -3.761      872.236
12/17/2013  02:14:00      -52.862       -0.680       -7.063       10.100        9.095        8.652      102.019       82.721       74.850        0.155        0.013       52.867        6.396        0.015      329.599       -3.562      872.233
12/17/2013  02:15:00      -73.350       -6.006      -14.827       15.654       10.053        7.751      245.043      101.066       60.083        0.302        0.020       73.595        3.910        0.003      329.506       -3.715      872.225
12/17/2013  02:16:00      -71.384       -5.673      -10.642       15.679        7.076        6.507      245.827       50.067       42.341        0.279        0.017       71.609        5.873        0.007      329.622       -3.524      872.214
12/17/2013  02:17:00      -57.354      -14.459       -8.444        8.915       11.037        7.862       79.485      121.824       61.806        0.192        0.013       59.149        4.373        0.005      329.510       -3.709      872.208
12/17/2013  02:18:00      -51.148      -13.486      -10.135        7.660        6.477        6.530       58.669       41.954       42.646        0.152        0.007       52.896        5.464        0.011      329.505       -3.718      872.207
12/17/2013  02:19:00      -53.932      -15.593       -8.622        7.262        8.716        6.229       52.735       75.976       38.800        0.170        0.008       56.141        3.628        0.004      329.418       -3.860      872.209
12/17/2013  02:20:00      -63.134       -6.852      -10.014        9.967        9.177        7.562       99.332       84.211       57.177        0.219        0.012       63.504        5.740        0.008      329.384       -3.916      872.218
12/17/2013  02:21:00      -62.921       -2.610       -9.401       17.272       10.714       11.252      298.333      114.790      126.615        0.230        0.027       62.975        9.034        0.021      329.400       -3.889      872.223
12/17/2013  02:22:00      -63.175        1.319      -12.213       13.822        7.262        9.985      191.042       52.737       99.695        0.224        0.017       63.188        3.365        0.003      329.427       -3.844      872.217
12/17/2013  02:23:00      -41.746       -6.352       -4.855        8.490        8.479        7.192       72.086       71.896       51.724        0.100        0.010       42.226        4.067        0.009      329.429       -3.842      872.217
12/17/2013  02:24:00      -43.857      -10.662       -7.747        7.365        7.385        6.509       54.238       54.544       42.371        0.112        0.008       45.134        3.159        0.005      329.522       -3.689      872.214
12/17/2013  02:25:00      -48.518      -23.693      -10.361        8.733        7.820        8.239       76.270       61.159       67.885        0.161        0.010       53.994        3.535        0.004      329.412       -3.869      872.208
12/17/2013  02:26:00      -56.675       -9.303       -5.449       13.465       11.413       10.076      181.305      130.266      101.534        0.187        0.021       57.433        4.380        0.006      329.393       -3.899      872.202
12/17/2013  02:27:00      -52.421       -4.561       -0.873        8.763        9.286        9.075       76.791       86.226       82.356        0.151        0.012       52.619        3.714        0.005      329.359       -3.957      872.196
12/17/2013  02:28:00      -31.659       -2.678        8.924       15.241        6.292        6.744      232.299       39.595       45.479        0.070        0.016       31.772        5.456        0.029      329.484       -3.752      872.198
12/17/2013  02:29:00       -9.716       -6.114       -0.491        6.671        6.429        6.981       44.504       41.334       48.731        0.013        0.007       11.480        6.030        0.276      329.631       -3.511      872.193
12/17/2013  02:30:00      -13.020       -6.513        2.968        5.089        6.109        3.909       25.903       37.320       15.283        0.015        0.004       14.558        2.410        0.027      329.624       -3.523      872.200
12/17/2013  02:31:00       -2.071        5.242       -0.100        9.621        6.220        5.911       92.565       38.685       34.941        0.010        0.008        5.637        3.996        0.503      329.642       -3.494      872.201
12/17/2013  02:32:00       36.105       10.873        1.836       10.377        6.552        6.183      107.673       42.929       38.232        0.081        0.009       37.707        5.544        0.022      329.818       -3.203      872.206
12/17/2013  02:33:00       38.212       10.975       -2.970        9.762        7.613        8.824       95.296       57.958       77.856        0.091        0.012       39.757        3.931        0.010      329.803       -3.230      872.207
12/17/2013  02:34:00        9.625        5.910        5.764       13.850        7.881        8.358      191.827       62.112       69.853        0.024        0.016       11.295        7.758        0.472      329.803       -3.228      872.202
12/17/2013  02:35:00      -23.871       -4.136       -3.796       15.726        9.272        4.962      247.312       85.972       24.625        0.048        0.018       24.227        3.773        0.024      329.615       -3.537      872.195
12/17/2013  02:36:00      -51.692      -10.609      -10.157        8.476        8.521        7.791       71.846       72.606       60.695        0.155        0.010       52.770        5.729        0.012      329.335       -3.996      872.183
12/17/2013  02:37:00      -41.931      -11.454       -6.863        7.643        9.526        6.948       58.418       90.753       48.281        0.107        0.010       43.467        2.466        0.003      329.331       -4.004      872.182
12/17/2013  02:38:00      -19.808       -5.438       -2.233        8.490        5.710        3.888       72.076       32.601       15.113        0.027        0.006       20.541        2.578        0.016      329.375       -3.933      872.185
12/17/2013  02:39:00       -2.706       -0.242       -0.545        7.128        4.170        3.342       50.808       17.391       11.171        0.004        0.004        2.716        1.457        0.288      329.534       -3.669      872.188
12/17/2013  02:40:00      -12.371        0.085        0.099        6.669        5.082        5.540       44.476       25.822       30.692        0.013        0.005       12.372        4.217        0.116      329.574       -3.602      872.196
12/17/2013  02:41:00      -25.397       -6.586       -4.206        7.873        7.668        6.632       61.988       58.798       43.980        0.044        0.008       26.237        5.677        0.047      329.426       -3.847      872.198
12/17/2013  02:42:00      -29.510      -12.381       -7.433        9.800        9.090        6.598       96.041       82.622       43.531        0.065        0.011       32.002        4.405        0.019      329.361       -3.955      872.197
12/17/2013  02:43:00      -26.670       -7.350      -13.895       11.768        7.663        6.849      138.496       58.727       46.909        0.060        0.012       27.664        5.884        0.045      329.440       -3.825      872.187
12/17/2013  02:44:00      -32.050       -4.107       -8.058       10.213        6.059        5.547      104.304       36.713       30.765        0.064        0.009       32.312        2.728        0.007      329.451       -3.807      872.191
12/17/2013  02:45:00      -49.575       -1.148       -8.537       12.241       10.009        7.015      149.830      100.172       49.204        0.142        0.015       49.588        6.003        0.015      329.345       -3.981      872.185
12/17/2013  02:46:00      -54.921        1.678       -5.362       10.973        8.335        8.559      120.402       69.476       73.250        0.166        0.013       54.947        7.471        0.018      329.290       -4.068      872.180
12/17/2013  02:47:00      -33.392       -0.887        1.200        9.960        8.111        6.402       99.196       65.794       40.992        0.066        0.010       33.404        2.764        0.007      329.313       -4.033      872.176
12/17/2013  02:48:00      -26.130        3.265        1.388       13.514        8.223        6.119      182.637       67.611       37.441        0.049        0.014       26.333        5.127        0.038      329.379       -3.926      872.160
12/17/2013  02:49:00        9.819       33.369       -5.686       11.197       33.069        9.913      125.380     1093.587       98.261        0.128        0.066       34.784        3.993        0.013      329.543       -3.655      872.147
12/17/2013  02:50:00       23.130       61.932       -9.481       14.961       16.369       11.292      223.822      267.959      127.511        0.254        0.031       66.110        8.467        0.016      329.607       -3.551      872.134
12/17/2013  02:51:00       25.033       55.327       -5.775       12.285       16.091        8.626      150.912      258.912       74.410        0.210        0.024       60.727        6.144        0.010      329.566       -3.618      872.119
12/17/2013  02:52:00       13.460       54.437       -7.920       11.967       17.708        8.368      143.220      313.556       70.029        0.187        0.026       56.077        7.657        0.019      329.568       -3.617      872.106
12/17/2013  02:53:00       12.884       63.157       -8.755       11.297        8.874        5.823      127.621       78.742       33.904        0.224        0.012       64.457        5.545        0.007      329.622       -3.526      872.098
12/17/2013  02:54:00       16.861       52.334       -4.658       12.904       16.859       10.603      166.523      284.230      112.416        0.180        0.028       54.983        7.906        0.021      329.590       -3.578      872.087
12/17/2013  02:55:00       16.487       38.845       -2.662       16.244       14.971       11.598      263.879      224.125      134.512        0.121        0.031       42.199        9.854        0.055      329.584       -3.588      872.082
12/17/2013  02:56:00       19.642       39.524       -4.602       13.215       16.642       13.094      174.636      276.956      171.456        0.130        0.031       44.136       11.357        0.066      329.595       -3.571      872.069
12/17/2013  02:57:00       16.663       40.055       -0.241       13.312       12.117       10.684      177.203      146.815      114.152        0.116        0.022       43.383        6.982        0.026      329.651       -3.478      872.076
12/17/2013  02:58:00       24.503       36.233       -0.951       17.945       19.924       14.315      322.007      396.954      204.911        0.142        0.046       43.740       12.345        0.080      329.646       -3.486      872.076
12/17/2013  02:59:00       21.053       33.089       -1.858       17.585       18.542       13.695      309.225      343.811      187.550        0.119        0.042       39.219       11.937        0.093      329.623       -3.525      872.077
12/17/2013  03:00:00       39.112       30.139        4.353       14.817       12.470       12.812      219.544      155.509      164.151        0.150        0.027       49.377        9.225        0.035      329.658       -3.468      872.076
12/17/2013  03:01:00       40.497       31.067       -2.042       24.717       17.169        8.329      610.950      294.786       69.373        0.179        0.049       51.041        8.432        0.027      329.684       -3.425      872.077
12/17/2013  03:02:00       12.571       18.683        1.507       12.452       13.967       11.297      155.048      195.067      127.611        0.049        0.024       22.519       11.311        0.252      329.647       -3.485      872.084
12/17/2013  03:03:00       13.509       16.293       -2.295       14.532       13.074        9.018      211.182      170.918       81.320        0.046        0.023       21.165        8.795        0.173      329.672       -3.444      872.082
12/17/2013  03:04:00       22.404       16.074       -2.767       10.137        9.402        8.647      102.754       88.390       74.765        0.052        0.013       27.574        6.596        0.057      329.705       -3.390      872.079
12/17/2013  03:05:00       19.911       28.144       -4.752       13.699       13.831        9.777      187.665      191.301       95.588        0.084        0.024       34.475       10.109        0.086      329.705       -3.387      872.067
12/17/2013  03:06:00       34.015       26.963        1.259       13.390       15.145       12.180      179.302      229.368      148.342        0.122        0.028       43.405       10.315        0.056      329.733       -3.344      872.053
12/17/2013  03:07:00       23.447       26.318       -2.286       11.240       14.300        9.739      126.349      204.489       94.840        0.084        0.021       35.248        5.448        0.024      329.711       -3.379      872.041
12/17/2013  03:08:00       15.872       26.036       -3.088       13.598       10.428        9.595      184.895      108.748       92.065        0.066        0.019       30.493        6.075        0.040      329.692       -3.411      872.027
12/17/2013  03:09:00       18.409        7.679       -0.914       10.086        7.670        6.730      101.725       58.836       45.295        0.030        0.010       19.947        4.709        0.056      329.724       -3.358      872.022
12/17/2013  03:10:00       10.425       14.294       -1.038        7.488        6.327        7.531       56.075       40.037       56.710        0.023        0.008       17.692        3.256        0.034      329.735       -3.338      872.014
12/17/2013  03:11:00       -4.737        5.261       -1.958        9.187        6.774        4.028       84.409       45.884       16.226        0.010        0.007        7.079        3.253        0.211      329.728       -3.351      872.010
12/17/2013  03:12:00      -35.158       -6.340       -3.772        6.882        7.045        5.617       47.368       49.626       31.551        0.071        0.006       35.725        3.981        0.012      329.495       -3.732      872.007
12/17/2013  03:13:00      -43.716      -15.073      -11.569        6.946        6.219        4.953       48.246       38.674       24.530        0.119        0.006       46.242        2.386        0.003      329.287       -4.074      872.011
12/17/2013  03:14:00      -44.794      -18.384       -7.353        7.901        6.401        5.755       62.420       40.976       33.121        0.127        0.007       48.420        2.709        0.003      329.246       -4.139      872.010
12/17/2013  03:15:00      -43.786       -7.667       -5.196        8.005        7.020        6.907       64.080       49.285       47.705        0.108        0.008       44.452        4.484        0.010      329.318       -4.025      872.013
12/17/2013  03:16:00      -40.524       -8.621       -2.797       10.079        8.599        7.546      101.591       73.938       56.943        0.098        0.012       41.431        5.897        0.020      329.361       -3.956      871.977
12/17/2013  03:17:00      -50.143      -17.899       -4.868        8.737        6.034        4.371       76.338       36.409       19.103        0.150        0.007       53.241        1.876        0.001      329.329       -4.008      871.965
12/17/2013  03:18:00      -54.894      -14.359       -8.951        8.583        7.099        6.876       73.674       50.392       47.286        0.174        0.009       56.741        2.990        0.003      329.264       -4.109      871.955
12/17/2013  03:19:00      -49.540       -9.292       -8.905        9.769       10.174        9.350       95.426      103.514       87.414        0.145        0.014       50.404        3.888        0.006      329.277       -4.089      871.937
12/17/2013  03:20:00      -61.140      -19.186       -8.592       10.909        8.190        5.862      119.008       67.080       34.362        0.220        0.011       64.080        3.330        0.003      329.267       -4.107      871.929
12/17/2013  03:21:00      -66.996      -10.531       -4.642       15.227       13.162       11.874      231.853      173.239      140.997        0.258        0.027       67.818       10.757        0.025      329.188       -4.234      871.923
12/17/2013  03:22:00      -70.362      -14.476      -12.706       25.277       14.075        8.256      638.947      198.109       68.162        0.311        0.045       71.835        9.370        0.017      329.185       -4.242      871.925
12/17/2013  03:23:00      -73.051       -9.878      -10.935       22.644       17.364       14.890      512.767      301.493      221.701        0.329        0.052       73.715       11.324        0.024      329.178       -4.252      871.921
12/17/2013  03:24:00      -59.832      -13.075      -10.300       17.499       17.921       11.081      306.217      321.149      122.785        0.230        0.038       61.244       11.300        0.034      329.149       -4.299      871.909
12/17/2013  03:25:00      -68.264      -22.431      -12.048       17.531       16.259       10.704      307.331      264.368      114.574        0.300        0.034       71.855        8.453        0.014      329.145       -4.306      871.898
12/17/2013  03:26:00      -85.694      -14.662       -2.279       21.633       21.903       16.134      467.976      479.727      260.315        0.439        0.060       86.940       13.384        0.024      329.146       -4.304      871.887
12/17/2013  03:27:00      -96.256      -33.851      -12.428       26.251       25.218       17.183      689.127      635.934      295.264        0.609        0.081      102.035       14.092        0.019      329.146       -4.304      871.875
12/17/2013  03:28:00     -105.608      -26.048       -3.860       21.430       25.158       13.508      459.261      632.932      182.460        0.656        0.064      108.773       10.428        0.009      329.085       -4.405      871.871
12/17/2013  03:29:00      -98.786      -22.008       -7.398       26.042       18.823       15.369      678.193      354.299      236.201        0.578        0.063      101.208       12.049        0.014      329.103       -4.373      871.858
12/17/2013  03:30:00      -91.867      -26.018       -2.305       34.600       22.647       17.843     1197.128      512.872      318.359        0.557        0.101       95.480       16.011        0.028      329.101       -4.378      871.856
12/17/2013  03:31:00     -113.458      -30.059       -8.589       33.537       23.443       15.306     1124.721      549.577      234.286        0.788        0.095      117.372       16.309        0.019      329.021       -4.509      871.849
12/17/2013  03:32:00     -134.500      -14.064      -11.828       23.982       19.274       17.079      575.119      371.482      291.684        0.983        0.062      135.233       11.025        0.007      329.089       -4.398      871.834
12/17/2013  03:33:00      -96.146      -13.529       -5.654       34.907       33.764       17.830     1218.522     1140.032      317.910        0.607        0.134       97.093       16.953        0.030      329.126       -4.337      871.827
12/17/2013  03:34:00      -73.492      -20.205       -1.679       43.439       35.827       26.067     1886.933     1283.577      679.464        0.483        0.192       76.218       25.497        0.112      329.040       -4.477      871.827
12/17/2013  03:35:00     -107.818        0.667       -4.494       57.209       29.376       22.437     3272.826      862.975      503.410        0.814        0.232      107.820       26.765        0.062      329.073       -4.424      871.801
12/17/2013  03:36:00     -111.045       12.818       -4.452       36.361       32.133       23.623     1322.114     1032.531      558.033        0.771        0.146      111.782       18.361        0.027      329.103       -4.375      871.787
12/17/2013  03:37:00     -125.738       23.563      -11.121       28.748       21.589       15.919      826.424      466.101      253.423        0.902        0.077      127.926       11.738        0.008      329.165       -4.273      871.768
12/17/2013  03:38:00     -124.962        6.822       -8.965       32.964       29.326       15.866     1086.606      859.989      251.744        0.897        0.110      125.148       10.911        0.008      329.197       -4.222      871.744
12/17/2013  03:39:00     -116.846        6.509       -7.173       27.094       26.322       17.822      734.098      692.861      317.631        0.775        0.087      117.027       12.056        0.011      329.222       -4.179      871.725
12/17/2013  03:40:00      -42.175       -8.325       -2.310       31.859       24.707       16.773     1015.012      610.458      281.321        0.188        0.095       42.988       18.737        0.190      329.182       -4.245      871.711
12/17/2013  03:41:00      -58.763      -28.796       -7.809       33.437       15.505       16.051     1118.026      240.413      257.622        0.298        0.081       65.440       10.843        0.027      329.183       -4.244      871.694
12/17/2013  03:42:00      -63.597      -35.703      -11.253       23.886       19.979       15.092      570.522      399.175      227.754        0.332        0.060       72.933        7.643        0.011      329.131       -4.329      871.683
12/17/2013  03:43:00      -74.715      -30.306      -17.595       23.425       18.707       15.053      548.742      349.937      226.583        0.397        0.056       80.627       10.409        0.017      329.114       -4.355      871.672
12/17/2013  03:44:00     -109.360      -35.485      -16.818       32.831       24.948       18.922     1077.892      622.419      358.030        0.778        0.103      114.973       15.679        0.019      329.056       -4.451      871.668
12/17/2013  03:45:00     -105.875      -43.616      -20.782       49.772       29.091       18.065     2477.281      846.313      326.328        0.860        0.182      114.507        9.912        0.007      329.109       -4.365      871.665
12/17/2013  03:46:00     -138.510      -13.800      -14.112       36.399       27.832       18.843     1324.888      774.619      355.054        1.101        0.123      139.196       14.240        0.010      329.077       -4.415      871.670
12/17/2013  03:47:00     -132.820        2.032       -1.168       48.220       25.069       25.057     2325.213      628.435      627.851        1.061        0.179      132.836       24.596        0.034      329.113       -4.356      871.658
12/17/2013  03:48:00     -115.915        1.334       -9.464       44.325       37.982       26.381     1964.666     1442.606      695.956        0.881        0.205      115.923       24.239        0.044      329.155       -4.289      871.639
12/17/2013  03:49:00     -142.459       34.446      -11.905       47.249       29.925       20.860     2232.450      895.486      435.154        1.259        0.178      146.565       17.195        0.014      329.226       -4.173      871.614
12/17/2013  03:50:00     -135.540       40.315      -15.206       43.153       24.868       20.865     1862.207      618.407      435.364        1.157        0.146      141.408       15.776        0.012      329.281       -4.083      871.586
12/17/2013  03:51:00     -142.776       45.089      -13.937       47.296       32.750       24.247     2236.869     1072.532      587.923        1.325        0.195      149.727       23.505        0.025      329.334       -3.998      871.578
12/17/2013  03:52:00     -150.593       33.403      -14.465       30.372       32.311       20.786      922.438     1044.012      432.060        1.320        0.120      154.253       17.200        0.012      329.295       -4.060      871.569
12/17/2013  03:53:00      -90.693       10.911       -7.972       53.821       33.069       19.418     2896.673     1093.565      377.045        0.639        0.218       91.347       20.526        0.050      329.289       -4.070      871.560
12/17/2013  03:54:00     -101.600      -27.503        0.173       33.532       28.009       18.694     1124.424      784.507      349.452        0.667        0.113      105.257       14.770        0.020      329.201       -4.213      871.557
12/17/2013  03:55:00     -115.549      -34.280       -5.238       36.188       38.338       19.457     1309.601     1469.825      378.588        0.886        0.158      120.527       13.654        0.013      329.101       -4.376      871.547
12/17/2013  03:56:00     -108.915      -21.714       -1.782       43.073       40.068       22.271     1855.265     1605.439      496.003        0.815        0.198      111.058       21.774        0.038      329.220       -4.182      871.545
12/17/2013  03:57:00     -107.433      -11.600       -2.629       37.792       31.716       25.932     1428.204     1005.920      672.451        0.739        0.155      108.057       23.138        0.046      329.142       -4.310      871.554
12/17/2013  03:58:00     -111.827      -33.253       -5.197       24.928       25.831       19.449      621.425      667.219      378.270        0.765        0.083      116.666       15.675        0.018      329.198       -4.219      871.553
12/17/2013  03:59:00     -106.956      -36.266      -10.351       24.278       22.698       15.843      589.400      515.187      251.003        0.711        0.068      112.937        9.225        0.007      329.237       -4.154      871.547
12/17/2013  04:00:00     -105.320      -26.884       -7.407       35.489       17.279       17.247     1259.437      298.575      297.458        0.686        0.093      108.697       19.985        0.034      329.190       -4.231      871.548
12/17/2013  04:01:00     -114.110      -28.998      -16.266       17.949       15.462        9.302      322.174      239.070       86.531        0.739        0.032      117.737        8.694        0.005      329.145       -4.305      871.555
12/17/2013  04:02:00     -115.134      -30.026      -11.186       15.165       16.361       11.275      229.971      267.671      127.125        0.745        0.031      118.985        6.605        0.003      329.213       -4.195      871.564
12/17/2013  04:03:00     -107.980      -22.212      -14.832        9.470        7.150        6.949       89.675       51.125       48.287        0.628        0.009      110.241        4.301        0.002      329.207       -4.205      871.562
12/17/2013  04:04:00      -82.448      -33.522       -8.887       11.300       11.112       10.428      127.684      123.472      108.733        0.418        0.018       89.002        6.801        0.006      329.264       -4.111      871.560
12/17/2013  04:05:00      -78.802      -30.696       -6.796       16.479       12.542       11.813      271.552      157.297      139.558        0.388        0.028       84.570       10.821        0.016      329.359       -3.957      871.552
12/17/2013  04:06:00      -87.989      -33.081        0.183       16.337       12.591       10.017      266.883      158.532      100.332        0.468        0.026       94.002        5.602        0.004      329.364       -3.949      871.549
12/17/2013  04:07:00     -106.700      -18.972       -7.444       12.283       12.677       12.190      150.866      160.696      148.604        0.613        0.023      108.374        7.058        0.004      329.278       -4.088      871.568
12/17/2013  04:08:00     -101.749      -21.639       -3.813       25.889       22.970       16.482      670.253      527.628      271.670        0.615        0.073      104.024       14.455        0.019      329.323       -4.016      871.553
12/17/2013  04:09:00     -101.824      -27.904       -2.206       25.237       14.879        9.346      636.913      221.376       87.356        0.605        0.047      105.578       10.700        0.010      329.324       -4.013      871.526
12/17/2013  04:10:00      -88.494      -21.512        1.059       20.756       19.145       15.330      430.829      366.530      235.013        0.466        0.052       91.071       12.128        0.018      329.255       -4.126      871.499
12/17/2013  04:11:00      -92.713       -1.999       -3.219       23.055       18.072       17.512      531.512      326.582      306.663        0.489        0.058       92.735       15.218        0.027      329.162       -4.277      871.476
12/17/2013  04:12:00      -83.788        4.592       -4.838       16.621       12.914       12.993      276.264      166.762      168.808        0.384        0.031       83.914       10.516        0.016      329.092       -4.391      871.458
12/17/2013  04:13:00      -52.545       -3.844       -3.430       18.637        8.110        9.089      347.343       65.769       82.604        0.164        0.025       52.685       10.966        0.043      329.162       -4.279      871.447
12/17/2013  04:14:00      -37.725      -14.987       -2.617        9.374        9.249        5.706       87.879       85.542       32.560        0.093        0.010       40.592        4.727        0.014      329.208       -4.202      871.443
12/17/2013  04:15:00      -53.973       -8.727       -7.889       11.050        9.400        6.254      122.092       88.365       39.110        0.165        0.012       54.674        4.391        0.006      329.230       -4.166      871.444
12/17/2013  04:16:00      -73.251      -19.399      -10.651        9.687       11.519        6.921       93.845      132.684       47.903        0.306        0.014       75.776        3.265        0.002      329.280       -4.085      871.454
12/17/2013  04:17:00      -89.842      -30.363       -6.956       14.811        9.981        6.339      219.351       99.617       40.183        0.470        0.018       94.834        3.659        0.001      329.220       -4.184      871.463
12/17/2013  04:18:00     -116.848      -22.978      -11.064       14.885       15.490       10.809      221.570      239.955      116.834        0.744        0.029      119.086        8.970        0.006      329.139       -4.315      871.475
12/17/2013  04:19:00     -116.255      -16.950      -12.616       29.761       18.468       16.055      885.727      341.050      257.750        0.772        0.074      117.484       16.138        0.019      329.121       -4.345      871.484
12/17/2013  04:20:00     -119.980      -27.949       -9.905       19.810       19.982       13.728      392.430      399.299      188.467        0.813        0.049      123.192       11.987        0.009      329.101       -4.378      871.494
12/17/2013  04:21:00      -93.648      -14.136       -8.958       18.307       19.500       15.256      335.141      380.252      232.747        0.500        0.047       94.709       13.058        0.019      329.035       -4.485      871.500
12/17/2013  04:22:00      -73.753      -22.902       -4.314       18.967       15.163       11.591      359.750      229.925      134.340        0.335        0.036       77.227       11.059        0.021      329.045       -4.468      871.489
12/17/2013  04:23:00      -66.046       -5.708       -3.818       18.085       18.138       16.264      327.078      328.972      264.506        0.266        0.046       66.292       10.576        0.025      329.071       -4.426      871.477
12/17/2013  04:24:00      -75.367        3.008       -6.619       20.864       18.820       12.710      435.288      354.210      161.554        0.334        0.048       75.427        8.868        0.014      329.126       -4.337      871.451
12/17/2013  04:25:00      -47.080       -3.230       -2.418        7.792        7.928        6.744       60.716       62.853       45.488        0.120        0.008       47.191        4.851        0.011      329.153       -4.293      871.418
12/17/2013  04:26:00      -40.098       -8.339       -7.588        7.186        8.670        6.708       51.643       75.169       44.993        0.095        0.009       40.956        5.496        0.018      329.169       -4.266      871.386
12/17/2013  04:27:00      -31.970      -11.827       -3.909        7.056        9.738        7.117       49.787       94.822       50.655        0.069        0.010       34.088        6.249        0.034      329.151       -4.296      871.363
12/17/2013  04:28:00      -36.466      -10.842       -5.930       17.538        7.831        5.735      307.568       61.326       32.889        0.094        0.020       38.044        4.486        0.014      329.192       -4.229      871.343
12/17/2013  04:29:00      -64.179      -14.335       -6.388        8.932        7.081        6.957       79.779       50.145       48.402        0.227        0.009       65.761        3.567        0.003      329.030       -4.494      871.339
12/17/2013  04:30:00      -68.769       -8.258       -9.978       13.101       14.706       11.244      171.643      216.259      126.418        0.271        0.026       69.263        9.476        0.019      328.922       -4.670      871.333
12/17/2013  04:31:00      -57.268      -14.828       -7.961       13.890       12.152        9.889      192.924      147.669       97.791        0.200        0.022       59.157        8.038        0.018      328.910       -4.690      871.326
12/17/2013  04:32:00      -65.531      -10.526      -11.149       14.482       13.248       10.250      209.737      175.522      105.058        0.251        0.025       66.371        5.733        0.007      328.889       -4.725      871.324
12/17/2013  04:33:00      -73.166       -6.685      -12.075       21.896       14.275        8.895      479.417      203.770       79.121        0.315        0.038       73.470        8.570        0.014      328.900       -4.707      871.320
12/17/2013  04:34:00      -77.813      -15.768       -9.587       17.072       12.382       10.707      291.452      153.313      114.650        0.348        0.028       79.395       11.143        0.020      328.882       -4.736      871.322
12/17/2013  04:35:00      -69.830      -15.958      -10.116       12.204       12.343       10.242      148.937      152.341      104.895        0.282        0.020       71.630        7.093        0.010      328.899       -4.707      871.321
12/17/2013  04:36:00      -73.893      -10.926       -7.490       13.104        9.128       11.201      171.721       83.328      125.461        0.301        0.019       74.696        6.585        0.008      329.006       -4.532      871.315
12/17/2013  04:37:00      -68.887       -7.889       -8.859        8.989        6.941        7.123       80.810       48.175       50.739        0.253        0.009       69.337        4.002        0.003      329.028       -4.497      871.317
12/17/2013  04:38:00      -65.503      -15.345       -6.339       10.073        9.576        6.534      101.456       91.698       42.699        0.240        0.012       67.276        2.872        0.002      329.127       -4.335      871.324
12/17/2013  04:39:00      -55.182       -9.935       -7.677       12.102        7.074        7.526      146.459       50.040       56.643        0.173        0.013       56.069        5.970        0.011      329.186       -4.240      871.336
12/17/2013  04:40:00      -29.765       -2.290       -5.661        6.352        2.863        3.949       40.347        8.195       15.597        0.049        0.003       29.853        2.825        0.009      329.208       -4.201      871.338
12/17/2013  04:41:00      -24.768        7.625        2.751        5.885       11.177        7.141       34.629      124.922       50.998        0.044        0.011       25.915        6.958        0.072      329.361       -3.953      871.329
12/17/2013  04:42:00        7.961       13.943        5.673        7.030        6.928        8.470       49.422       47.994       71.736        0.023        0.008       16.055        5.518        0.118      329.354       -3.966      871.322
12/17/2013  04:43:00       -8.892       18.688        0.370        7.255       11.620        4.112       52.639      135.024       16.905        0.032        0.010       20.695        2.854        0.019      329.395       -3.898      871.306
12/17/2013  04:44:00      -16.133       11.066        0.708        6.959        6.614        5.240       48.427       43.751       27.453        0.025        0.006       19.564        4.147        0.045      329.373       -3.934      871.296
12/17/2013  04:45:00       -4.670        3.540        6.154        7.351        3.386        3.386       54.031       11.464       11.466        0.007        0.004        5.860        1.928        0.108      329.313       -4.031      871.287
12/17/2013  04:46:00        2.945       13.947       -1.145       12.522       13.601        6.372      156.808      184.979       40.606        0.029        0.019       14.255        6.784        0.226      329.409       -3.875      871.283
12/17/2013  04:47:00        1.493       35.373       -4.489        8.574       11.645        8.220       73.521      135.614       67.566        0.078        0.014       35.405        4.530        0.016      329.354       -3.966      871.280
12/17/2013  04:48:00        6.354       40.631       -3.361        8.805        9.954        5.141       77.530       99.084       26.431        0.095        0.010       41.124        4.679        0.013      329.295       -4.062      871.280
12/17/2013  04:49:00       12.741       17.886       -0.085        7.319       13.664        8.060       53.563      186.697       64.964        0.039        0.015       21.960        8.362        0.145      329.250       -4.133      871.279
12/17/2013  04:50:00       20.823       12.222       -2.141        5.592        5.047        5.085       31.273       25.473       25.861        0.034        0.004       24.145        1.343        0.003      329.204       -4.209      871.288
12/17/2013  04:51:00        5.309       13.718        5.855        6.510        7.853        9.958       42.377       61.673       99.162        0.023        0.010       14.710        5.934        0.163      329.212       -4.194      871.303
12/17/2013  04:52:00      -12.432        6.898        9.665       10.864       13.193        9.999      118.020      174.060       99.971        0.034        0.020       14.217        8.730        0.377      329.168       -4.268      871.307
12/17/2013  04:53:00        0.410       21.196       27.682        9.020       14.749        7.930       81.368      217.518       62.886        0.079        0.018       21.200        7.300        0.119      329.238       -4.155      871.315
12/17/2013  04:54:00        7.123       11.852       17.094       10.931        8.596        4.870      119.491       73.886       23.718        0.035        0.011       13.828        2.907        0.044      329.201       -4.218      871.308
12/17/2013  04:55:00       18.927       17.830       13.747        5.336        5.126        7.777       28.477       26.278       60.486        0.049        0.006       26.003        3.886        0.022      329.179       -4.251      871.307
12/17/2013  04:56:00       35.517       20.479        5.134        8.240        5.256        7.794       67.899       27.629       60.752        0.093        0.008       40.998        4.299        0.011      329.163       -4.276      871.301
12/17/2013  04:57:00       39.917       21.705        6.258        7.992        8.225        8.244       63.873       67.653       67.960        0.115        0.010       45.437        6.327        0.019      329.147       -4.303      871.304
12/17/2013  04:58:00       28.080        7.908        2.996       11.257       10.351        5.978      126.710      107.147       35.733        0.056        0.013       29.172        4.789        0.027      329.225       -4.174      871.302
12/17/2013  04:59:00        0.518       -1.225        9.605        6.078        5.070        5.833       36.942       25.701       34.018        0.010        0.005        1.330        3.367        6.412      329.206       -4.204      871.298
12/17/2013  05:00:00      -14.119       -5.476        6.715        8.148        8.345        5.512       66.387       69.645       30.385        0.022        0.008       15.144        1.150        0.006      329.046       -4.467      871.293
12/17/2013  05:01:00       -7.710       10.666        3.201        8.360       10.960        9.233       69.895      120.127       85.257        0.023        0.014       13.161        7.523        0.327      329.089       -4.397      871.281
12/17/2013  05:02:00       14.965       13.597       -0.026        9.146       10.700        8.639       83.649      114.484       74.626        0.034        0.014       20.220        5.367        0.070      329.124       -4.339      871.274
12/17/2013  05:03:00       22.057       20.102        4.524       12.317        9.453        6.830      151.719       89.352       46.645        0.060        0.014       29.843        5.085        0.029      329.076       -4.418      871.278
12/17/2013  05:04:00       44.948       22.462       -0.354       10.267       10.573        6.586      105.420      111.795       43.372        0.139        0.013       50.248        4.878        0.009      329.055       -4.451      871.282
12/17/2013  05:05:00       38.053       21.862        0.236       12.571        9.306       11.975      158.036       86.596      143.404        0.116        0.019       43.886        5.426        0.015      328.987       -4.564      871.292
12/17/2013  05:06:00       52.215       23.396        7.331       15.270       12.243       13.833      233.161      149.892      191.362        0.195        0.029       57.217       10.087        0.031      329.008       -4.529      871.297
12/17/2013  05:07:00       50.707       33.534        1.302       11.124       13.169       12.203      123.754      173.412      148.907        0.207        0.022       60.793        8.415        0.019      328.983       -4.571      871.297
12/17/2013  05:08:00       61.863       40.121        2.698       13.205       11.632       11.622      174.380      135.297      135.067        0.294        0.022       73.734        5.471        0.006      328.911       -4.688      871.301
12/17/2013  05:09:00       53.839       33.760       -1.337       11.688       12.373       13.705      136.616      153.094      187.824        0.226        0.024       63.549        4.570        0.005      328.907       -4.694      871.294
12/17/2013  05:10:00       20.498       24.885        5.110       18.519       21.871       14.101      342.935      478.319      198.845        0.104        0.051       32.240        9.651        0.090      328.911       -4.689      871.296
12/17/2013  05:11:00       29.260       19.998        0.382       19.599       18.130       13.163      384.110      328.701      173.259        0.107        0.044       35.441       13.906        0.154      328.919       -4.673      871.290
12/17/2013  05:12:00       22.663        9.195        5.718       14.502        8.903        9.446      210.315       79.270       89.230        0.050        0.019       24.457        6.034        0.061      328.928       -4.661      871.279
12/17/2013  05:13:00       42.816       31.745        4.064       19.940       12.746       12.450      397.610      162.457      155.014        0.179        0.036       53.300        3.966        0.006      328.863       -4.766      871.252
12/17/2013  05:14:00       57.658       31.405       -1.324       11.536       15.967       11.637      133.072      254.935      135.421        0.242        0.026       65.656        6.059        0.009      328.875       -4.746      871.229
12/17/2013  05:15:00       56.436       34.922       -1.457       16.932       14.398        9.830      286.687      207.304       96.630        0.250        0.030       66.367        7.847        0.014      328.858       -4.773      871.214
12/17/2013  05:16:00       58.444       50.490       -4.054       18.471       14.878       11.446      341.188      221.354      131.012        0.334        0.035       77.234        4.892        0.004      328.835       -4.810      871.193
12/17/2013  05:17:00       65.005       42.167        2.558       17.933       21.402       18.441      321.596      458.029      340.058        0.356        0.056       77.483       15.594        0.041      328.861       -4.768      871.178
12/17/2013  05:18:00       74.745       43.914       -0.414       21.109       19.870       14.054      445.592      394.823      197.510        0.428        0.052       86.690        9.944        0.013      328.860       -4.770      871.180
12/17/2013  05:19:00       86.181       48.856        4.118       24.103       22.500       18.439      580.960      506.272      339.993        0.563        0.071       99.066       13.435        0.018      328.869       -4.756      871.184
12/17/2013  05:20:00       77.247       58.786        3.737       22.478       17.906       14.430      505.277      320.626      208.234        0.524        0.052       97.071        8.843        0.008      328.872       -4.749      871.177
12/17/2013  05:21:00       85.759       58.875        7.117       15.502       21.087       16.971      240.324      444.671      288.011        0.592        0.049      104.023        8.503        0.007      328.874       -4.748      871.177
12/17/2013  05:22:00       72.103       43.655        4.188       23.049       16.950       15.217      531.267      287.299      231.543        0.409        0.053       84.289       12.089        0.021      328.842       -4.800      871.181
12/17/2013  05:23:00       63.024       47.328       -4.042       16.022       12.338       12.324      256.720      152.233      151.891        0.339        0.028       78.816        7.809        0.010      328.883       -4.733      871.187
12/17/2013  05:24:00       46.111       36.132        2.646       14.815       14.289       11.170      219.470      204.172      124.773        0.199        0.027       58.581        5.067        0.007      328.888       -4.725      871.194
12/17/2013  05:25:00       61.236       39.622        8.752       15.567       12.852       13.101      242.328      165.161      171.648        0.299        0.029       72.937        7.258        0.010      328.925       -4.666      871.197
12/17/2013  05:26:00       52.230       38.342        3.012       10.551        8.741       10.609      111.323       76.406      112.555        0.225        0.015       64.792        6.781        0.011      328.945       -4.633      871.205
12/17/2013  05:27:00       35.054       30.950       -1.000       16.042       12.488        8.789      257.359      155.946       77.247        0.134        0.025       46.762        7.926        0.029      328.987       -4.562      871.220
12/17/2013  05:28:00       30.400       30.359        1.077       11.554        7.847        7.986      133.495       61.569       63.773        0.105        0.013       42.963        5.451        0.016      329.026       -4.498      871.235
12/17/2013  05:29:00       20.032       21.101       -5.744        9.965       11.236        7.363       99.293      126.257       54.217        0.058        0.014       29.095        5.460        0.035      329.078       -4.414      871.241
12/17/2013  05:30:00       -8.296       21.537       -2.593        8.353        8.907        2.668       69.774       79.341        7.120        0.035        0.008       23.079        3.012        0.017      329.128       -4.334      871.247
12/17/2013  05:31:00      -44.612       11.175       -1.153        9.238        7.330        5.323       85.336       53.724       28.335        0.114        0.008       45.991        1.908        0.002      328.991       -4.557      871.246
12/17/2013  05:32:00      -19.349        6.501        4.605       12.472        5.697        6.880      155.560       32.458       47.333        0.034        0.012       20.412        7.974        0.153      329.099       -4.379      871.228
12/17/2013  05:33:00        7.205        6.526       12.026        9.359        7.145        7.383       87.588       51.044       54.505        0.022        0.010        9.721        6.377        0.430      329.144       -4.307      871.207
12/17/2013  05:34:00       24.367       16.811        2.519       11.722        5.318        5.928      137.402       28.277       35.139        0.054        0.010       29.604        5.122        0.030      329.141       -4.310      871.188
12/17/2013  05:35:00       47.721       25.203        6.441        6.709        7.551        7.871       45.005       57.012       61.945        0.156        0.008       53.968        5.823        0.012      329.228       -4.171      871.178
12/17/2013  05:36:00       47.150       32.769        5.712       11.357       12.401        8.865      128.979      153.784       78.596        0.185        0.018       57.418        6.758        0.014      329.179       -4.249      871.170
12/17/2013  05:37:00       42.746       30.553        0.844       11.118        9.126        7.708      123.620       83.292       59.420        0.151        0.013       52.542        4.323        0.007      329.158       -4.285      871.166
12/17/2013  05:38:00       23.037       29.519       -2.250        8.555        7.229        5.484       73.188       52.257       30.070        0.078        0.008       37.444        3.119        0.007      329.123       -4.342      871.170
12/17/2013  05:39:00       10.232       21.781       -4.871        6.065        5.910        4.312       36.787       34.931       18.592        0.035        0.005       24.064        4.471        0.035      329.110       -4.363      871.169
12/17/2013  05:40:00        1.061       19.030        0.186        6.549        7.264        9.206       42.890       52.768       84.748        0.027        0.009       19.059        6.506        0.117      329.162       -4.281      871.162
12/17/2013  05:41:00       28.717       22.805       11.021       12.791        6.301        7.273      163.600       39.698       52.896        0.086        0.013       36.670        4.682        0.016      329.167       -4.271      871.147
12/17/2013  05:42:00        2.655        9.379        0.933       13.699       12.821        9.731      187.652      164.385       94.691        0.027        0.022        9.748        8.142        0.698      329.133       -4.325      871.141
12/17/2013  05:43:00      -19.894        9.358       -2.528       22.175       10.435        5.382      491.721      108.890       28.969        0.056        0.031       21.985        6.905        0.099      329.093       -4.393      871.144
12/17/2013  05:44:00      -57.290       -6.290       -3.803        9.266        8.650        7.407       85.851       74.818       54.861        0.178        0.011       57.634        5.041        0.008      328.922       -4.670      871.148
12/17/2013  05:45:00      -45.801       -7.771       -6.451       11.169       10.445       10.335      124.756      109.097      106.805        0.127        0.017       46.455        7.500        0.026      328.925       -4.666      871.154
12/17/2013  05:46:00      -90.056       11.317      -10.913       26.874       14.582       11.885      722.201      212.630      141.250        0.472        0.054       90.764       11.748        0.017      328.811       -4.851      871.154
12/17/2013  05:47:00      -73.993       -0.461       -4.081       28.551       17.293       16.444      815.152      299.063      270.394        0.344        0.069       73.994       16.852        0.052      328.791       -4.883      871.145
12/17/2013  05:48:00      -73.246      -15.445       -7.371       36.853       21.777       16.015     1358.109      474.225      256.495        0.387        0.104       74.857       16.452        0.048      328.782       -4.898      871.126
12/17/2013  05:49:00      -87.102      -10.996       -5.536       31.808       22.647       14.916     1011.740      512.870      222.501        0.474        0.087       87.793       15.243        0.030      328.739       -4.969      871.112
12/17/2013  05:50:00      -83.791       -6.342       -7.641       39.222       21.612       18.417     1538.365      467.058      339.201        0.473        0.117       84.031       20.237        0.058      328.817       -4.841      871.100
12/17/2013  05:51:00      -77.900       -7.743       -5.878       29.229       24.247       16.553      854.316      587.924      273.985        0.394        0.086       78.284       16.055        0.042      328.808       -4.855      871.090
12/17/2013  05:52:00      -90.298       -9.102       -9.737       18.323       19.253       12.843      335.731      370.660      164.937        0.460        0.044       90.755        9.446        0.011      328.825       -4.828      871.081
12/17/2013  05:53:00     -105.989      -30.039      -12.205       12.973       17.043        8.832      168.302      290.463       77.998        0.641        0.027      110.163        4.062        0.001      328.938       -4.644      871.081
12/17/2013  05:54:00     -103.674      -50.817       -4.662       21.685       16.564       15.599      470.255      274.366      243.320        0.717        0.049      115.458       13.018        0.013      328.934       -4.650      871.090
12/17/2013  05:55:00      -99.378      -47.475       -3.194       15.940       22.507       12.390      254.077      506.576      153.504        0.653        0.046      110.136        6.934        0.004      328.969       -4.594      871.110
12/17/2013  05:56:00      -98.563      -35.880       -7.854       15.137       21.323       13.392      229.131      454.676      179.344        0.596        0.043      104.891        5.304        0.003      328.951       -4.623      871.134
12/17/2013  05:57:00     -102.366      -40.410       -7.125       15.722       21.063       10.795      247.190      443.645      116.526        0.648        0.040      110.053        7.638        0.005      328.877       -4.743      871.154
12/17/2013  05:58:00      -90.305      -40.736       -3.405       31.181       17.586       10.210      972.267      309.272      104.251        0.561        0.069       99.068       10.221        0.011      328.925       -4.666      871.169
12/17/2013  05:59:00      -70.693      -21.815       -2.258       13.343       12.840       10.731      178.028      164.863      115.145        0.297        0.023       73.982        6.391        0.007      328.990       -4.559      871.170
12/17/2013  06:00:00      -76.316      -37.824       -6.540       13.660       17.414       10.320      186.588      303.248      106.512        0.395        0.030       85.175        7.100        0.007      329.059       -4.447      871.165
12/17/2013  06:01:00      -62.702      -39.731       -3.489       12.644       13.698       10.976      159.860      187.639      120.467        0.299        0.023       74.229        4.687        0.004      329.091       -4.394      871.166
12/17/2013  06:02:00      -89.782      -24.670       -9.749       15.257       12.793        9.185      232.770      163.650       84.359        0.462        0.024       93.110        3.980        0.002      329.026       -4.500      871.171
12/17/2013  06:03:00      -62.423      -16.010        3.078       19.960       16.949       13.539      398.406      287.262      183.295        0.252        0.043       64.443        8.873        0.019      329.010       -4.526      871.175
12/17/2013  06:04:00      -59.860      -15.223       -2.758       19.835       17.072       14.627      393.418      291.457      213.956        0.236        0.045       61.766       12.757        0.043      329.036       -4.485      871.150
12/17/2013  06:05:00      -59.542      -13.726       -6.637       16.272       11.401        9.354      264.788      129.981       87.489        0.213        0.024       61.104        6.952        0.013      329.102       -4.376      871.131
12/17/2013  06:06:00      -68.708      -31.351       -2.957       26.372       17.404       11.584      695.505      302.892      134.196        0.342        0.057       75.522       10.104        0.018      329.090       -4.394      871.125
12/17/2013  06:07:00     -105.819      -20.378       -8.036       21.098       19.471       15.462      445.119      379.102      239.069        0.637        0.053      107.763       11.850        0.012      329.040       -4.477      871.131
12/17/2013  06:08:00     -104.916      -13.090      -10.324       23.780       16.706       13.080      565.476      279.080      171.085        0.615        0.051      105.729       13.630        0.017      328.972       -4.589      871.135
12/17/2013  06:09:00      -79.970      -17.762       -6.847       22.711       14.746       11.680      515.805      217.444      136.428        0.381        0.043       81.919       10.439        0.016      328.946       -4.631      871.123
12/17/2013  06:10:00      -65.336      -26.304        0.962       30.823       18.591       14.465      950.064      345.629      209.230        0.323        0.075       70.432       14.518        0.042      328.967       -4.598      871.108
12/17/2013  06:11:00     -102.636      -36.663       -4.132       35.923       23.781       15.263     1290.475      565.522      232.970        0.699        0.104      108.987       15.644        0.021      328.920       -4.674      871.113
12/17/2013  06:12:00      -94.051      -22.028       -2.937       33.652       26.733       19.261     1132.472      714.660      370.991        0.578        0.111       96.596       19.451        0.041      328.883       -4.735      871.124
12/17/2013  06:13:00      -97.396       -6.270       -6.447       34.816       19.373       19.205     1212.136      375.323      368.846        0.576        0.098       97.598       20.998        0.046      328.818       -4.839      871.122
12/17/2013  06:14:00      -79.577       -9.667       -8.445       37.759       31.206       17.372     1425.732      973.842      301.791        0.460        0.135       80.162       15.689        0.038      328.835       -4.813      871.118
12/17/2013  06:15:00      -83.033       -0.957       -4.265       39.251       37.115       23.636     1540.667     1377.545      558.663        0.519        0.174       83.039       23.523        0.080      328.912       -4.685      871.117
12/17/2013  06:16:00     -103.411        1.125       -3.021       44.406       26.055       25.030     1971.866      678.852      626.477        0.699        0.164      103.418       25.950        0.063      328.891       -4.720      871.131
12/17/2013  06:17:00     -125.139       -6.775      -17.593       18.946       17.803       14.674      358.942      316.940      215.319        0.845        0.045      125.322        7.002        0.003      328.913       -4.685      871.143
12/17/2013  06:18:00     -120.907      -11.477      -12.953       21.126       14.273       15.205      446.308      203.731      231.195        0.790        0.044      121.451       13.008        0.011      328.851       -4.785      871.152
12/17/2013  06:19:00     -109.432      -29.890      -11.726       17.602       17.285       11.460      309.845      298.770      131.329        0.687        0.037      113.440        8.295        0.005      328.963       -4.602      871.154
12/17/2013  06:20:00     -108.356      -51.504       -4.159       18.748       13.477       13.295      351.499      181.631      176.755        0.756        0.035      119.974       11.493        0.009      328.982       -4.573      871.152
12/17/2013  06:21:00     -105.029      -50.526       -6.269       25.300       27.218       14.837      640.070      740.814      220.123        0.761        0.080      116.550        8.551        0.005      329.050       -4.460      871.154
12/17/2013  06:22:00      -99.047      -52.500       -6.233       21.597       21.345       16.888      466.450      455.602      285.216        0.691        0.060      112.101       11.604        0.011      329.094       -4.389      871.152
12/17/2013  06:23:00      -84.541      -36.922       -3.708       19.553       14.190       12.241      382.326      201.345      149.844        0.463        0.037       92.252       10.739        0.014      329.138       -4.317      871.157
12/17/2013  06:24:00      -50.437      -11.124        4.460       23.568       15.295       12.655      555.466      233.924      160.152        0.182        0.047       51.649       13.498        0.068      329.129       -4.333      871.155
12/17/2013  06:25:00      -34.288      -15.960        4.779       21.182       13.800       10.170      448.667      190.437      103.424        0.110        0.037       37.821        6.246        0.027      329.140       -4.315      871.161
12/17/2013  06:26:00      -73.179      -24.900        0.340       27.596       13.714       11.256      761.543      188.063      126.704        0.353        0.054       77.299       12.114        0.025      329.199       -4.216      871.162
12/17/2013  06:27:00      -94.127      -28.295       -1.912       27.952       23.070       13.782      781.331      532.230      189.936        0.558        0.075       98.287        9.831        0.010      329.231       -4.165      871.172
12/17/2013  06:28:00      -66.959      -17.198        0.990       31.484       26.022       14.944      991.227      677.155      223.327        0.334        0.095       69.132       13.258        0.037      329.182       -4.244      871.182
12/17/2013  06:29:00      -50.910       -9.418        8.552       25.151       27.344       15.761      632.555      747.719      248.407        0.219        0.081       51.774       14.685        0.080      329.103       -4.373      871.183
12/17/2013  06:30:00      -62.952       -5.499        0.690       32.364       17.095       16.288     1047.433      292.224      265.287        0.280        0.080       63.192       18.400        0.085      329.103       -4.375      871.185
12/17/2013  06:31:00      -38.157      -17.221       10.763       21.649       15.997       13.898      468.698      255.900      193.153        0.139        0.046       41.863       12.889        0.095      329.144       -4.306      871.170
12/17/2013  06:32:00      -33.993       -6.337       -2.273       21.923        9.687       10.537      480.602       93.832      111.029        0.094        0.034       34.578       11.317        0.107      329.231       -4.165      871.148
12/17/2013  06:33:00      -50.509      -19.053       -0.504       14.412       17.691        8.313      207.700      312.981       69.102        0.175        0.029       53.983        3.476        0.004      329.290       -4.069      871.127
12/17/2013  06:34:00      -39.933      -18.711        2.959       23.398       23.016       13.330      547.454      529.718      177.677        0.160        0.063       44.100       11.839        0.072      329.251       -4.133      871.110
12/17/2013  06:35:00      -68.663      -21.077       -2.858       15.345       13.532        7.814      235.471      183.115       61.061        0.282        0.024       71.825        7.959        0.012      329.182       -4.246      871.097
12/17/2013  06:36:00      -86.555      -26.270       -4.566       21.520       19.998       10.709      463.107      399.901      114.692        0.459        0.049       90.454       10.907        0.015      329.112       -4.359      871.086
12/17/2013  06:37:00      -50.168       -8.465       -0.214       23.776       19.347       13.971      565.297      374.309      195.177        0.186        0.057       50.877        7.315        0.021      329.022       -4.507      871.095
12/17/2013  06:38:00      -88.082        0.696       -1.458       34.002       23.297       18.242     1156.113      542.765      332.770        0.490        0.102       88.084       18.155        0.042      329.011       -4.524      871.104
12/17/2013  06:39:00      -85.045       -0.986       -4.589       28.407       19.534       15.624      806.964      381.579      244.102        0.434        0.072       85.050       14.475        0.029      328.956       -4.614      871.122
12/17/2013  06:40:00      -94.928        4.474       -1.489       33.537       19.807       18.659     1124.738      392.306      348.159        0.545        0.093       95.034       18.400        0.037      328.948       -4.627      871.132
12/17/2013  06:41:00     -104.693       -1.369       -9.114       18.399       14.535       15.145      338.539      211.271      229.372        0.591        0.039      104.702       12.255        0.014      328.979       -4.578      871.133
12/17/2013  06:42:00      -63.700      -12.425       -5.865       23.470       14.061       11.759      550.845      197.698      138.265        0.257        0.044       64.901        9.274        0.020      329.044       -4.470      871.136
12/17/2013  06:43:00      -55.344      -15.903       -1.914       20.947       15.531       11.460      438.762      241.210      131.334        0.207        0.041       57.584        9.619        0.028      329.052       -4.458      871.131
12/17/2013  06:44:00      -68.394       -3.680       -8.956       18.303       10.601        8.954      334.992      112.376       80.173        0.265        0.026       68.492        8.488        0.015      329.108       -4.366      871.136
12/17/2013  06:45:00      -53.260      -11.913       -6.162       13.415        8.671        7.742      179.956       75.187       59.938        0.167        0.016       54.576        7.647        0.020      329.150       -4.299      871.143
12/17/2013  06:46:00      -29.605      -28.738        1.779       23.345       14.787        7.256      544.970      218.647       52.643        0.126        0.041       41.259        7.148        0.030      329.284       -4.078      871.168
12/17/2013  06:47:00      -19.221      -16.314        3.446       12.470       10.363        7.615      155.508      107.392       57.992        0.048        0.016       25.211        6.027        0.057      329.347       -3.976      871.195
12/17/2013  06:48:00      -30.973      -18.935       -2.916       10.483       10.564        7.736      109.901      111.606       59.845        0.080        0.014       36.302        5.433        0.022      329.252       -4.129      871.207
12/17/2013  06:49:00      -26.880       -1.004       -2.503        8.226        7.734        5.776       67.666       59.810       33.361        0.045        0.008       26.898        3.503        0.017      329.200       -4.216      871.210
12/17/2013  06:50:00       -4.310        4.253        5.877        4.643        8.001        3.915       21.559       64.023       15.326        0.009        0.005        6.055        1.172        0.037      329.320       -4.020      871.198
12/17/2013  06:51:00       -1.018        7.553       12.197        4.092        7.345        8.540       16.740       53.950       72.934        0.018        0.007        7.622        3.499        0.211      329.339       -3.987      871.185
12/17/2013  06:52:00        7.522       17.550        8.184       13.925       12.284        8.944      193.915      150.888       80.003        0.043        0.021       19.094       11.033        0.334      329.299       -4.056      871.191
12/17/2013  06:53:00        0.688        6.828       -0.377        4.648        5.779        6.373       21.600       33.402       40.609        0.007        0.005        6.862        4.040        0.347      329.320       -4.018      871.192
12/17/2013  06:54:00       11.255       18.498        2.896        8.602        8.811        5.647       74.003       77.642       31.883        0.033        0.009       21.653        4.973        0.053      329.264       -4.108      871.181
12/17/2013  06:55:00       27.593       27.078       16.140       18.187       13.424       15.333      330.769      180.195      235.113        0.125        0.037       38.660       11.956        0.096      329.232       -4.165      871.174
12/17/2013  06:56:00       13.238       23.988       27.332       18.928       22.023       14.566      358.254      485.020      212.170        0.128        0.053       27.398       11.457        0.175      329.260       -4.118      871.182
12/17/2013  06:57:00       11.703       14.698       21.995       15.878       12.816       11.838      252.110      164.253      140.131        0.070        0.028       18.788        8.675        0.213      329.217       -4.189      871.198
12/17/2013  06:58:00       45.673       33.048        8.058       12.409        7.663       14.468      153.987       58.728      209.309        0.183        0.021       56.375        5.312        0.009      329.210       -4.199      871.200
12/17/2013  06:59:00       78.219       42.862        6.908       17.739       12.135       12.759      314.665      147.258      162.784        0.431        0.031       89.192        8.146        0.008      329.216       -4.189      871.182
12/17/2013  07:00:00       82.595       37.893        5.793       13.556       17.685       13.972      183.760      312.748      195.230        0.449        0.035       90.873        7.540        0.007      329.163       -4.277      871.175
12/17/2013  07:01:00       41.857       20.314        8.373       27.443       22.722       19.873      753.141      516.275      394.938        0.195        0.083       46.525       13.583        0.085      329.176       -4.256      871.185
12/17/2013  07:02:00       29.337       23.264       20.472       14.637       14.193       11.374      214.253      201.433      129.378        0.118        0.027       37.441        8.796        0.055      329.173       -4.262      871.187
12/17/2013  07:03:00       38.730       35.315       17.403       15.773        8.783       15.463      248.773       77.133      239.099        0.181        0.028       52.413        8.355        0.025      329.125       -4.337      871.187
12/17/2013  07:04:00       42.272       30.844       29.241       16.104       11.310       11.481      259.327      127.920      131.811        0.206        0.026       52.329        3.089        0.003      329.155       -4.290      871.170
12/17/2013  07:05:00       28.630       17.387       10.391       11.265       10.714        9.167      126.906      114.785       84.028        0.078        0.016       33.496        7.519        0.050      329.161       -4.280      871.173
12/17/2013  07:06:00       15.548       15.691       14.997       17.086       11.666        9.372      291.941      136.093       87.834        0.061        0.026       22.089        9.201        0.174      329.227       -4.173      871.178
12/17/2013  07:07:00       20.183       16.510       26.312       15.323       10.261        7.123      234.810      105.294       50.742        0.088        0.020       26.076        6.632        0.065      329.221       -4.180      871.167
12/17/2013  07:08:00       44.038       25.769        6.574        8.886        6.819       12.325       78.961       46.497      151.917        0.146        0.014       51.023        5.694        0.012      329.221       -4.181      871.138
12/17/2013  07:09:00       46.388       23.422        0.706       14.685       14.222       12.977      215.659      202.270      168.399        0.164        0.029       51.966       10.217        0.039      329.217       -4.187      871.116
12/17/2013  07:10:00       32.979       18.378        6.765       12.159       16.984        9.599      147.839      288.459       92.148        0.100        0.026       37.754        6.112        0.026      329.161       -4.280      871.116
12/17/2013  07:11:00       31.448       17.829       17.956       19.942       13.501       11.628      397.671      182.286      135.207        0.117        0.036       36.151       10.542        0.085      329.177       -4.256      871.132
12/17/2013  07:12:00       13.936       10.903       19.895       20.066       13.124        9.742      402.660      172.236       94.907        0.069        0.033       17.695        8.055        0.207      329.199       -4.219      871.148
12/17/2013  07:13:00        4.228        0.343       10.328        7.004        6.520        6.964       49.055       42.511       48.498        0.013        0.007        4.242        3.304        0.607      329.263       -4.113      871.165
12/17/2013  07:14:00       -4.521       -1.613        8.387        4.388        4.424        3.875       19.253       19.570       15.015        0.007        0.003        4.800        2.313        0.232      329.243       -4.145      871.186
12/17/2013  07:15:00       17.753       12.810       14.291       16.608       12.224        7.124      275.839      149.420       50.758        0.058        0.024       21.892        5.260        0.058      329.229       -4.168      871.190
12/17/2013  07:16:00       38.637       27.806       11.012        8.220        7.318       10.969       67.570       53.553      120.309        0.131        0.012       47.603        5.253        0.012      329.199       -4.219      871.178
12/17/2013  07:17:00       33.408       23.821        8.045       11.330        9.569        8.553      128.376       91.560       73.156        0.102        0.015       41.031        5.040        0.015      329.186       -4.239      871.175
12/17/2013  07:18:00       46.077       18.241       13.993       20.490       14.751       13.510      419.835      217.596      182.515        0.174        0.041       49.557        5.594        0.013      329.200       -4.217      871.176
12/17/2013  07:19:00       67.727       58.886       17.816       22.651       14.120       12.238      513.068      199.363      149.763        0.462        0.043       89.747        4.152        0.002      329.182       -4.245      871.158
12/17/2013  07:20:00      104.534       63.747       31.060       22.459       18.086       23.935      504.403      327.096      572.871        0.868        0.070      122.438       10.015        0.007      329.206       -4.205      871.120
12/17/2013  07:21:00      128.946       60.178       19.152       23.359       24.704       24.982      545.629      610.304      624.108        1.120        0.089      142.297       13.177        0.009      328.962       -4.604      871.102
12/17/2013  07:22:00      107.791       57.028       12.085       25.760       20.198       19.406      663.589      407.978      376.582        0.823        0.072      121.947       12.714        0.011      328.888       -4.725      871.093
12/17/2013  07:23:00       85.382       45.086       14.248       21.995       20.322       17.478      483.788      412.971      305.480        0.536        0.060       96.555       10.560        0.012      328.891       -4.719      871.104
12/17/2013  07:24:00       76.159       48.052       12.713       10.629        9.588        9.775      112.974       91.933       95.546        0.429        0.015       90.051        7.347        0.007      328.880       -4.737      871.125
12/17/2013  07:25:00       60.569       30.842       22.456       18.599       16.226       14.381      345.908      263.294      206.812        0.297        0.041       67.969        6.944        0.010      328.972       -4.588      871.152
12/17/2013  07:26:00       28.536       18.754       17.478       24.834       14.972       12.425      616.731      224.153      154.391        0.123        0.050       34.147       11.351        0.110      328.996       -4.551      871.180
12/17/2013  07:27:00       31.133       10.878       25.929       18.457       17.727       14.227      340.668      314.260      202.406        0.131        0.043       32.979       12.312        0.139      329.008       -4.530      871.202
12/17/2013  07:28:00       -0.648       -2.930       17.028       12.386       11.235        7.666      153.401      126.219       58.771        0.032        0.017        3.001        8.069        7.229      329.180       -4.248      871.219
12/17/2013  07:29:00      -29.929       -0.731       -2.531       11.204       11.659       10.819      125.522      135.941      117.048        0.064        0.019       29.938        9.115        0.093      329.060       -4.443      871.229
12/17/2013  07:30:00      -21.268       10.285       -3.136       10.342        7.958        6.876      106.958       63.332       47.278        0.039        0.011       23.625        5.180        0.048      329.130       -4.329      871.222
12/17/2013  07:31:00        3.407        3.600       10.066        6.905        6.853        7.066       47.683       46.957       49.931        0.014        0.007        4.956        3.987        0.647      329.208       -4.206      871.219
12/17/2013  07:32:00        3.561        3.711        9.559        5.134        5.651        6.288       26.360       31.929       39.533        0.011        0.005        5.143        5.276        1.053      329.195       -4.226      871.219
12/17/2013  07:33:00      -13.500        3.995       -0.195       12.802        4.595        5.741      163.883       21.118       32.957        0.021        0.011       14.079        5.446        0.150      329.140       -4.314      871.218
12/17/2013  07:34:00       -3.647        6.132       -0.459        6.850        5.887        5.458       46.922       34.658       29.789        0.008        0.006        7.135        2.543        0.127      329.215       -4.193      871.213
12/17/2013  07:35:00        4.012       13.604       11.619       13.659        9.288        9.261      186.562       86.269       85.766        0.035        0.018       14.183        9.200        0.421      329.225       -4.178      871.208
12/17/2013  07:36:00       17.190       20.948        5.177        5.288        8.221        7.808       27.960       67.577       60.960        0.046        0.008       27.098        4.384        0.026      329.169       -4.269      871.200
12/17/2013  07:37:00        0.210       13.363        1.164        9.590        6.819        6.796       91.967       46.497       46.186        0.018        0.009       13.364        4.991        0.139      329.183       -4.246      871.202
12/17/2013  07:38:00      -22.803       13.245       -0.355        8.620        5.156        3.894       74.296       26.579       15.163        0.041        0.006       26.370        2.291        0.008      329.166       -4.272      871.210
12/17/2013  07:39:00      -22.285       15.446        2.649        8.824        6.951        7.685       77.856       48.317       59.057        0.046        0.009       27.115        5.685        0.044      329.223       -4.176      871.209
12/17/2013  07:40:00       -6.940        3.412       -0.134       10.593        5.836        7.700      112.213       34.053       59.285        0.013        0.010        7.733        5.790        0.561      329.270       -4.098      871.194
12/17/2013  07:41:00      -10.726        8.887        1.691       12.935        9.198        9.636      167.323       84.598       92.845        0.027        0.017       13.930        7.975        0.328      329.217       -4.189      871.189
12/17/2013  07:42:00        8.290       15.865        4.625        7.619        9.264        6.117       58.047       85.823       37.414        0.026        0.009       17.901        4.048        0.051      329.243       -4.146      871.182
12/17/2013  07:43:00       18.465       36.852       -4.645        9.604        8.914        8.000       92.227       79.453       64.005        0.098        0.012       41.219        6.677        0.026      329.184       -4.243      871.169
12/17/2013  07:44:00       36.265       40.365        3.832       18.666       11.313       13.789      348.427      127.976      190.143        0.181        0.033       54.263        9.502        0.031      329.163       -4.277      871.154
12/17/2013  07:45:00       53.000       41.458       -3.564       18.679       14.926       13.127      348.900      222.784      172.319        0.264        0.037       67.289        8.799        0.017      329.171       -4.267      871.139
12/17/2013  07:46:00       55.425       36.497       -4.981       25.752       16.868       14.519      663.151      284.533      210.805        0.279        0.058       66.363       11.223        0.029      329.165       -4.275      871.155
12/17/2013  07:47:00       33.449       18.734        0.109       21.951       16.126       13.677      481.837      260.036      187.074        0.120        0.046       38.338        8.005        0.044      329.182       -4.245      871.174
12/17/2013  07:48:00        1.117        2.409       13.133       11.229        8.398        7.556      126.098       70.530       57.100        0.022        0.013        2.655        6.354        5.726      329.280       -4.086      871.196
12/17/2013  07:49:00       11.507       16.788        9.795        5.511        8.940        8.245       30.368       79.921       67.974        0.034        0.009       20.353        4.171        0.042      329.177       -4.255      871.198
12/17/2013  07:50:00       28.436       21.059       15.488       10.067        6.263        7.735      101.345       39.225       59.824        0.085        0.010       35.385        1.836        0.003      329.197       -4.224      871.189
12/17/2013  07:51:00       17.126       18.664        8.873        9.587        5.840        7.358       91.912       34.111       54.147        0.045        0.009       25.331        4.896        0.037      329.229       -4.169      871.190
12/17/2013  07:52:00       28.098       24.132       16.827        9.994        8.083       11.088       99.885       65.340      122.951        0.097        0.014       37.039        4.483        0.015      329.224       -4.179      871.180
12/17/2013  07:53:00       33.964       32.004        3.586        7.957        8.478        8.868       63.320       71.882       78.636        0.120        0.011       46.667        3.053        0.004      329.206       -4.206      871.163
12/17/2013  07:54:00       15.234       23.189       -1.862       10.431        6.982        4.864      108.806       48.743       23.661        0.048        0.009       27.745        3.713        0.018      329.220       -4.181      871.166
12/17/2013  07:55:00        4.214       13.538       -0.587        4.468        4.422        5.401       19.963       19.558       29.175        0.014        0.003       14.179        1.624        0.013      329.262       -4.111      871.174
12/17/2013  07:56:00       12.797       15.646       -0.839        6.003        7.250        3.312       36.038       52.565       10.968        0.025        0.005       20.212        1.542        0.006      329.259       -4.116      871.203
12/17/2013  07:57:00       15.178       15.229        6.638        5.333        4.308        5.445       28.441       18.559       29.647        0.029        0.004       21.501        4.013        0.035      329.265       -4.106      871.222
12/17/2013  07:58:00       15.411       12.124        1.498       12.323        6.926        6.655      151.856       47.974       44.285        0.032        0.012       19.609        4.933        0.063      329.332       -4.002      871.240
12/17/2013  07:59:00       32.225       22.824       15.091       12.060        8.009        9.340      145.451       64.142       87.229        0.104        0.015       39.489        5.617        0.020      329.364       -3.949      871.245
12/17/2013  08:00:00       16.683       21.991       14.641       15.632       13.216        8.510      244.367      174.650       72.414        0.073        0.025       27.603        5.469        0.039      329.387       -3.911      871.262
12/17/2013  08:01:00       30.293       15.260        7.092        8.643        9.542        9.418       74.701       91.059       88.705        0.073        0.013       33.919        3.886        0.013      329.341       -3.985      871.283
12/17/2013  08:02:00       15.670       22.593        2.678        5.773       11.232        8.955       33.325      126.163       80.196        0.050        0.012       27.495        6.934        0.064      329.313       -4.032      871.279
12/17/2013  08:03:00       33.654       26.917        5.570       11.634        8.408       10.456      135.341       70.700      109.330        0.110        0.016       43.094        4.167        0.009      329.290       -4.067      871.255
12/17/2013  08:04:00       14.536       38.787       -2.270       11.266       11.958        9.751      126.920      142.994       95.086        0.104        0.018       41.421        7.641        0.034      329.266       -4.108      871.253
12/17/2013  08:05:00        7.814       35.451       -8.820        8.051        4.939        4.407       64.825       24.398       19.425        0.075        0.005       36.302        2.611        0.005      329.282       -4.079      871.258
12/17/2013  08:06:00       -6.831       12.499        2.269       10.497       12.446        9.126      110.189      154.904       83.281        0.028        0.017       14.244        9.867        0.480      329.363       -3.948      871.263
12/17/2013  08:07:00      -26.103        5.015       -1.895        7.213        8.974        4.487       52.023       80.526       20.131        0.043        0.008       26.580        3.668        0.019      329.309       -4.037      871.270
12/17/2013  08:08:00      -44.133        4.819       -4.413        5.434        6.677        5.053       29.530       44.588       25.536        0.104        0.005       44.395        2.893        0.004      329.296       -4.060      871.271
12/17/2013  08:09:00      -23.190        7.276       -1.756        7.779        5.023        5.096       60.514       25.229       25.974        0.035        0.006       24.304        4.076        0.028      329.330       -4.002      871.257
12/17/2013  08:10:00      -24.378       19.047        1.872        8.904        6.130        6.007       79.280       37.572       36.084        0.056        0.008       30.937        5.920        0.037      329.420       -3.856      871.242
12/17/2013  08:11:00      -54.910       12.894       -1.727       13.531       11.715        8.810      183.090      137.252       77.615        0.179        0.020       56.403        5.488        0.009      329.437       -3.829      871.241
12/17/2013  08:12:00      -40.711       -2.506       -5.910       13.832       11.691        8.148      191.322      136.686       66.389        0.105        0.020       40.788        8.526        0.044      329.392       -3.904      871.229
12/17/2013  08:13:00      -40.557      -10.430       -7.951       10.730        7.800        5.729      115.127       60.842       32.827        0.101        0.010       41.877        4.192        0.010      329.398       -3.892      871.229
12/17/2013  08:14:00      -35.799       -2.621        0.677       12.079       12.748        7.309      145.913      162.511       53.426        0.083        0.018       35.895        4.227        0.014      329.455       -3.798      871.250
12/17/2013  08:15:00      -48.935       -7.704       -2.026       13.684       14.567        9.084      187.248      212.204       82.522        0.147        0.024       49.537        4.034        0.007      329.419       -3.858      871.261
12/17/2013  08:16:00      -19.095       -4.309        1.135       18.396       10.435       11.385      338.421      108.881      129.609        0.048        0.029       19.575       13.149        0.451      329.494       -3.736      871.279
12/17/2013  08:17:00        2.970        3.984        6.178        7.141        8.047        6.954       51.000       64.759       48.356        0.011        0.008        4.969        2.823        0.323      329.530       -3.676      871.284
12/17/2013  08:18:00      -11.957       -1.713        2.039       17.702        8.847        7.894      313.351       78.261       62.323        0.030        0.023       12.079        9.216        0.582      329.619       -3.530      871.295
12/17/2013  08:19:00      -55.794       -9.104       -2.918       32.179       17.046       12.890     1035.511      290.549      166.155        0.235        0.075       56.532       15.068        0.071      329.467       -3.779      871.295
12/17/2013  08:20:00      -48.594        7.445       -6.281       27.750       19.130       13.812      770.055      365.960      190.768        0.189        0.066       49.161        4.399        0.008      329.454       -3.800      871.280
12/17/2013  08:21:00       -8.238       -2.732        4.922       14.762       11.241       10.122      217.928      126.361      102.458        0.027        0.022        8.680       10.229        1.389      329.655       -3.471      871.272
12/17/2013  08:22:00      -18.759        7.347       -0.793       18.296        7.698        6.597      334.736       59.261       43.527        0.042        0.022       20.147        3.098        0.024      329.599       -3.563      871.247
12/17/2013  08:23:00      -45.159        7.366        0.069       13.377        8.565        7.527      178.942       73.363       56.659        0.120        0.015       45.756        4.137        0.008      329.580       -3.595      871.255
12/17/2013  08:24:00      -45.531       -8.390       -2.128       13.966       12.104       10.004      195.053      146.518      100.089        0.129        0.022       46.298        4.970        0.012      329.616       -3.536      871.257
12/17/2013  08:25:00      -40.323       -8.884       -4.165       12.098       14.137        6.073      146.366      199.843       36.883        0.105        0.019       41.290        3.934        0.009      329.659       -3.467      871.266
12/17/2013  08:26:00      -41.887       11.599       -1.029        8.254       12.663        6.188       68.134      160.360       38.288        0.108        0.013       43.464        3.239        0.006      329.625       -3.522      871.248
12/17/2013  08:27:00      -14.411       15.747        9.878       13.915       11.485        9.657      193.629      131.897       93.253        0.049        0.021       21.346        7.904        0.137      329.715       -3.374      871.254
12/17/2013  08:28:00       -5.134        4.467       12.470        9.874        8.854        8.963       97.487       78.387       80.329        0.023        0.013        6.805        1.661        0.060      329.848       -3.155      871.264
12/17/2013  08:29:00       13.028       10.691       11.844       11.065        9.680        8.729      122.425       93.693       76.204        0.036        0.015       16.853        7.427        0.194      329.824       -3.195      871.266
12/17/2013  08:30:00       36.934       39.960       -3.253       14.653        9.183        9.952      214.704       84.324       99.037        0.168        0.020       54.414        7.869        0.021      329.693       -3.409      871.253
12/17/2013  08:31:00       31.893       36.549       -8.393       27.773       14.427       12.405      771.352      208.134      153.874        0.178        0.057       48.507        5.030        0.011      329.727       -3.352      871.258
12/17/2013  08:32:00       15.141       29.080        1.989       24.143       18.725       19.993      582.870      350.639      399.730        0.121        0.067       32.785       12.799        0.152      329.792       -3.247      871.263
12/17/2013  08:33:00       20.968       22.219        6.556       13.428        9.671       14.919      180.317       93.530      222.588        0.074        0.025       30.551        5.242        0.029      329.688       -3.417      871.283
12/17/2013  08:34:00       16.973       18.419       -0.924       13.994       12.658       15.612      195.842      160.220      243.733        0.061        0.030       25.047       12.421        0.246      329.775       -3.275      871.281
12/17/2013  08:35:00       20.310       20.231       -4.161       14.399        8.734       11.387      207.319       76.284      129.674        0.063        0.021       28.667       10.178        0.126      329.712       -3.377      871.278
12/17/2013  08:36:00       24.819       31.589        3.273       14.575       13.487       14.171      212.430      181.898      200.812        0.111        0.030       40.173       10.535        0.069      329.750       -3.316      871.270
12/17/2013  08:37:00       -4.251       11.036        6.836       10.195       11.347        9.065      103.947      128.749       82.176        0.025        0.016       11.827        8.476        0.514      329.995       -2.917      871.276
12/17/2013  08:38:00      -14.054        5.755        1.797        7.379        7.223        5.343       54.457       52.168       28.549        0.018        0.007       15.187        5.080        0.112      329.871       -3.118      871.283
12/17/2013  08:39:00      -19.288       -3.312       -5.082       14.310        7.177        6.673      204.776       51.515       44.531        0.035        0.015       19.570        5.644        0.083      329.977       -2.945      871.285
12/17/2013  08:40:00        4.099        5.950       17.073        7.494        7.465        5.799       56.154       55.723       33.634        0.024        0.007        7.225        2.679        0.137      330.344       -2.345      871.300
12/17/2013  08:41:00        0.574        8.728       26.389        8.980       10.018        5.432       80.639      100.369       29.502        0.049        0.011        8.746        5.467        0.391      330.372       -2.298      871.306
12/17/2013  08:42:00       44.077       15.848       19.290       18.672       15.127       17.217      348.656      228.812      296.425        0.172        0.044       46.840       12.134        0.067      330.033       -2.853      871.299
12/17/2013  08:43:00        5.989       10.515       10.671       13.056       12.527       18.881      170.454      156.916      356.474        0.047        0.034       12.101       11.096        0.841      330.189       -2.596      871.294
12/17/2013  08:44:00        4.963       19.748       22.860       14.942       20.423       14.356      223.257      417.111      206.094        0.089        0.042       20.362        9.101        0.200      330.317       -2.388      871.292
12/17/2013  08:45:00        3.543       -8.052       13.977        8.422       18.478       12.921       70.938      341.453      166.945        0.043        0.029        8.797       14.438        2.694      330.273       -2.459      871.305
12/17/2013  08:46:00       26.408       13.406       26.239       30.089       21.086       14.650      905.333      444.631      214.628        0.156        0.078       29.616       16.101        0.296      330.291       -2.430      871.315
12/17/2013  08:47:00       66.316       46.425       11.347       24.512       20.858       25.293      600.849      435.069      639.750        0.418        0.084       80.951       12.337        0.023      330.178       -2.616      871.277
12/17/2013  08:48:00       29.019       35.960       32.051       32.164       26.250       24.152     1034.492      689.054      583.317        0.273        0.115       46.209       18.233        0.156      330.284       -2.442      871.255
12/17/2013  08:49:00       12.582       16.761       36.142       19.710       18.065       15.677      388.496      326.340      245.767        0.135        0.048       20.958        8.178        0.152      330.407       -2.238      871.261
12/17/2013  08:50:00        1.868       10.717       29.170        9.869       14.232       14.068       97.389      202.559      197.922        0.073        0.025       10.879       10.004        0.846      330.471       -2.135      871.280
12/17/2013  08:51:00       38.907       27.402       37.880       25.126       22.857       18.247      631.334      522.442      332.939        0.259        0.074       47.588       15.338        0.104      330.290       -2.433      871.296
12/17/2013  08:52:00       30.292       61.805       32.481       31.851       18.678       27.671     1014.462      348.879      765.661        0.396        0.106       68.829       20.300        0.087      330.258       -2.483      871.304
12/17/2013  08:53:00       22.922       55.680       42.614       41.445       26.268       29.283     1717.665      690.031      857.479        0.435        0.163       60.214       27.658        0.211      330.337       -2.354      871.306
12/17/2013  08:54:00       -3.516       15.893       32.642       12.589       20.905       15.059      158.494      437.016      226.767        0.108        0.041       16.277       10.487        0.415      330.668       -1.812      871.326
12/17/2013  08:55:00       -2.350      -13.547       15.081       16.984       33.373       14.906      288.443     1113.733      222.176        0.102        0.081       13.749        6.559        0.228      330.454       -2.164      871.342
12/17/2013  08:56:00       24.832       52.588       45.506       24.390       21.469       17.890      594.868      460.938      320.045        0.341        0.069       58.157        9.060        0.024      330.458       -2.157      871.337
12/17/2013  08:57:00       27.587       39.654       36.950       39.134       26.549       33.865     1531.477      704.852     1146.826        0.354        0.169       48.306       30.432        0.397      330.584       -1.950      871.321
12/17/2013  08:58:00       13.147       28.641       39.222       36.682       30.953       21.372     1345.591      958.103      456.754        0.265        0.138       31.515       16.446        0.272      330.679       -1.795      871.303
12/17/2013  08:59:00        7.386       51.640       54.535       24.483       29.655       31.032      599.439      879.410      963.015        0.407        0.122       52.165       20.419        0.153      330.645       -1.850      871.294
12/17/2013  09:00:00       17.221       65.077       71.894       39.824       37.776       39.410     1585.943     1427.046     1553.115        0.713        0.228       67.317       35.334        0.276      330.539       -2.022      871.296
12/17/2013  09:01:00       28.469       56.925       55.180       27.438       23.126       17.153      752.834      534.834      294.235        0.434        0.079       63.647       11.939        0.035      330.425       -2.209      871.283
12/17/2013  09:02:00       30.099       73.852       44.183       36.525       29.548       42.729     1334.062      873.069     1825.772        0.617        0.202       79.750       25.877        0.105      330.466       -2.143      871.256
12/17/2013  09:03:00       44.396       75.758       70.572       32.137       31.700       29.101     1032.808     1004.915      846.846        0.779        0.144       87.808       15.890        0.033      330.408       -2.238      871.236
12/17/2013  09:04:00       -1.245       54.664       78.790       23.912       41.492       26.152      571.798     1721.620      683.907        0.609        0.149       54.678       22.276        0.166      330.644       -1.852      871.237
12/17/2013  09:05:00       19.149       45.688       62.922       36.756       42.902       29.544     1350.998     1840.592      872.858        0.524        0.203       49.539       31.431        0.403      330.550       -2.006      871.248
12/17/2013  09:06:00       14.280       38.437       47.948       25.639       27.163       20.204      657.377      737.821      408.204        0.289        0.090       41.004       17.171        0.175      330.570       -1.972      871.270
12/17/2013  09:07:00        4.984       12.260       37.575       14.278       19.170       11.908      203.848      367.494      141.808        0.115        0.036       13.234        6.806        0.264      330.843       -1.524      871.292
12/17/2013  09:08:00       27.436       68.242       64.176       42.195       31.360       28.119     1780.426      983.478      790.683        0.654        0.178       73.551       26.034        0.125      330.538       -2.026      871.297
12/17/2013  09:09:00       75.845       63.299       35.053       28.435       17.541       26.516      808.534      307.678      703.096        0.640        0.091       98.789       16.960        0.029      330.430       -2.202      871.278
12/17/2013  09:10:00       65.772       58.928       39.025       35.284       22.252       39.817     1244.959      495.140     1585.358        0.632        0.166       88.309       26.979        0.093      330.460       -2.154      871.280
12/17/2013  09:11:00       24.306       34.561       47.011       26.490       23.196       10.630      701.697      538.050      113.002        0.267        0.068       42.252       12.030        0.081      330.638       -1.862      871.306
12/17/2013  09:12:00       -6.182        3.861       35.346       10.055       15.286       13.937      101.113      233.664      194.247        0.092        0.026        7.289       10.747        2.174      331.205       -0.930      871.322
12/17/2013  09:13:00       64.942       70.934       55.667       47.067       21.669       25.784     2215.347      469.530      664.839        0.785        0.167       96.172       23.736        0.061      330.575       -1.965      871.326
12/17/2013  09:14:00       68.609       63.300       36.115       42.543       34.857       34.998     1809.949     1215.038     1224.844        0.713        0.212       93.349       18.411        0.039      330.552       -2.002      871.315
12/17/2013  09:15:00       35.986       47.656       49.569       41.209       38.174       36.698     1698.177     1457.220     1346.712        0.526        0.225       59.717       23.707        0.158      330.862       -1.494      871.308
12/17/2013  09:16:00       67.919       86.388       76.672       44.697       38.368       33.426     1997.806     1472.087     1117.273        1.127        0.229      109.890       29.497        0.072      330.656       -1.829      871.296
12/17/2013  09:17:00       99.600       98.532       68.507       47.612       30.296       27.989     2266.879      917.851      783.405        1.414        0.198      140.102       14.728        0.011      330.611       -1.906      871.290
12/17/2013  09:18:00       88.297       73.093       58.845       40.367       31.851       28.466     1629.456     1014.502      810.302        1.003        0.173      114.625       11.632        0.010      330.724       -1.720      871.279
12/17/2013  09:19:00       92.856       92.831       66.102       41.626       27.001       27.998     1732.717      729.060      783.878        1.243        0.162      131.300       11.108        0.007      330.610       -1.906      871.265
12/17/2013  09:20:00       84.295       91.576       63.079       36.656       29.704       35.016     1343.685      882.342     1226.092        1.146        0.173      124.466       19.042        0.023      330.592       -1.936      871.240
12/17/2013  09:21:00       48.188       79.508       70.516       50.875       39.311       43.684     2588.241     1545.346     1908.310        0.983        0.302       92.971       37.682        0.164      330.766       -1.651      871.219
12/17/2013  09:22:00       65.729       63.560       40.227       45.501       42.701       39.218     2070.345     1823.364     1538.082        0.770        0.272       91.434       28.560        0.098      330.743       -1.689      871.199
12/17/2013  09:23:00       91.449       65.917       32.291       53.033       33.321       46.356     2812.460     1110.303     2148.913        0.991        0.304      112.730       40.190        0.127      330.737       -1.699      871.196
12/17/2013  09:24:00      100.653       70.669       37.385       53.942       28.955       43.866     2909.732      838.365     1924.229        1.110        0.284      122.984       29.735        0.058      330.641       -1.855      871.191
12/17/2013  09:25:00      118.339       84.057       25.004       22.090       19.441       24.203      487.983      377.938      585.782        1.157        0.073      145.155       11.375        0.006      330.520       -2.055      871.191
12/17/2013  09:26:00      114.764       61.044       16.948       33.204       28.623       33.318     1102.508      819.278     1110.070        1.011        0.152      129.989       16.133        0.015      330.634       -1.867      871.204
12/17/2013  09:27:00       70.010       60.929       53.163       39.638       31.282       30.996     1571.209      978.590      960.755        0.747        0.176       92.810       14.371        0.024      330.891       -1.446      871.238
12/17/2013  09:28:00       41.005       66.487       81.959       38.123       37.328       20.363     1453.381     1393.397      414.633        0.804        0.163       78.115       20.553        0.069      330.936       -1.373      871.270
12/17/2013  09:29:00       17.921       51.675       71.804       40.032       39.210       30.434     1602.599     1537.387      926.214        0.611        0.203       54.694       30.225        0.305      330.930       -1.382      871.297
12/17/2013  09:30:00       90.438       94.316       58.267       39.373       27.863       40.525     1550.250      776.359     1642.278        1.222        0.198      130.669       29.631        0.051      330.753       -1.674      871.312
12/17/2013  09:31:00      106.127       86.085       35.163       26.482       18.656       33.003      701.289      348.035     1089.209        1.102        0.107      136.651       20.252        0.022      330.569       -1.975      871.305
12/17/2013  09:32:00       83.801       68.114       36.077       43.056       24.719       28.169     1853.802      611.034      793.469        0.811        0.163      107.992        9.734        0.008      330.844       -1.522      871.286
12/17/2013  09:33:00       60.932       56.788       41.525       45.658       42.575       42.497     2084.685     1812.646     1805.963        0.718        0.285       83.292       32.084        0.148      330.979       -1.301      871.263
12/17/2013  09:34:00       43.461       35.330       12.871       33.821       31.819       26.726     1143.835     1012.435      714.284        0.309        0.144       56.009       16.506        0.087      331.177       -0.975      871.254
12/17/2013  09:35:00       48.173       58.444       53.268       36.852       36.470       28.159     1358.100     1330.080      792.938        0.603        0.174       75.738       27.026        0.127      331.037       -1.205      871.251
12/17/2013  09:36:00       41.218       54.627       34.011       47.896       31.691       36.852     2294.020     1004.289     1358.054        0.525        0.233       68.432       33.415        0.238      331.136       -1.044      871.225
12/17/2013  09:37:00       98.228       71.554        5.130       51.595       37.096       45.959     2661.993     1376.089     2112.222        1.047        0.308      121.526       28.655        0.056      330.933       -1.377      871.185
12/17/2013  09:38:00       41.558       44.938       22.486       48.689       46.612       39.548     2370.656     2172.657     1564.063        0.518        0.305       61.208       31.551        0.266      331.200       -0.938      871.167
12/17/2013  09:39:00       26.477       41.037       35.740       37.474       31.239       26.044     1404.330      975.889      678.281        0.336        0.153       48.837       21.757        0.198      331.282       -0.803      871.170
12/17/2013  09:40:00      102.777       76.723        7.362       28.435       25.938       33.970      808.554      672.772     1153.950        0.957        0.132      128.255       11.930        0.009      330.927       -1.388      871.163
12/17/2013  09:41:00       27.058       52.964       47.483       46.703       42.685       44.691     2181.217     1822.009     1997.256        0.590        0.300       59.476       34.564        0.338      331.158       -1.008      871.156
12/17/2013  09:42:00       74.060       71.774       44.216       25.039       22.346       41.351      626.935      499.343     1709.903        0.771        0.142      103.133       20.708        0.040      330.897       -1.435      871.153
12/17/2013  09:43:00       93.893       71.874       26.555       27.545       30.886       31.380      758.713      953.947      984.682        0.869        0.135      118.245       10.737        0.008      330.923       -1.392      871.173
12/17/2013  09:44:00       47.690       50.889       14.597       34.358       39.355       24.261     1180.446     1548.788      588.616        0.420        0.166       69.742       15.272        0.048      331.046       -1.191      871.186
12/17/2013  09:45:00       59.081       59.798       47.799       33.429       27.641       36.816     1117.518      764.049     1355.428        0.629        0.162       84.062       20.187        0.058      331.212       -0.917      871.183
12/17/2013  09:46:00      119.885       77.112       46.543       50.950       36.974       39.339     2595.879     1367.061     1547.572        1.400        0.276      142.543       25.142        0.031      331.011       -1.250      871.148
12/17/2013  09:47:00      127.813       90.171       44.701       42.194       33.479       46.688     1780.322     1120.877     2179.799        1.577        0.254      156.419       34.836        0.050      330.935       -1.375      871.128
12/17/2013  09:48:00       82.340       43.523       38.314       31.859       34.008       40.035     1015.014     1156.573     1602.833        0.696        0.189       93.135       25.402        0.074      330.995       -1.275      871.127
12/17/2013  09:49:00      103.631       77.121        8.702       20.178       24.526       25.608      407.134      601.547      655.784        0.921        0.083      129.178       12.196        0.009      330.901       -1.430      871.141
12/17/2013  09:50:00       44.724       44.688       12.031       49.491       28.090       30.837     2449.408      789.045      950.936        0.416        0.209       63.224       25.391        0.161      331.268       -0.827      871.121
12/17/2013  09:51:00       39.618       83.750       65.460       54.754       43.232       50.462     2998.036     1868.995     2546.441        1.014        0.371       92.648       41.910        0.205      331.434       -0.553      871.084
12/17/2013  09:52:00      115.037      110.151       83.516       57.495       36.920       40.654     3305.692     1363.098     1652.766        1.933        0.316      159.270       35.640        0.050      331.129       -1.056      871.067
12/17/2013  09:53:00      113.770       90.810       55.882       36.966       31.363       31.333     1366.491      983.649      981.738        1.382        0.167      145.568       24.065        0.027      330.986       -1.288      871.074
12/17/2013  09:54:00       41.488       45.448       61.447       49.913       33.053       27.021     2491.319     1092.468      730.148        0.594        0.216       61.537       23.774        0.149      331.374       -0.651      871.096
12/17/2013  09:55:00       11.177       50.461       65.933       30.144       38.530       28.814      908.684     1484.539      830.266        0.512        0.161       51.684       22.729        0.193      331.488       -0.465      871.103
12/17/2013  09:56:00        7.094      110.744      110.236       33.799       42.360       27.288     1142.357     1794.372      744.655        1.407        0.184      110.971       24.916        0.050      331.264       -0.834      871.091
12/17/2013  09:57:00       11.287       90.550       97.168       32.553       38.359       26.548     1059.725     1471.388      704.787        1.050        0.162       91.251       23.839        0.068      331.237       -0.877      871.091
12/17/2013  09:58:00       26.693       62.632       57.667       37.854       36.272       43.391     1432.929     1315.659     1882.764        0.630        0.232       68.083       38.312        0.317      331.280       -0.807      871.083
12/17/2013  09:59:00       71.651       52.778       11.941       41.691       37.442       37.514     1738.130     1401.929     1407.316        0.630        0.227       88.991       25.471        0.082      331.324       -0.735      871.078
12/17/2013  10:00:00       67.064       68.458       29.523       57.164       42.184       38.141     3267.735     1779.513     1454.718        0.828        0.325       95.833       27.088        0.080      331.410       -0.592      871.067
12/17/2013  10:01:00      140.104       90.328       15.689       48.320       43.346       37.941     2334.792     1878.844     1439.546        1.684        0.283      166.698       33.811        0.041      331.162       -1.001      871.055
12/17/2013  10:02:00      124.432       89.211       15.785       38.017       27.329       35.404     1445.283      746.878     1253.413        1.357        0.172      153.107       20.096        0.017      331.058       -1.171      871.066
12/17/2013  10:03:00      109.094       70.738       -2.084       30.473       30.702       24.082      928.621      942.606      579.923        0.968        0.123      130.021       13.355        0.011      331.084       -1.128      871.071
12/17/2013  10:04:00       77.332       66.775       34.600       44.509       35.352       33.009     1981.037     1249.752     1089.624        0.798        0.216      102.172       12.436        0.015      331.398       -0.614      871.080
12/17/2013  10:05:00      101.847       91.304       18.930       27.215       23.789       29.219      740.651      565.910      853.734        1.061        0.108      136.782       11.198        0.007      331.402       -0.605      871.085
12/17/2013  10:06:00      109.491       82.678       34.989       25.030       28.803       23.623      626.487      829.613      558.040        1.103        0.101      137.200       12.542        0.008      331.176       -0.978      871.098
12/17/2013  10:07:00       67.487       65.567       25.171       37.606       30.048       32.077     1414.229      902.867     1028.902        0.642        0.167       94.093       24.461        0.068      331.397       -0.614      871.084
12/17/2013  10:08:00       35.070       77.495       69.153       48.949       33.931       31.678     2396.047     1151.291     1003.490        0.828        0.228       85.061       22.732        0.071      331.439       -0.546      871.079
12/17/2013  10:09:00       49.324       60.421       68.421       41.686       57.782       43.088     1737.732     3338.777     1856.594        0.885        0.347       77.997       45.362        0.338      331.422       -0.573      871.066
12/17/2013  10:10:00       23.454       33.223       56.042       35.676       57.933       34.681     1272.747     3356.214     1202.754        0.531        0.292       40.668       29.180        0.515      331.620       -0.249      871.069
12/17/2013  10:11:00       55.560       49.290       36.371       45.478       41.239       40.613     2068.258     1700.654     1649.407        0.613        0.271       74.273       31.218        0.177      331.516       -0.420      871.055
12/17/2013  10:12:00       72.850       66.790       14.500       36.303       38.599       30.157     1317.928     1489.876      909.420        0.685        0.186       98.834       20.418        0.043      331.387       -0.632      871.046
12/17/2013  10:13:00      104.249       71.685       -4.638       33.555       30.767       27.104     1125.971      946.587      734.629        0.942        0.140      126.517       19.215        0.023      331.326       -0.732      871.021
12/17/2013  10:14:00       87.600       79.102        9.676       43.263       34.922       32.388     1871.659     1219.523     1048.983        0.908        0.207      118.029        5.703        0.002      331.565       -0.338      870.992
12/17/2013  10:15:00       70.820       59.247        9.091       29.583       34.588       32.789      875.175     1196.306     1075.116        0.588        0.157       92.334       24.411        0.070      331.494       -0.456      870.960
12/17/2013  10:16:00       55.118       58.475        6.851       41.101       34.536       25.199     1689.257     1192.746      634.990        0.501        0.176       80.357       20.175        0.063      331.535       -0.388      870.926
12/17/2013  10:17:00       82.185       77.313       -0.508       38.181       26.848       28.421     1457.753      720.825      807.742        0.786        0.149      112.834       18.452        0.027      331.339       -0.709      870.906
12/17/2013  10:18:00       82.619       76.004       -7.680       55.976       47.856       33.850     3133.318     2290.189     1145.848        0.961        0.328      112.260       23.416        0.044      331.446       -0.534      870.886
12/17/2013  10:19:00       53.461       56.282        8.429       38.560       33.299       30.983     1486.892     1108.827      959.953        0.483        0.178       77.626       27.244        0.123      331.617       -0.252      870.873
12/17/2013  10:20:00       68.861       42.517       22.991       30.237       25.261       24.146      914.294      638.132      583.016        0.461        0.107       80.929        5.595        0.005      331.489       -0.462      870.862
12/17/2013  10:21:00       64.170        8.970       -0.679       27.709       34.586       19.142      767.783     1196.164      366.433        0.326        0.117       64.794       14.625        0.051      331.475       -0.484      870.865
12/17/2013  10:22:00      -12.635        7.848        7.813       16.749       25.312       20.832      280.534      640.699      433.975        0.082        0.068       14.874       19.373        1.697      331.897        0.210      870.844
12/17/2013  10:23:00        8.910       22.196       45.315       25.625       27.221       22.169      656.652      740.958      491.446        0.226        0.094       23.917       16.601        0.482      332.223        0.745      870.833
12/17/2013  10:24:00       25.030       51.039        4.012       28.870       34.950       26.527      833.471     1221.537      703.703        0.300        0.138       56.846       24.979        0.193      332.001        0.380      870.819
12/17/2013  10:25:00       61.394       71.898        8.415       54.181       30.719       26.164     2935.538      943.683      684.569        0.679        0.228       94.544       17.782        0.035      331.832        0.101      870.810
12/17/2013  10:26:00      101.262       74.229       26.712       26.769       23.415       29.383      716.604      548.241      863.352        0.930        0.106      125.555       12.988        0.011      331.520       -0.412      870.817
12/17/2013  10:27:00      127.432       82.924       27.302       20.994       16.427       23.220      440.744      269.845      539.149        1.255        0.062      152.037        7.865        0.003      331.494       -0.455      870.818
12/17/2013  10:28:00       78.794       77.112       48.236       38.624       25.865       37.222     1491.800      669.020     1385.442        0.901        0.177      110.249        5.984        0.003      331.832        0.100      870.816
12/17/2013  10:29:00       51.165       41.142       -6.146       39.069       37.280       27.234     1526.399     1389.799      741.693        0.400        0.183       65.655        4.254        0.004      331.737       -0.055      870.826
12/17/2013  10:30:00       67.621       33.359       14.968       44.942       26.713       27.437     2019.801      713.595      752.771        0.470        0.174       75.402       21.018        0.078      332.086        0.520      870.837
12/17/2013  10:31:00       62.918       76.075       77.678       54.535       36.530       41.718     2974.120     1334.416     1740.419        1.091        0.302       98.722       27.326        0.077      331.950        0.296      870.844
12/17/2013  10:32:00       23.738       50.559       74.070       41.021       47.583       37.020     1682.693     2264.122     1370.471        0.696        0.266       55.855       39.144        0.491      332.068        0.491      870.868
12/17/2013  10:33:00       23.812       -6.211       33.310       38.144       53.012       36.308     1454.964     2810.277     1318.239        0.365        0.279       24.608       34.764        1.996      332.281        0.844      870.870
12/17/2013  10:34:00       22.641      -28.466       21.425       54.049       57.146       40.254     2921.347     3265.715     1620.353        0.479        0.390       36.373       44.823        1.519      332.214        0.730      870.876
12/17/2013  10:35:00       41.038      -38.148        9.228       40.804       51.544       41.561     1664.927     2656.779     1727.346        0.464        0.302       56.030       38.752        0.478      331.938        0.278      870.873
12/17/2013  10:36:00       60.986      -41.465       17.839       52.007       49.780       39.054     2704.703     2478.012     1525.189        0.623        0.335       73.747       37.093        0.253      332.054        0.467      870.869
12/17/2013  10:37:00       18.621       19.475       31.918       20.607       26.774       24.893      424.659      716.834      619.686        0.175        0.088       26.944       10.965        0.166      332.108        0.558      870.879
12/17/2013  10:38:00       56.042       47.757       43.863       31.280       25.108       36.185      978.429      630.429     1309.369        0.513        0.146       73.630       15.819        0.046      332.048        0.457      870.884
12/17/2013  10:39:00       66.509       49.883       22.198       31.785       27.732       22.821     1010.266      769.043      520.787        0.485        0.115       83.137        7.983        0.009      331.873        0.169      870.886
12/17/2013  10:40:00       91.045       61.883       42.219       38.517       29.652       30.603     1483.540      879.232      936.534        0.860        0.165      110.085       18.119        0.027      331.933        0.268      870.888
12/17/2013  10:41:00       70.400       67.662       45.837       25.371       20.111       27.786      643.675      404.468      772.043        0.673        0.091       97.644        7.462        0.006      331.935        0.271      870.887
12/17/2013  10:42:00       21.002      -26.372       29.515       32.908       52.988       25.675     1082.958     2807.739      659.193        0.328        0.227       33.713       26.928        0.638      332.174        0.665      870.875
12/17/2013  10:43:00       50.534       29.604       40.085       38.364       31.945       32.536     1471.823     1020.498     1058.594        0.429        0.178       58.567       29.907        0.261      332.132        0.596      870.844
12/17/2013  10:44:00       46.116       67.072       58.607       45.530       45.913       33.561     2072.960     2108.030     1126.330        0.768        0.265       81.396       32.298        0.157      332.285        0.849      870.798
12/17/2013  10:45:00       68.745       53.441       52.509       47.048       42.815       36.858     2213.509     1833.139     1358.516        0.787        0.270       87.074       21.384        0.060      332.320        0.907      870.758
12/17/2013  10:46:00       73.945       56.607       41.339       36.704       34.385       36.114     1347.209     1182.353     1304.225        0.711        0.192       93.125       31.189        0.112      332.007        0.390      870.728
12/17/2013  10:47:00       55.157       23.742       32.930       36.765       23.428       31.929     1351.668      548.856     1019.454        0.380        0.146       60.050       18.361        0.093      332.280        0.841      870.717
12/17/2013  10:48:00       39.901       34.448       14.690       22.959       19.514       25.994      527.102      380.804      675.678        0.229        0.079       52.714        9.800        0.035      332.118        0.573      870.697
12/17/2013  10:49:00       49.085       70.969       48.881       44.921       39.113       34.939     2017.920     1529.843     1220.709        0.730        0.238       86.290       20.701        0.058      332.161        0.644      870.673
12/17/2013  10:50:00       91.074       71.424       52.798       38.446       34.469       40.227     1478.094     1188.122     1618.176        1.023        0.214      115.741       30.546        0.070      332.097        0.537      870.660
12/17/2013  10:51:00       70.763       63.944       71.244       45.117       53.390       43.626     2035.502     2850.454     1903.246        1.048        0.339       95.374       34.900        0.134      332.336        0.933      870.620
12/17/2013  10:52:00       86.636       99.638       63.718       56.146       47.955       47.427     3152.389     2299.719     2249.360        1.460        0.385      132.036       31.567        0.057      332.209        0.723      870.579
12/17/2013  10:53:00       76.342       76.674       38.243       62.534       35.908       55.085     3910.511     1289.393     3034.411        1.070        0.412      108.199       51.705        0.228      332.221        0.744      870.551
12/17/2013  10:54:00       74.608       78.262       10.792       32.753       23.523       31.506     1072.732      553.310      992.657        0.721        0.131      108.126       18.229        0.028      332.097        0.539      870.553
12/17/2013  10:55:00       14.084       66.558       58.478       53.075       35.425       48.101     2816.931     1254.910     2313.727        0.722        0.319       68.032       42.767        0.395      332.376        0.999      870.529
12/17/2013  10:56:00       49.344       78.941       71.612       53.853       41.582       37.615     2900.148     1729.059     1414.899        0.992        0.302       93.094       32.142        0.119      332.436        1.098      870.505
12/17/2013  10:57:00       73.738       80.179       47.722       47.679       32.852       32.715     2273.276     1079.230     1070.283        0.928        0.221      108.930       29.189        0.072      332.265        0.816      870.482
12/17/2013  10:58:00       73.650       77.544       48.868       31.913       27.034       29.552     1018.456      730.833      873.320        0.822        0.131      106.945        4.428        0.002      332.142        0.610      870.463
12/17/2013  10:59:00       37.861       38.643       29.359       40.491       27.937       28.779     1639.539      780.468      828.202        0.352        0.162       54.100       20.056        0.137      332.305        0.882      870.434
12/17/2013  11:00:00       49.291       75.044       55.542       58.028       34.647       34.135     3367.240     1200.405     1165.190        0.844        0.287       89.784       31.761        0.125      332.524        1.243      870.404
12/17/2013  11:01:00       93.139       71.773       -4.809       43.428       37.346       30.795     1886.030     1394.715      948.355        0.904        0.211      117.585       15.957        0.018      332.491        1.188      870.373
12/17/2013  11:02:00       58.509       56.875       16.772       59.210       39.768       39.972     3505.789     1581.490     1597.760        0.681        0.334       81.597       15.069        0.034      332.395        1.030      870.368
12/17/2013  11:03:00       19.334       54.228       47.314       41.992       34.530       45.827     1763.338     1192.346     2100.152        0.530        0.253       57.571       14.169        0.061      332.453        1.125      870.372
12/17/2013  11:04:00       26.391       33.568       54.706       45.119       39.809       30.062     2035.726     1584.767      903.740        0.467        0.226       42.700       34.733        0.662      332.582        1.338      870.376
12/17/2013  11:05:00       45.837       66.473       39.755       34.997       37.035       50.423     1224.796     1371.623     2542.516        0.662        0.257       80.745       31.620        0.153      332.380        1.004      870.358
12/17/2013  11:06:00       96.573      109.141       82.687       53.643       28.203       30.912     2877.592      795.393      955.574        1.635        0.231      145.733       30.124        0.043      332.351        0.957      870.344
12/17/2013  11:07:00       55.493      104.292       82.729       51.940       37.260       39.117     2697.732     1388.339     1530.164        1.321        0.281      118.137       36.569        0.096      332.507        1.215      870.325
12/17/2013  11:08:00        6.373       35.612       65.740       25.478       50.493       31.298      649.131     2549.518      979.540        0.490        0.209       36.178       33.791        0.872      332.773        1.653      870.325
12/17/2013  11:09:00       53.727       25.844       36.314       62.267       54.510       47.395     3877.188     2971.317     2246.263        0.698        0.455       59.619       48.832        0.671      332.583        1.340      870.326
12/17/2013  11:10:00       79.188       86.895       63.608       55.965       32.379       32.320     3132.043     1048.372     1044.610        1.155        0.261      117.565       25.626        0.048      332.536        1.263      870.320
12/17/2013  11:11:00       95.786       59.192       26.454       33.177       22.240       23.611     1100.729      494.608      557.486        0.777        0.108      112.600       13.158        0.014      332.335        0.933      870.316
12/17/2013  11:12:00       78.298       46.759       13.734       50.970       44.599       30.450     2597.964     1989.088      927.219        0.701        0.276       91.198       22.841        0.063      332.526        1.244      870.293
12/17/2013  11:13:00       25.531        6.684       13.658       35.666       41.634       29.374     1272.036     1733.399      862.813        0.237        0.193       26.392       22.204        0.708      332.842        1.768      870.258
12/17/2013  11:14:00      132.358      105.930       10.189       45.714       39.789       27.247     2089.787     1583.131      742.396        1.663        0.221      169.528       20.530        0.015      332.411        1.057      870.220
12/17/2013  11:15:00       92.544       59.987       10.461       42.023       43.171       18.467     1765.928     1863.763      341.014        0.812        0.199      110.285       18.958        0.030      332.388        1.018      870.187
12/17/2013  11:16:00       61.074       50.346       15.074       34.323       37.293       29.789     1178.095     1390.776      887.381        0.497        0.173       79.150       21.769        0.076      332.607        1.380      870.151
12/17/2013  11:17:00       36.013       44.483       28.578       35.999       44.227       38.500     1295.955     1956.013     1482.212        0.441        0.237       57.233       33.920        0.351      332.890        1.847      870.126
12/17/2013  11:18:00       37.594       49.235       38.328       45.810       46.007       38.426     2098.546     2116.656     1476.585        0.550        0.285       61.946       26.995        0.190      332.967        1.972      870.128
12/17/2013  11:19:00       36.734       92.206       90.913       41.549       41.087       38.095     1726.352     1688.172     1451.263        1.149        0.243       99.254       27.223        0.075      332.850        1.781      870.118
12/17/2013  11:20:00       58.777      105.765       69.806       65.724       38.697       54.441     4319.665     1497.474     2963.871        1.415        0.439      121.000       49.230        0.166      332.587        1.346      870.101
12/17/2013  11:21:00       47.736       69.683       69.754       34.758       38.456       26.266     1208.084     1478.854      689.884        0.769        0.169       84.466       17.974        0.045      332.638        1.431      870.073
12/17/2013  11:22:00       73.669       84.954       76.390       40.008       32.304       30.796     1600.636     1043.541      948.370        1.104        0.180      112.446       16.630        0.022      332.653        1.456      870.050
12/17/2013  11:23:00       30.517       65.051       68.213       38.421       38.197       31.522     1476.136     1458.982      993.621        0.687        0.196       71.853       24.500        0.116      332.676        1.493      870.020
12/17/2013  11:24:00       38.435       44.249       58.138       20.195       31.848       14.387      407.819     1014.298      206.979        0.422        0.081       58.611       15.793        0.073      332.843        1.770      870.003
12/17/2013  11:25:00       22.654       33.651       47.624       31.537       33.118       28.782      994.581     1096.832      828.375        0.342        0.146       40.566       24.334        0.360      333.003        2.035      869.982
12/17/2013  11:26:00       81.422       86.260       38.263       41.342       41.202       50.289     1709.198     1697.635     2528.970        1.073        0.297      118.618       27.397        0.053      332.675        1.492      869.946
12/17/2013  11:27:00       64.234       67.550        4.049       41.036       29.666       28.844     1683.931      880.089      832.003        0.605        0.170       93.215       14.937        0.026      332.605        1.377      869.920
12/17/2013  11:28:00        3.492      -52.684      -14.529       37.936       67.277       21.862     1439.118     4526.159      477.956        0.472        0.322       52.800       20.803        0.155      332.910        1.880      869.913
12/17/2013  11:29:00      108.415       85.027       55.075       76.721       72.236       52.847     5886.080     5218.027     2792.802        1.795        0.695      137.780       44.927        0.106      332.794        1.686      869.881
12/17/2013  11:30:00      150.213       93.170       61.447       77.343       42.270       54.257     5981.997     1786.717     2943.835        2.286        0.536      176.761       43.349        0.060      332.579        1.331      869.842
12/17/2013  11:31:00       47.658      -33.612       40.257       46.623      111.236       45.093     2173.721    12373.387     2033.360        1.080        0.829       58.319       63.792        1.197      332.775        1.657      869.835
12/17/2013  11:32:00       95.206      -59.994       20.527       47.449       66.185       39.014     2251.374     4380.392     1522.065        1.062        0.408      112.532       43.881        0.152      332.682        1.503      869.846
12/17/2013  11:33:00       77.900     -118.124      -17.328       40.655       28.432       25.103     1652.855      808.404      630.182        1.171        0.155      141.498       20.604        0.021      332.660        1.468      869.822
12/17/2013  11:34:00       12.731      -22.376       30.306       23.920       51.429       23.314      572.156     2644.977      543.545        0.267        0.188       25.744       21.624        0.706      333.095        2.186      869.798
12/17/2013  11:35:00       16.207       57.665       66.406       34.546       46.205       33.854     1193.458     2134.926     1146.064        0.624        0.224       59.899       35.416        0.350      333.036        2.089      869.788
12/17/2013  11:36:00       41.587       66.917       55.718       43.502       37.942       31.681     1892.424     1439.603     1003.698        0.682        0.217       78.787       16.567        0.044      332.924        1.902      869.772
12/17/2013  11:37:00      108.898       84.273       40.710       50.772       43.372       41.892     2577.792     1881.093     1754.964        1.341        0.311      137.698       26.202        0.036      332.867        1.809      869.735
12/17/2013  11:38:00       63.963       94.884       87.357       64.884       42.060       43.539     4209.918     1769.025     1895.620        1.430        0.394      114.430       38.062        0.111      332.836        1.756      869.723
12/17/2013  11:39:00       61.231       42.030       48.102       44.622       54.095       38.794     1991.144     2926.246     1504.950        0.712        0.321       74.269       34.439        0.215      332.834        1.756      869.721
12/17/2013  11:40:00       30.014       42.631       66.908       47.731       53.198       36.919     2278.228     2830.070     1363.024        0.683        0.324       52.136       36.340        0.486      333.006        2.039      869.708
12/17/2013  11:41:00       26.426       62.460       85.037       47.986       49.562       39.076     2302.663     2456.384     1526.962        0.906        0.314       67.820       39.067        0.332      332.973        1.985      869.699
12/17/2013  11:42:00        8.790      -16.625       49.018       21.989       70.508       28.231      483.494     4971.325      796.993        0.450        0.313       18.806       33.029        3.085      333.085        2.169      869.647
12/17/2013  11:43:00       47.979       58.714       33.469       48.497       35.246       29.828     2352.007     1242.256      889.711        0.568        0.224       75.824       17.513        0.053      332.984        2.002      869.642
12/17/2013  11:44:00       84.855       65.171       17.019       31.858       21.316       30.290     1014.956      454.380      917.474        0.706        0.119      106.994       15.595        0.021      332.731        1.585      869.639
12/17/2013  11:45:00       65.730       54.437       15.629       28.326       29.001       32.615      802.344      841.084     1063.746        0.512        0.135       85.345       16.089        0.036      333.021        2.065      869.592
12/17/2013  11:46:00       47.308       19.531       60.565       53.143       51.567       34.082     2824.224     2659.178     1161.568        0.646        0.332       51.181       35.510        0.481      333.226        2.402      869.544
12/17/2013  11:47:00       24.475       12.771       34.353       47.194       54.463       38.599     2227.296     2966.178     1489.875        0.431        0.334       27.607       35.769        1.679      333.186        2.338      869.515
12/17/2013  11:48:00       96.781       54.373        9.398       54.310       32.436       31.628     2949.623     1052.067     1000.299        0.871        0.250      111.009       19.421        0.031      333.007        2.042      869.487
12/17/2013  11:49:00       30.888       20.029       10.864       30.384       38.920       21.865      923.201     1514.732      478.091        0.219        0.146       36.813       13.994        0.144      333.300        2.524      869.509
12/17/2013  11:50:00        9.668      -56.453       23.081       35.674       44.676       27.574     1272.640     1995.966      760.304        0.392        0.201       57.274       18.089        0.100      333.418        2.718      869.531
12/17/2013  11:51:00       -6.356        0.667       30.982       28.982       55.980       32.875      839.949     3133.779     1080.788        0.303        0.253        6.390       30.143       22.249      333.486        2.832      869.525
12/17/2013  11:52:00       27.962        2.648       65.059       50.888       94.048       56.196     2589.540     8844.996     3157.966        0.980        0.730       28.087       59.954        4.556      333.270        2.475      869.475
12/17/2013  11:53:00      127.650       65.936       26.643       73.663       61.737       60.206     5426.281     3811.431     3624.757        1.710        0.643      143.673       49.966        0.121      332.891        1.848      869.412
12/17/2013  11:54:00      125.033       72.907       13.588       42.923       32.312       33.989     1842.364     1044.050     1155.267        1.259        0.202      144.737       10.922        0.006      332.900        1.863      869.387
12/17/2013  11:55:00       55.221       54.951       16.915       26.412       38.280       31.819      697.606     1465.374     1012.439        0.476        0.159       77.903       22.761        0.085      333.085        2.169      869.391
12/17/2013  11:56:00       51.831       70.557       43.764       50.815       47.367       33.523     2582.156     2243.614     1123.771        0.776        0.297       87.549       17.763        0.041      333.438        2.753      869.370
12/17/2013  11:57:00       57.153       55.246       17.163       45.178       42.385       30.503     2041.051     1796.501      930.443        0.569        0.238       79.489       21.319        0.072      333.337        2.586      869.330
12/17/2013  11:58:00       10.806        9.450       48.198       28.091       52.668       30.307      789.106     2773.914      918.514        0.350        0.224       14.355       31.685        4.872      333.570        2.971      869.313
12/17/2013  11:59:00       33.304        9.473       42.051       28.293       33.120       22.298      800.473     1096.912      497.207        0.268        0.120       34.625       21.219        0.376      333.259        2.456      869.309
12/17/2013  12:00:00       41.008       13.567       48.797       35.395       41.608       30.025     1252.789     1731.200      901.530        0.407        0.194       43.194       25.008        0.335      333.317        2.552      869.298
12/17/2013  12:01:00       17.516      -23.836       30.365       23.394       53.398       23.499      547.265     2851.382      552.214        0.287        0.198       29.580       30.581        1.069      333.419        2.722      869.264
12/17/2013  12:02:00       66.065      -21.540       11.171       47.126       33.357       25.948     2220.824     1112.679      673.293        0.448        0.200       69.488       19.680        0.080      333.158        2.290      869.241
12/17/2013  12:03:00       78.789       32.015       46.846       42.796       31.938       34.753     1831.483     1020.037     1207.803        0.674        0.203       85.045       33.459        0.155      333.170        2.310      869.239
12/17/2013  12:04:00       46.828       12.768       29.710       43.046       40.217       26.110     1852.992     1617.412      681.744        0.369        0.208       48.537       27.005        0.310      333.422        2.726      869.200
12/17/2013  12:05:00       80.266       49.496        6.479       46.872       16.450       29.062     2196.958      270.593      844.577        0.612        0.166       94.300       30.052        0.102      333.078        2.157      869.180
12/17/2013  12:06:00        4.856       32.040       29.778       23.795       24.073       21.684      566.217      579.490      470.205        0.178        0.081       32.406       14.598        0.203      333.663        3.125      869.163
12/17/2013  12:07:00       10.635       28.596       31.365       19.970       20.210       20.696      398.805      408.457      428.305        0.157        0.062       30.509       11.210        0.135      333.666        3.131      869.103
12/17/2013  12:08:00       20.553       14.410       15.073       30.160       25.674       29.655      909.619      659.167      879.428        0.165        0.122       25.102        8.004        0.102      333.608        3.034      869.111
12/17/2013  12:09:00       40.926       44.121       10.607       31.179       37.039       29.162      972.125     1371.902      850.408        0.346        0.160       60.179       22.933        0.145      333.425        2.730      869.138
12/17/2013  12:10:00       50.496       63.098        1.009       25.309       36.592       24.762      640.552     1338.940      613.156        0.456        0.130       80.816       18.106        0.050      333.277        2.486      869.115
12/17/2013  12:11:00       46.012       43.913        8.441       51.456       40.008       31.544     2647.677     1600.634      995.039        0.468        0.262       63.604       16.208        0.065      333.431        2.741      869.090
12/17/2013  12:12:00       44.465       48.012       -7.478       32.794       32.623       25.741     1075.439     1064.270      662.574        0.357        0.140       65.440       19.837        0.092      333.346        2.599      869.078
12/17/2013  12:13:00       90.220       82.269       50.052       46.166       34.830       31.553     2131.304     1213.112      995.592        1.088        0.217      122.098       24.210        0.039      333.379        2.656      869.086
12/17/2013  12:14:00       64.228       43.335       54.617       34.654       36.729       23.461     1200.910     1349.035      550.436        0.604        0.155       77.480        3.586        0.002      333.505        2.863      869.089
12/17/2013  12:15:00       63.831       46.091       29.971       39.516       41.544       31.979     1561.535     1725.889     1022.643        0.570        0.216       78.733       23.546        0.089      333.230        2.410      869.047
12/17/2013  12:16:00       65.812       36.008       17.691       59.786       31.235       23.010     3574.342      975.619      529.476        0.551        0.254       75.018       30.675        0.167      333.384        2.664      869.011
12/17/2013  12:17:00      123.664       78.180       22.993       45.918       32.648       43.237     2108.505     1065.885     1869.418        1.349        0.252      146.304       21.496        0.022      333.317        2.552      868.993
12/17/2013  12:18:00       67.262       68.424       41.839       57.791       41.390       44.372     3339.761     1713.112     1968.837        0.899        0.351       95.949       35.402        0.136      333.428        2.736      868.988
12/17/2013  12:19:00       70.270       63.807       72.045       57.477       57.263       42.195     3303.632     3279.037     1780.452        1.128        0.418       94.917       33.168        0.122      333.418        2.720      868.980
12/17/2013  12:20:00      112.687       30.283       13.177       31.317       31.314       41.075      980.727      980.548     1687.128        0.872        0.182      116.685       23.445        0.040      333.075        2.151      868.941
12/17/2013  12:21:00       97.976       28.290        6.816       21.121       32.526       21.248      446.094     1057.919      451.472        0.620        0.098      101.978       11.783        0.013      333.104        2.200      868.889
12/17/2013  12:22:00       53.138      -12.035       14.263       40.822       38.932       19.503     1666.473     1515.672      380.357        0.337        0.178       54.483       16.240        0.089      333.291        2.509      868.891
12/17/2013  12:23:00       89.917       64.358        9.050       32.929       28.672       27.292     1084.286      822.103      744.847        0.748        0.133      110.576       14.744        0.018      333.305        2.531      868.870
12/17/2013  12:24:00       90.943       72.089        6.602       37.935       25.685       26.201     1439.083      659.735      686.472        0.815        0.139      116.049       18.354        0.025      333.347        2.602      868.791
12/17/2013  12:25:00       82.419       58.309       -1.775       43.514       24.132       25.896     1893.507      582.353      670.581        0.667        0.157      100.960       12.064        0.014      333.266        2.467      868.765
12/17/2013  12:26:00       56.443       58.335       16.290       51.065       40.789       38.124     2607.614     1663.751     1453.423        0.629        0.286       81.171       27.248        0.113      333.357        2.618      868.765
12/17/2013  12:27:00      111.059       81.950        5.817       26.650       24.484       26.078      710.214      599.473      680.062        1.054        0.099      138.022       14.857        0.012      333.141        2.262      868.740
12/17/2013  12:28:00       50.521       36.240       35.712       37.023       35.889       37.668     1370.712     1288.012     1418.867        0.461        0.204       62.174       27.415        0.194      333.392        2.677      868.739
12/17/2013  12:29:00       25.759       44.666       49.700       26.443       28.419       31.087      699.230      807.657      966.380        0.380        0.124       51.561       13.224        0.066      333.481        2.824      868.774
12/17/2013  12:30:00       87.408       78.466       44.334       26.177       16.804       27.921      685.236      282.373      779.558        0.875        0.087      117.461       18.952        0.026      333.276        2.486      868.765
12/17/2013  12:31:00      107.413       61.781       10.450       23.646       18.951       20.807      559.122      359.141      432.925        0.841        0.068      123.913       12.373        0.010      333.164        2.298      868.692
12/17/2013  12:32:00       54.440       27.005       10.179       26.112       33.738       27.064      681.819     1138.234      732.444        0.317        0.128       60.770       19.322        0.101      333.352        2.610      868.633
12/17/2013  12:33:00       91.143       45.330       13.827       37.441       38.015       28.362     1401.819     1445.108      804.387        0.710        0.183      101.793       19.446        0.036      333.371        2.640      868.634
12/17/2013  12:34:00       61.956       44.227        0.794       18.731       23.286       21.687      350.841      542.236      470.325        0.358        0.068       76.122       12.794        0.028      333.388        2.670      868.600
12/17/2013  12:35:00       72.624       59.159       16.111       30.113       26.523       25.453      906.784      703.470      647.861        0.565        0.113       93.669       16.809        0.032      333.465        2.796      868.540
12/17/2013  12:36:00       15.949        8.695       11.212       34.108       60.070       23.297     1163.322     3608.359      542.739        0.288        0.266       18.165       25.296        1.939      333.685        3.161      868.550
12/17/2013  12:37:00       19.600      -23.940       23.134       40.143       33.844       24.478     1611.491     1145.393      599.194        0.242        0.168       30.940       20.658        0.446      333.834        3.409      868.581
12/17/2013  12:38:00       41.667       32.922       40.998       25.400       31.748       32.408      645.136     1007.930     1050.249        0.360        0.135       53.104       27.311        0.265      333.693        3.175      868.549
12/17/2013  12:39:00       17.388       82.991       88.836       41.099       37.373       31.360     1689.167     1396.764      983.429        0.957        0.203       84.793       22.745        0.072      333.819        3.384      868.484
12/17/2013  12:40:00       76.066       64.569       42.396       20.907       18.226       26.144      437.121      332.198      683.505        0.660        0.073       99.776       14.576        0.021      333.427        2.734      868.459
12/17/2013  12:41:00       52.671       39.841        3.160       15.333       15.452       12.569      235.107      238.774      157.987        0.250        0.032       66.042        5.854        0.008      333.380        2.656      868.444
12/17/2013  12:42:00       51.117        8.328       39.019       38.576       32.152       23.522     1488.117     1033.760      553.279        0.364        0.154       51.791        8.954        0.030      333.728        3.233      868.441
12/17/2013  12:43:00       68.826       39.125       45.619       41.451       39.477       31.210     1718.169     1558.473      974.067        0.630        0.213       79.169       21.451        0.073      333.722        3.223      868.448
12/17/2013  12:44:00      -11.161       19.298       52.200       17.852       31.285       21.282      318.685      978.741      452.930        0.249        0.088       22.293       19.224        0.744      334.128        3.897      868.441
12/17/2013  12:45:00       16.232        9.085       36.015       35.112       22.602       26.894     1232.845      510.830      723.277        0.205        0.123       18.602       22.011        1.400      334.035        3.742      868.412
12/17/2013  12:46:00       58.287       24.636       36.970       32.130       33.763       32.424     1032.315     1139.954     1051.323        0.430        0.161       63.280       27.781        0.193      333.788        3.333      868.409
12/17/2013  12:47:00       50.281       18.609       15.109       26.064       26.831       25.491      679.339      719.907      649.805        0.258        0.102       53.615       23.148        0.186      333.614        3.042      868.372
12/17/2013  12:48:00       34.409       41.524       44.958       49.530       47.893       32.678     2453.223     2293.724     1067.823        0.537        0.291       53.928       26.366        0.239      333.897        3.514      868.329
12/17/2013  12:49:00       34.312       36.979       17.979       52.653       45.856       28.055     2772.300     2102.749      787.088        0.426        0.283       50.445       33.488        0.441      333.978        3.648      868.307
12/17/2013  12:50:00       55.172       81.610       -7.168       40.457       40.853       28.310     1636.729     1669.005      801.460        0.693        0.205       98.509       19.118        0.038      333.707        3.198      868.278
12/17/2013  12:51:00       43.791       73.688       -1.869       36.055       29.214       30.149     1299.941      853.468      908.932        0.521        0.153       85.718       16.533        0.037      333.634        3.077      868.259
12/17/2013  12:52:00       44.577       34.776        7.653       24.633       23.142       20.426      606.807      535.570      417.205        0.241        0.078       56.537       16.450        0.085      333.746        3.262      868.300
12/17/2013  12:53:00       54.254       32.864        4.884       23.405       43.146       41.767      547.787     1861.546     1744.475        0.410        0.208       63.431       23.343        0.135      333.612        3.042      868.314
12/17/2013  12:54:00       76.651       47.955       12.701       16.263       24.603       27.133      264.470      605.324      736.223        0.497        0.080       90.416       14.280        0.025      333.719        3.219      868.245
12/17/2013  12:55:00       96.477       75.214       -0.994       61.707       27.173       28.724     3807.772      738.374      825.067        1.017        0.269      122.331       18.263        0.022      333.788        3.332      868.177
12/17/2013  12:56:00       12.180       59.678       50.373       27.834       28.555       29.946      774.710      815.382      896.772        0.437        0.124       60.908       14.820        0.059      333.946        3.595      868.158
12/17/2013  12:57:00       67.018       57.568       37.227       56.043       34.820       39.775     3140.847     1212.465     1582.060        0.756        0.297       88.349       35.272        0.159      333.849        3.434      868.149
12/17/2013  12:58:00       86.461       51.697       14.133       16.637       15.778       21.587      276.788      248.951      465.990        0.567        0.050      100.738        9.772        0.009      333.644        3.093      868.128
12/17/2013  12:59:00      115.404       63.834       14.075       35.448       21.869       27.489     1256.527      478.269      755.619        1.004        0.125      131.882       11.035        0.007      333.635        3.079      868.088
12/17/2013  13:00:00       93.434       61.847       27.176       36.356       22.643       22.898     1321.779      512.710      524.303        0.783        0.118      112.049       14.115        0.016      333.658        3.117      868.067
12/17/2013  13:01:00       27.200       60.330       54.407       34.089       30.404       17.951     1162.032      924.384      322.237        0.487        0.120       66.178       14.699        0.049      333.786        3.330      868.077
12/17/2013  13:02:00       28.201       15.410       30.425       34.474       24.936       35.266     1188.483      621.809     1243.681        0.251        0.153       32.137       31.967        0.989      333.854        3.443      868.089
12/17/2013  13:03:00       82.346       61.546       16.113       23.409       18.906       25.708      547.982      357.431      660.921        0.620        0.078      102.804       13.977        0.018      333.704        3.194      868.049
12/17/2013  13:04:00      106.425       48.353        0.689       25.427       19.832       26.709      646.538      393.318      713.396        0.771        0.088      116.895       17.095        0.021      333.630        3.071      868.001
12/17/2013  13:05:00       75.481       57.348       -7.936       49.525       24.248       23.929     2452.726      587.963      572.611        0.633        0.181       94.795       25.248        0.071      333.720        3.219      868.021
12/17/2013  13:06:00       22.366       45.897        0.195       19.203       20.322       16.674      368.740      413.003      278.022        0.183        0.053       51.056       13.613        0.071      333.729        3.235      868.043
12/17/2013  13:07:00       34.635       46.110       24.040       24.046       20.144       20.040      578.223      405.773      401.612        0.264        0.069       57.669        7.859        0.019      333.754        3.276      868.058
12/17/2013  13:08:00       20.708       18.817       33.210       28.686       19.337       26.000      822.887      373.902      676.023        0.188        0.094       27.980       19.170        0.469      333.974        3.642      868.056
12/17/2013  13:09:00       37.989       35.543       -7.187       17.508       24.794       14.850      306.527      614.737      220.519        0.195        0.057       52.024        6.022        0.013      333.792        3.339      868.009
12/17/2013  13:10:00       28.882       53.189        0.621       32.121       27.643       19.670     1031.788      764.112      386.907        0.292        0.109       60.524       15.413        0.065      333.873        3.475      867.939
12/17/2013  13:11:00       31.940       73.316       -9.728       39.643       45.057       27.048     1571.543     2030.098      731.573        0.541        0.217       79.971       29.072        0.132      333.829        3.402      867.925
12/17/2013  13:12:00       10.878       10.023        9.168       18.560       17.727       14.649      344.492      314.259      214.585        0.059        0.044       14.792        8.794        0.353      334.092        3.837      867.963
12/17/2013  13:13:00       43.631       43.873       44.074       22.497       20.819       15.931      506.115      433.445      253.804        0.348        0.060       61.875        6.433        0.011      333.953        3.606      867.972
12/17/2013  13:14:00       35.292       23.740       40.268       36.582       26.931       19.805     1338.232      725.279      392.253        0.294        0.123       42.534       16.884        0.158      334.154        3.940      867.905
12/17/2013  13:15:00       32.923       50.336       32.443       47.966       35.829       29.949     2300.784     1283.751      896.948        0.457        0.224       60.146       26.949        0.201      334.232        4.070      867.844
12/17/2013  13:16:00       62.552       86.746        1.119       31.573       43.076       26.643      996.826     1855.556      709.861        0.750        0.178      106.946       25.691        0.058      333.912        3.536      867.836
12/17/2013  13:17:00       74.437       60.571      -11.279       22.189       30.479       15.187      492.371      928.981      230.649        0.549        0.083       95.967       12.057        0.016      333.725        3.227      867.827
12/17/2013  13:18:00       64.316       67.643       -5.596       25.071       33.984       25.284      628.564     1154.895      639.281        0.558        0.121       93.339       23.634        0.064      333.792        3.339      867.811
12/17/2013  13:19:00       37.212       32.525        9.285       27.148       26.005       21.271      737.000      676.265      452.442        0.220        0.093       49.422       11.988        0.059      333.902        3.523      867.826
12/17/2013  13:20:00       84.019       38.196       14.044       27.689       23.621       23.590      766.660      557.940      556.487        0.530        0.094       92.293        9.573        0.011      333.915        3.543      867.812
12/17/2013  13:21:00       97.592       57.970       -3.877       23.873       32.259       17.708      569.921     1040.645      313.574        0.741        0.096      113.511        9.620        0.007      333.868        3.464      867.763
12/17/2013  13:22:00       31.840       44.909       23.057       44.759       45.971       25.129     2003.383     2113.331      631.485        0.415        0.237       55.051       22.972        0.174      334.105        3.858      867.715
12/17/2013  13:23:00       19.498       32.838       39.057       40.819       32.573       28.000     1666.193     1061.007      783.978        0.325        0.176       38.191       24.051        0.397      334.157        3.945      867.676
12/17/2013  13:24:00       50.728       71.348       61.177       44.095       27.066       20.949     1944.329      732.562      438.847        0.726        0.156       87.543       12.826        0.021      333.993        3.673      867.647
12/17/2013  13:25:00      120.893       65.545        7.152       33.619       35.431       31.650     1130.263     1255.324     1001.744        1.117        0.169      137.518       27.145        0.039      333.957        3.612      867.639
12/17/2013  13:26:00       98.484       59.607        4.815       36.257       21.269       22.599     1314.555      452.379      510.733        0.778        0.114      115.118       11.382        0.010      333.797        3.346      867.657
12/17/2013  13:27:00       50.641       30.202       18.440       26.120       21.758       29.479      682.250      473.415      868.997        0.292        0.101       58.963       11.604        0.039      333.953        3.606      867.661
12/17/2013  13:28:00       82.245       56.717       29.843       28.341       20.177       24.121      803.186      407.093      581.818        0.633        0.090       99.905       14.492        0.021      333.864        3.458      867.635
12/17/2013  13:29:00       30.532       20.467       22.799       26.439       23.721       19.591      699.013      562.683      383.822        0.176        0.082       36.757       12.687        0.119      334.126        3.893      867.605
12/17/2013  13:30:00       50.327       29.459       10.649       38.499       28.243       19.739     1482.204      797.684      389.609        0.309        0.133       58.315        9.170        0.025      334.172        3.970      867.595
12/17/2013  13:31:00       38.492       41.624       18.510       35.568       28.114       28.529     1265.096      790.396      813.902        0.321        0.143       56.694       22.874        0.163      334.189        3.998      867.588
12/17/2013  13:32:00       33.676       35.320       51.909       63.196       35.512       43.878     3993.696     1261.093     1925.254        0.613        0.359       48.801       49.048        1.010      334.140        3.917      867.584
12/17/2013  13:33:00       75.411       60.087       10.826       39.408       26.002       27.063     1553.011      676.108      732.394        0.619        0.148       96.423       15.388        0.025      333.930        3.569      867.559
12/17/2013  13:34:00      100.695       48.448        0.048       32.570       22.144       19.735     1060.812      490.351      389.474        0.721        0.097      111.744       11.222        0.010      333.932        3.571      867.523
12/17/2013  13:35:00       58.148       30.418       17.147       58.537       45.052       25.195     3426.636     2029.726      634.811        0.534        0.305       65.623        6.844        0.011      334.188        3.995      867.519
12/17/2013  13:36:00       62.365       38.293       -0.697       38.970       25.009       23.686     1518.660      625.446      561.015        0.403        0.135       73.183       16.694        0.052      333.956        3.611      867.546
12/17/2013  13:37:00       55.452       65.063       51.994       37.033       22.181       24.487     1371.414      491.992      599.625        0.624        0.123       85.488       23.416        0.075      334.032        3.736      867.574
12/17/2013  13:38:00       29.646       41.507        1.462       29.878       14.972       15.481      892.691      224.156      239.672        0.198        0.068       51.007       14.968        0.086      333.921        3.555      867.597
12/17/2013  13:39:00       -9.663       35.248        5.838       15.874       26.286       15.671      251.988      690.965      245.576        0.128        0.059       36.548       16.838        0.212      334.167        3.962      867.581
12/17/2013  13:40:00        4.494       24.374       14.296       21.771       28.882       21.752      473.964      834.193      473.151        0.130        0.089       24.785       19.284        0.605      334.271        4.133      867.535
12/17/2013  13:41:00       -4.963       46.156       -7.215       14.053       35.288       16.993      197.481     1245.233      288.764        0.197        0.087       46.422       19.085        0.169      334.089        3.833      867.525
12/17/2013  13:42:00       -9.229       76.751      -11.943       30.067       19.199       12.406      904.023      368.585      153.906        0.377        0.071       77.304        4.386        0.003      333.994        3.675      867.547
12/17/2013  13:43:00       17.572       75.467       -4.136       13.090       20.194       15.428      171.348      407.797      238.038        0.342        0.041       77.485       12.393        0.026      334.035        3.742      867.508
12/17/2013  13:44:00       48.226       54.157       -3.883       33.105       28.273       19.668     1095.926      799.354      386.818        0.378        0.114       72.517       14.848        0.042      334.080        3.816      867.435
12/17/2013  13:45:00       50.904       72.100       -0.197       30.474       17.336       25.705      928.638      300.542      660.751        0.484        0.094       88.259       14.040        0.025      334.018        3.714      867.425
12/17/2013  13:46:00       20.957       35.408        1.343       15.721       21.650       17.898      247.165      468.738      320.338        0.137        0.052       41.145       10.248        0.062      334.079        3.815      867.456
12/17/2013  13:47:00       23.856       62.568       -9.148       34.838       26.246       22.300     1213.705      688.879      497.284        0.348        0.120       66.962       24.716        0.136      334.125        3.892      867.478
12/17/2013  13:48:00       24.482       36.573        2.593       34.365       19.543       16.337     1180.940      381.926      266.893        0.189        0.091       44.010        9.242        0.044      334.181        3.984      867.504
12/17/2013  13:49:00       61.165       37.742        6.749       28.312       29.083       13.451      801.595      845.828      180.934        0.352        0.091       71.872        6.556        0.008      334.120        3.883      867.512
12/17/2013  13:50:00       79.912       58.387       18.727       44.905       35.349       27.435     2016.427     1249.579      752.706        0.708        0.201       98.970       20.189        0.042      334.123        3.888      867.463
12/17/2013  13:51:00      107.014       52.371       -4.827       35.672       23.964       24.807     1272.456      574.294      615.363        0.834        0.123      119.141       13.455        0.013      334.032        3.737      867.428
12/17/2013  13:52:00       53.957       26.928        9.516       38.368       26.092       21.471     1472.070      680.803      461.013        0.317        0.131       60.303        4.061        0.005      334.094        3.840      867.484
12/17/2013  13:53:00       24.911       30.043       12.781       16.007       10.706       16.858      256.237      114.610      284.208        0.117        0.033       39.027        5.089        0.017      334.082        3.822      867.539
12/17/2013  13:54:00       70.398       49.773       14.954       32.570       18.257       14.034     1060.833      333.308      196.967        0.462        0.080       86.216       19.245        0.050      333.993        3.673      867.506
12/17/2013  13:55:00       82.019       63.843       10.004       23.320       24.221       13.186      543.845      586.657      173.869        0.610        0.065      103.938        9.464        0.008      334.008        3.700      867.424
12/17/2013  13:56:00       11.620        5.290       -2.910       20.126       18.086       13.754      405.066      327.118      189.165        0.055        0.046       12.768        9.747        0.583      334.162        3.954      867.403
12/17/2013  13:57:00        0.032        9.307       25.689        8.289       18.566       13.622       68.709      344.687      185.557        0.067        0.030        9.307       12.479        1.798      334.479        4.478      867.401
12/17/2013  13:58:00       42.287       31.315        8.337       25.643       24.272       14.451      657.558      589.137      208.819        0.215        0.073       52.620       11.147        0.045      334.228        4.064      867.346
12/17/2013  13:59:00       57.844       44.803        3.794       50.696       37.449       32.826     2570.050     1402.401     1077.574        0.521        0.253       73.165       25.265        0.119      334.262        4.118      867.297
12/17/2013  14:00:00       62.511       42.975       22.812       42.454       36.921       28.202     1802.320     1363.150      795.329        0.512        0.198       75.859       23.665        0.097      334.212        4.037      867.306
12/17/2013  14:01:00       21.583       -2.198       10.651       19.336       14.736       13.526      373.882      217.154      182.943        0.068        0.039       21.695       11.490        0.280      334.333        4.237      867.355
12/17/2013  14:02:00       21.768        3.678       16.272       23.993       21.552       13.963      575.679      464.510      194.962        0.099        0.062       22.076       12.510        0.321      334.431        4.400      867.380
12/17/2013  14:03:00       68.534       69.028       37.419       43.758       41.330       36.406     1914.806     1708.203     1325.387        0.790        0.247       97.271       31.044        0.102      334.372        4.303      867.326
12/17/2013  14:04:00       45.072       65.514       69.569       43.372       45.601       32.050     1881.117     2079.415     1027.191        0.807        0.249       79.521       27.217        0.117      334.429        4.396      867.311
12/17/2013  14:05:00       98.392       67.415       46.921       30.605       25.342       27.732      936.654      642.234      769.072        0.939        0.117      119.272       12.346        0.011      334.149        3.931      867.346
12/17/2013  14:06:00      109.076       62.293       50.227       46.357       49.769       39.055     2148.995     2476.922     1525.305        1.222        0.308      125.611       35.963        0.082      334.168        3.962      867.326
12/17/2013  14:07:00       68.436       72.019       75.286       54.200       48.695       34.805     2937.595     2371.193     1211.381        1.103        0.326       99.349       32.503        0.107      334.223        4.053      867.271
12/17/2013  14:08:00       46.683       33.723       39.364       46.174       31.443       27.453     2132.013      988.659      753.678        0.437        0.194       57.590       19.380        0.113      334.277        4.143      867.263
12/17/2013  14:09:00       44.411       25.553       17.006       45.182       20.930       15.066     2041.453      438.062      226.990        0.281        0.135       51.238       15.898        0.096      334.289        4.165      867.336
12/17/2013  14:10:00       24.562        0.580        2.964       15.176       21.079       16.579      230.307      444.335      274.848        0.078        0.047       24.568       18.408        0.561      334.174        3.974      867.364
12/17/2013  14:11:00       74.311       41.529       20.797       24.770       20.330       16.312      613.569      413.299      266.081        0.449        0.065       85.128       11.746        0.019      334.147        3.929      867.363
12/17/2013  14:12:00       60.608       90.345       83.682       43.816       35.604       34.436     1919.833     1267.639     1185.808        1.160        0.219      108.791       27.736        0.065      334.217        4.044      867.350
12/17/2013  14:13:00      113.171       79.477       33.682       47.749       36.340       41.967     2279.993     1320.562     1761.253        1.281        0.268      138.290       31.175        0.051      334.160        3.949      867.337
12/17/2013  14:14:00       87.191       20.402       18.205       41.995       37.653       22.100     1763.603     1417.743      488.393        0.601        0.183       89.546       13.613        0.023      334.176        3.976      867.335
12/17/2013  14:15:00       71.991        8.038       14.383       35.179       37.671       24.858     1237.546     1419.112      617.906        0.436        0.164       72.438       21.590        0.089      334.255        4.107      867.350
12/17/2013  14:16:00       65.605       46.662       37.053       49.523       31.975       34.256     2452.542     1022.421     1173.455        0.625        0.232       80.507       32.289        0.161      334.332        4.235      867.328
12/17/2013  14:17:00       42.584       24.304       33.404       26.243       22.653       31.757      688.717      513.177     1008.513        0.286        0.111       49.032       14.706        0.090      334.345        4.259      867.279
12/17/2013  14:18:00       32.085       32.418       36.848       30.261       28.300       16.960      915.751      800.868      287.629        0.272        0.100       45.611       15.245        0.112      334.336        4.243      867.288
12/17/2013  14:19:00       20.912      -46.465       -0.986       24.909       31.980       18.816      620.470     1022.728      354.031        0.230        0.100       50.954       20.124        0.156      334.354        4.273      867.380
12/17/2013  14:20:00       12.041       18.567       23.948       19.685       15.734       15.793      387.515      247.553      249.431        0.097        0.044       22.130       13.544        0.375      334.418        4.378      867.428
12/17/2013  14:21:00        8.113      -25.441       12.197       31.235       37.257       27.163      975.642     1388.097      737.826        0.198        0.155       26.704       22.055        0.682      334.491        4.499      867.396
12/17/2013  14:22:00       39.668       51.393       70.261       47.735       41.689       33.498     2278.673     1737.948     1122.084        0.714        0.257       64.922       28.852        0.198      334.402        4.351      867.300
12/17/2013  14:23:00       55.735       72.943       46.141       44.648       41.984       28.391     1993.488     1762.685      806.051        0.756        0.228       91.800       21.762        0.056      334.382        4.319      867.273
12/17/2013  14:24:00       12.739       25.606       42.917       17.556       36.873       24.300      308.203     1359.648      590.477        0.246        0.113       28.600       25.801        0.814      334.403        4.353      867.338
12/17/2013  14:25:00       21.422      -13.024       19.953       26.092       25.345       16.847      680.770      642.371      283.810        0.132        0.080       25.071       18.068        0.519      334.527        4.559      867.395
12/17/2013  14:26:00       60.907       24.143       38.752       28.779       19.470       18.667      828.233      379.085      348.445        0.367        0.078       65.517       10.595        0.026      334.309        4.196      867.384
12/17/2013  14:27:00       66.170       34.787        6.703       15.741       16.487       13.950      247.792      271.817      194.599        0.317        0.036       74.757       11.005        0.022      334.249        4.098      867.334
12/17/2013  14:28:00       93.684       67.010       24.474       57.548       44.961       31.992     3311.797     2021.509     1023.504        1.011        0.318      115.182       30.945        0.072      334.356        4.273      867.270
12/17/2013  14:29:00      108.171       89.634        9.270       30.858       26.952       30.657      952.245      726.424      939.852        1.122        0.131      140.482       20.723        0.022      334.252        4.102      867.226
12/17/2013  14:30:00       95.753       48.581       13.275       24.541       27.035       17.002      602.241      730.874      289.060        0.666        0.081      107.372        9.000        0.007      334.278        4.145      867.218
12/17/2013  14:31:00       47.346       36.808       33.301       32.324       23.755       22.523     1044.864      564.280      507.266        0.341        0.106       59.971       17.949        0.090      334.340        4.249      867.270
12/17/2013  14:32:00       21.205       30.525       46.935       25.992       22.223       13.475      675.598      493.874      181.576        0.247        0.068       37.168       10.638        0.082      334.425        4.388      867.321
12/17/2013  14:33:00       50.433       52.338       26.462       24.518       15.168       19.122      601.154      230.058      365.645        0.359        0.060       72.683       13.746        0.036      334.264        4.123      867.292
12/17/2013  14:34:00      143.760       71.739       23.694       27.923       22.185       23.278      779.699      492.183      541.867        1.409        0.091      160.665       12.477        0.006      334.274        4.138      867.184
12/17/2013  14:35:00      135.294       72.852       15.912       51.532       43.027       34.075     2655.569     1851.353     1161.084        1.477        0.283      153.662       30.275        0.039      334.262        4.118      867.127
12/17/2013  14:36:00      108.886       62.195       11.269       28.807       30.521       26.527      829.829      931.540      703.689        0.916        0.123      125.397       16.343        0.017      334.292        4.169      867.157
12/17/2013  14:37:00       92.168       58.200       16.947       44.773       36.808       29.727     2004.624     1354.847      883.722        0.821        0.212      109.005       18.510        0.029      334.317        4.211      867.195
12/17/2013  14:38:00       93.287       39.539       10.225       42.126       30.850       22.454     1774.588      951.709      504.190        0.680        0.162      101.321       15.038        0.022      334.341        4.249      867.210
12/17/2013  14:39:00       23.956       40.061       48.153       30.196       22.143       19.982      911.779      490.305      399.265        0.315        0.090       46.678       12.804        0.075      334.430        4.399      867.221
12/17/2013  14:40:00       19.866       27.435       39.206       24.416       18.955       16.754      596.149      359.293      280.680        0.196        0.062       33.873       12.215        0.130      334.438        4.412      867.245
12/17/2013  14:41:00       12.603      -23.675        5.426       16.894       18.934       14.035      285.393      358.484      196.977        0.079        0.042       26.821       12.696        0.224      334.407        4.362      867.263
12/17/2013  14:42:00       23.709       18.500        7.676       24.604       31.118       17.778      605.350      968.310      316.066        0.143        0.094       30.073       12.296        0.167      334.405        4.356      867.257
12/17/2013  14:43:00       72.725       66.165       10.277       20.020       17.755       19.237      400.811      315.235      370.048        0.543        0.054       98.319        7.899        0.006      334.303        4.190      867.242
12/17/2013  14:44:00       51.050       40.562        5.877       12.036       11.889       12.487      144.873      141.355      155.937        0.236        0.022       65.203        4.031        0.004      334.283        4.152      867.260
12/17/2013  14:45:00       55.934       41.613       24.300       14.651       13.989       16.143      214.661      195.679      260.586        0.306        0.034       69.716        9.108        0.017      334.357        4.279      867.295
12/17/2013  14:46:00      103.331       56.622       18.257       30.953       19.559       25.634      958.106      382.554      657.120        0.811        0.100      117.828        7.648        0.004      334.382        4.319      867.285
12/17/2013  14:47:00      111.035       76.809       28.954       46.963       33.830       37.031     2205.495     1144.461     1371.294        1.189        0.236      135.013       29.293        0.047      334.358        4.279      867.246
12/17/2013  14:48:00       79.090       -6.763       20.549       33.875       27.615       26.413     1147.531      762.582      697.644        0.466        0.130       79.379       21.677        0.075      334.324        4.222      867.240
12/17/2013  14:49:00       52.640       10.242       15.646       35.190       31.850       22.450     1238.363     1014.440      503.997        0.294        0.138       53.627       23.058        0.185      334.377        4.309      867.228
12/17/2013  14:50:00       84.228       50.114       12.667       34.639       29.755       23.713     1199.849      885.336      562.285        0.621        0.132       98.009       16.945        0.030      334.362        4.286      867.230
12/17/2013  14:51:00       78.197       59.910       18.809       21.531       12.744       20.355      463.566      162.407      414.317        0.555        0.052       98.508       15.366        0.024      334.329        4.231      867.229
12/17/2013  14:52:00       60.616       59.000       33.989       28.830       24.704       24.479      831.185      610.269      599.205        0.518        0.102       84.590       15.493        0.034      334.440        4.415      867.185
12/17/2013  14:53:00       80.742       85.557        3.508       25.821       33.058       29.055      666.728     1092.824      844.202        0.823        0.130      117.640       11.406        0.009      334.437        4.410      867.125
12/17/2013  14:54:00       81.778       46.104       -1.499       38.738       27.379       22.515     1500.611      749.593      506.920        0.579        0.138       93.879       19.380        0.043      334.419        4.380      867.128
12/17/2013  14:55:00       61.045       24.230        0.557       23.289       20.975       20.757      542.389      439.931      430.869        0.286        0.071       65.678       12.525        0.036      334.345        4.258      867.204
12/17/2013  14:56:00       85.950       62.142       27.140       35.457       18.288       21.017     1257.229      334.450      441.705        0.701        0.102      106.062       17.369        0.027      334.316        4.209      867.249
12/17/2013  14:57:00       94.618       67.177       21.766       30.712       29.397       21.152      943.216      864.202      447.411        0.810        0.113      116.040       12.716        0.012      334.309        4.195      867.227
12/17/2013  14:58:00       93.804       54.267       12.855       29.662       32.370       27.084      879.824     1047.829      733.521        0.728        0.133      108.370        7.532        0.005      334.356        4.277      867.192
12/17/2013  14:59:00       65.470       60.926       -4.029       31.774       20.901       22.439     1009.601      436.832      503.498        0.498        0.097       89.433       16.781        0.035      334.319        4.213      867.175
12/17/2013  15:00:00       85.317       47.001        8.758       13.567       11.396       13.987      184.053      129.863      195.634        0.504        0.025       97.407        7.396        0.006      334.308        4.197      867.183
12/17/2013  15:01:00       76.885       58.363       34.530       26.242       18.467       27.908      688.664      341.047      778.845        0.616        0.090       96.528       12.601        0.017      334.369        4.296      867.242
12/17/2013  15:02:00       74.678       34.119       27.351       33.121       23.302       23.349     1097.011      542.963      545.171        0.484        0.109       82.104       14.512        0.031      334.409        4.364      867.266
12/17/2013  15:03:00       83.656       35.247        4.893       27.748       19.233       15.308      769.951      369.894      234.325        0.482        0.069       90.778       13.841        0.023      334.323        4.221      867.246
12/17/2013  15:04:00       85.732       47.783       11.370       32.790       30.531       24.605     1075.153      932.158      605.414        0.619        0.131       98.149       20.034        0.042      334.367        4.294      867.241
12/17/2013  15:05:00       92.596       47.793       11.127       34.132       23.897       24.869     1164.988      571.072      618.470        0.667        0.118      104.203       16.200        0.024      334.356        4.277      867.259
12/17/2013  15:06:00       71.278       41.813       14.422       25.384       21.340       18.399      644.327      455.404      338.541        0.424        0.072       82.637       12.226        0.022      334.376        4.308      867.270
12/17/2013  15:07:00      104.236       70.921        7.436       20.646       18.984       14.794      426.250      360.395      218.849        0.848        0.050      126.075        9.100        0.005      334.292        4.169      867.256
12/17/2013  15:08:00      117.187       86.200        1.942       31.306       22.026       22.314      980.042      485.138      497.917        1.156        0.098      145.476       13.935        0.009      334.278        4.146      867.220
12/17/2013  15:09:00      124.272       61.361       19.819       38.575       35.195       27.758     1488.011     1238.674      770.488        1.155        0.175      138.596       17.041        0.015      334.322        4.218      867.215
12/17/2013  15:10:00       58.228        7.520        3.959       45.666       21.821       15.744     2085.374      476.155      247.889        0.314        0.140       58.712       15.296        0.068      334.338        4.245      867.266
12/17/2013  15:11:00       32.728       19.651        9.892       31.641       22.038       12.489     1001.136      485.679      155.982        0.160        0.082       38.174       12.225        0.103      334.379        4.313      867.285
12/17/2013  15:12:00       77.636       74.310       -3.610       26.564       21.651       21.040      705.655      468.776      442.674        0.659        0.081      107.468       14.942        0.019      334.322        4.219      867.227
12/17/2013  15:13:00      105.306       61.721       -5.346       46.009       21.252       22.886     2116.794      451.641      523.780        0.901        0.155      122.061       18.712        0.024      334.324        4.224      867.131
12/17/2013  15:14:00       57.298       31.813       15.658       48.218       33.936       29.303     2325.019     1151.639      858.664        0.444        0.217       65.537       24.715        0.142      334.413        4.370      867.146
12/17/2013  15:15:00        6.217       12.149        1.650       15.968        8.354       11.949      254.987       69.790      142.790        0.033        0.023       13.647        7.386        0.293      334.334        4.241      867.229
12/17/2013  15:16:00       29.922       23.677       23.535       19.392       17.576        9.331      376.037      308.920       87.063        0.139        0.039       38.157       10.011        0.069      334.371        4.301      867.257
12/17/2013  15:17:00       82.548       68.854       34.846       24.037       17.107       22.418      577.789      292.660      502.561        0.707        0.069      107.494        9.571        0.008      334.341        4.249      867.212
12/17/2013  15:18:00       65.572       68.598       34.066       35.740       26.927       35.768     1277.351      725.080     1279.357        0.672        0.164       94.897       19.865        0.044      334.386        4.325      867.148
12/17/2013  15:19:00       65.007       44.647       30.858       28.292       25.195       25.655      800.454      634.774      658.168        0.463        0.105       78.862       15.484        0.039      334.383        4.320      867.165
12/17/2013  15:20:00        4.977      -22.212       -0.292       12.508       13.925       15.427      156.448      193.901      237.980        0.055        0.029       22.762        8.627        0.144      334.483        4.486      867.235
12/17/2013  15:21:00       30.579       17.636       25.358       28.932       26.376       14.165      837.060      695.704      200.638        0.181        0.087       35.301       16.779        0.226      334.474        4.471      867.245
12/17/2013  15:22:00       79.005       42.182       40.697       23.074       29.773       16.084      532.394      886.449      258.702        0.568        0.084       89.561       12.168        0.018      334.313        4.207      867.197
12/17/2013  15:23:00       92.836       64.594       12.470       19.090       18.574       21.768      364.436      345.010      473.856        0.706        0.059      113.097       12.533        0.012      334.368        4.296      867.168
12/17/2013  15:24:00       56.842       46.981       15.197       17.393       16.515       24.427      302.507      272.758      596.684        0.342        0.059       73.744        9.909        0.018      334.379        4.314      867.212
12/17/2013  15:25:00       56.860       40.044        3.006       24.788       19.131       14.998      614.438      365.993      224.929        0.303        0.060       69.545        8.256        0.014      334.340        4.249      867.259
12/17/2013  15:26:00       68.343       38.197        0.879       23.609       21.828       16.854      557.380      476.453      284.061        0.372        0.066       78.293        9.961        0.016      334.327        4.229      867.255
12/17/2013  15:27:00       52.330       31.758        5.228       29.018       22.041       22.260      842.070      485.828      495.487        0.280        0.091       61.212       16.476        0.072      334.370        4.300      867.243
12/17/2013  15:28:00       19.165      -15.699       15.380       20.225       25.569       19.686      409.047      653.754      387.548        0.115        0.073       24.774       19.959        0.649      334.377        4.310      867.297
12/17/2013  15:29:00       37.724       11.044        6.021       15.946       21.394       10.038      254.264      457.714      100.761        0.120        0.041       39.307       10.604        0.073      334.319        4.217      867.344
12/17/2013  15:30:00       97.192       65.966       15.222       47.421       24.623       18.346     2248.763      606.281      336.589        0.861        0.160      117.464       13.049        0.012      334.327        4.227      867.277
12/17/2013  15:31:00      202.858       99.882       15.432       34.924       29.745       34.846     1219.694      884.753     1214.277        2.734        0.166      226.114       17.978        0.006      334.296        4.172      867.149
12/17/2013  15:32:00       98.677       45.743      -12.446       56.953       42.439       26.745     3243.612     1801.032      715.314        0.887        0.288      108.763       13.884        0.016      334.255        4.107      867.160
12/17/2013  15:33:00       -9.578       29.348        1.319       17.978       11.611       13.735      323.211      134.822      188.640        0.080        0.032       30.871        6.525        0.045      334.284        4.156      867.281
12/17/2013  15:34:00       11.711       17.412        7.725       25.418       17.498       11.669      646.087      306.163      136.173        0.079        0.054       20.984       11.462        0.298      334.318        4.212      867.328
12/17/2013  15:35:00      123.430       91.670       25.985       37.954       25.219       27.225     1440.487      635.978      741.216        1.357        0.141      153.748       19.936        0.017      334.246        4.093      867.235
12/17/2013  15:36:00      124.129       79.793       34.367       38.296       37.426       31.483     1466.603     1400.728      991.150        1.341        0.193      147.563       23.221        0.025      334.237        4.078      867.148
12/17/2013  15:37:00       29.325       14.441       37.159       36.304       32.663       19.810     1317.956     1066.861      392.419        0.261        0.139       32.688       18.628        0.325      334.300        4.183      867.207
12/17/2013  15:38:00       12.454        3.102       20.091       18.328       23.229       15.828      335.914      539.580      250.518        0.085        0.056       12.835       16.681        1.689      334.352        4.269      867.287
12/17/2013  15:39:00       97.083       62.915       25.127       35.447       18.874       16.208     1256.487      356.213      262.710        0.794        0.094      115.687       11.472        0.010      334.239        4.083      867.255
12/17/2013  15:40:00      192.207      103.526       11.457       39.174       28.756       26.785     1534.572      826.932      717.434        2.544        0.154      218.314       16.207        0.006      334.238        4.075      867.128
12/17/2013  15:41:00      145.671       96.360       32.473       51.886       36.393       48.009     2692.171     1324.486     2304.835        1.894        0.316      174.657       28.052        0.026      334.285        4.157      867.034
12/17/2013  15:42:00       46.462       17.744       11.688       55.988       47.800       26.000     3134.617     2284.875      676.009        0.435        0.305       49.735       18.669        0.141      334.239        4.080      867.087
12/17/2013  15:43:00       -6.997      -15.050        4.475       13.059       20.759       14.058      170.541      430.950      197.622        0.055        0.040       16.597       12.214        0.542      334.408        4.360      867.215
12/17/2013  15:44:00       20.520       18.896       26.891       20.073       15.063       14.890      402.939      226.879      221.724        0.118        0.043       27.895       14.272        0.262      334.336        4.242      867.274
12/17/2013  15:45:00      109.724       63.889       21.234       25.547       13.307       18.072      652.636      177.081      326.608        0.886        0.058      126.969       14.662        0.013      334.234        4.072      867.217
12/17/2013  15:46:00      128.956       70.503        7.035       36.949       30.608       26.528     1365.235      936.871      703.722        1.233        0.150      146.971       20.674        0.020      334.239        4.080      867.110
12/17/2013  15:47:00      124.515       40.177       16.528       66.908       42.136       32.021     4476.644     1775.458     1025.317        1.233        0.364      130.836       12.676        0.009      334.237        4.077      867.103
12/17/2013  15:48:00       36.466       27.908       -0.292       39.254       27.394       16.236     1540.895      750.427      263.595        0.233        0.128       45.920       13.185        0.082      334.256        4.107      867.180
12/17/2013  15:49:00       11.544        5.745        1.924       10.622        6.560        9.092      112.831       43.028       82.659        0.020        0.012       12.894        6.541        0.257      334.287        4.160      867.241
12/17/2013  15:50:00       71.510       42.404       15.892       22.213       16.527       15.304      493.432      273.154      234.217        0.408        0.050       83.137       14.135        0.029      334.249        4.099      867.231
12/17/2013  15:51:00       67.811       19.361       15.496       32.964       25.098       19.380     1086.644      629.913      375.586        0.365        0.105       70.521        7.975        0.013      334.252        4.104      867.189
12/17/2013  15:52:00       34.547       29.908       -4.653       26.636       21.182       16.775      709.502      448.697      281.405        0.177        0.072       45.694       10.579        0.054      334.264        4.120      867.168
12/17/2013  15:53:00       49.483       51.083       -3.946       23.235       27.117       20.261      539.847      735.356      410.528        0.338        0.084       71.120       17.306        0.059      334.236        4.076      867.151
12/17/2013  15:54:00       71.433       45.740        0.573       19.315       17.442       19.809      373.069      304.216      392.403        0.413        0.053       84.823        4.392        0.003      334.225        4.058      867.150
12/17/2013  15:55:00       35.240       38.492       28.728       21.768       19.757       17.488      473.829      390.338      305.841        0.236        0.059       52.187       12.530        0.058      334.269        4.129      867.192
12/17/2013  15:56:00       33.009       27.466        2.272       11.490       10.254        9.330      132.021      105.144       87.053        0.109        0.016       42.942        2.983        0.005      334.258        4.112      867.204
12/17/2013  15:57:00       42.128       67.812       -9.661       20.596       27.091       16.682      424.176      733.931      278.294        0.395        0.072       79.833       16.416        0.042      334.206        4.025      867.163
12/17/2013  15:58:00       66.835       42.357        2.099       25.909       30.131       17.762      671.273      907.895      315.483        0.408        0.095       79.127       17.167        0.047      334.211        4.034      867.134
12/17/2013  15:59:00       36.506      -13.317        2.455       38.298       27.416       21.787     1466.700      751.655      474.668        0.210        0.135       38.859       12.410        0.102      334.295        4.174      867.194
12/17/2013  16:00:00        6.966      -27.557       -2.849       29.448       37.823       23.013      867.181     1430.577      529.619        0.182        0.141       28.424       24.726        0.757      334.439        4.412      867.268
12/17/2013  16:01:00        5.271       20.772       18.919       29.082       13.008       11.938      845.779      169.218      142.524        0.099        0.058       21.430       10.155        0.225      334.356        4.276      867.255
12/17/2013  16:02:00       69.914       41.467       15.855       24.388       12.716       20.967      594.770      161.706      439.612        0.403        0.060       81.287       11.355        0.020      334.273        4.137      867.164
12/17/2013  16:03:00       44.331       25.521       -3.933       17.097       15.051        8.979      292.318      226.544       80.617        0.162        0.030       51.152        6.001        0.014      334.270        4.132      867.119
12/17/2013  16:04:00       -4.313       -2.962       -3.795       12.971       19.506        8.483      168.260      380.469       71.963        0.033        0.031        5.232        7.548        2.081      334.294        4.174      867.135
12/17/2013  16:05:00        8.685       22.898        4.068       17.415        9.297       11.111      303.278       86.426      123.458        0.056        0.026       24.490       10.582        0.187      334.265        4.125      867.158
12/17/2013  16:06:00       44.803       45.458       33.065        6.457       10.091        5.524       41.690      101.827       30.520        0.267        0.009       63.826        2.964        0.002      334.259        4.113      867.169
12/17/2013  16:07:00       50.013       34.951        9.715        8.254        9.172       10.927       68.135       84.132      119.402        0.204        0.014       61.016        2.432        0.002      334.258        4.111      867.166
12/17/2013  16:08:00       62.936       41.897       20.452       24.578       17.023       18.209      604.085      289.779      331.574        0.368        0.061       75.607       15.273        0.041      334.289        4.164      867.149
12/17/2013  16:09:00       80.067       40.164       19.552       30.995       31.519       22.840      960.691      993.420      521.652        0.544        0.124       89.576       13.835        0.024      334.282        4.153      867.138
12/17/2013  16:10:00       55.405       20.688       13.054       24.326       18.182       14.853      591.763      330.594      220.615        0.241        0.057       59.141        6.291        0.011      334.250        4.101      867.127
12/17/2013  16:11:00       45.985        8.906       11.547       15.890       13.471       15.291      252.493      181.469      233.823        0.150        0.033       46.839        9.570        0.042      334.261        4.120      867.150
12/17/2013  16:12:00       32.111       22.629       20.024       18.007       22.407       19.121      324.262      502.073      365.601        0.157        0.060       39.283       18.758        0.228      334.254        4.109      867.155
12/17/2013  16:13:00       12.836        9.493       20.938       16.858       20.203       17.454      284.207      408.178      304.644        0.084        0.050       15.965       14.984        0.881      334.307        4.194      867.136
12/17/2013  16:14:00       16.567       23.402       25.439       19.371       21.286       19.402      375.249      453.101      376.420        0.134        0.060       28.673       17.649        0.379      334.274        4.139      867.103
12/17/2013  16:15:00       52.169       56.377       35.063       25.313       29.365       23.475      640.762      862.303      551.098        0.459        0.103       76.812       16.022        0.044      334.283        4.154      867.070
12/17/2013  16:16:00       94.116       43.315       37.049       36.899       46.563       34.724     1361.547     2168.116     1205.732        0.842        0.237      103.605       30.015        0.084      334.258        4.113      867.033
12/17/2013  16:17:00       50.598       37.133       27.734       28.841       27.508       26.490      831.781      756.706      701.741        0.350        0.115       62.761       23.199        0.137      334.254        4.106      867.026
12/17/2013  16:18:00       43.478       23.291        8.065       17.431       15.667       15.096      303.826      245.454      227.883        0.164        0.039       49.323        8.576        0.030      334.189        3.997      867.031
12/17/2013  16:19:00       79.735       48.313        9.349       14.097       12.096       17.197      198.726      146.322      295.745        0.471        0.032       93.230        7.160        0.006      334.233        4.071      867.033
12/17/2013  16:20:00       76.004       42.026       21.581       32.442       23.761       20.638     1052.492      564.601      425.942        0.503        0.102       86.849       19.732        0.052      334.247        4.093      867.028
12/17/2013  16:21:00       37.418       27.825       30.540       19.458       13.892       16.789      378.603      192.993      281.870        0.198        0.043       46.630        7.375        0.025      334.213        4.038      867.053
12/17/2013  16:22:00       47.708       26.192       25.150       19.155       20.167       17.450      366.905      406.705      304.515        0.234        0.054       54.425       15.749        0.084      334.235        4.075      867.079
12/17/2013  16:23:00       58.960       24.388       21.555       20.848       22.842       16.527      434.629      521.764      273.153        0.288        0.061       63.805       13.434        0.044      334.250        4.100      867.081
12/17/2013  16:24:00       72.089       42.272        8.064       16.824       11.922       10.108      283.038      142.130      102.162        0.379        0.026       83.569        7.486        0.008      334.235        4.075      867.044
12/17/2013  16:25:00       50.718       37.659       16.248       12.705       12.717       12.510      161.420      161.711      156.512        0.237        0.024       63.171        9.095        0.021      334.259        4.115      867.018
12/17/2013  16:26:00       44.507       14.553        5.529       10.457        8.780        9.767      109.359       77.094       95.402        0.125        0.014       46.826        4.741        0.010      334.262        4.120      867.001
12/17/2013  16:27:00       31.877       22.862       17.363       11.908       17.380       16.815      141.792      302.052      282.739        0.128        0.036       39.228       13.542        0.119      334.247        4.095      866.998
12/17/2013  16:28:00       23.242       37.386       46.773       17.860       19.369        8.193      318.996      375.166       67.118        0.244        0.038       44.022        9.447        0.046      334.272        4.136      867.014
12/17/2013  16:29:00       20.969       35.423       31.525       16.810       15.912        7.555      282.571      253.195       57.081        0.164        0.030       41.164        4.038        0.010      334.253        4.104      867.016
12/17/2013  16:30:00       53.549       38.010        9.023       14.233        8.198        9.335      202.571       67.200       87.148        0.238        0.018       65.668        7.123        0.012      334.209        4.031      867.003
12/17/2013  16:31:00       25.778       30.496       -4.482       10.453       10.798        8.703      109.257      116.587       75.741        0.096        0.015       39.931        4.501        0.013      334.202        4.018      866.987
12/17/2013  16:32:00        5.535       -0.268        0.034        8.139        5.459        3.769       66.245       29.803       14.209        0.007        0.006        5.541        3.040        0.301      334.180        3.984      867.034
12/17/2013  16:33:00       -0.586        4.567        2.154        4.332        5.079        3.698       18.770       25.798       13.678        0.004        0.003        4.604        3.235        0.494      334.210        4.031      867.056
12/17/2013  16:34:00       23.854       31.058       21.331       11.312       10.309        8.394      127.969      106.267       70.452        0.115        0.015       39.161        7.430        0.036      334.230        4.068      867.047
12/17/2013  16:35:00       29.302       47.275       -1.305       11.419       11.068       12.382      130.396      122.492      153.302        0.175        0.020       55.619        9.092        0.027      334.220        4.050      867.002
12/17/2013  16:36:00       21.519       28.561       -6.455       10.784       17.151        9.474      116.289      294.167       89.763        0.091        0.025       35.761        7.727        0.047      334.217        4.045      866.956
12/17/2013  16:37:00       32.118       37.940        0.979       18.797       21.928       16.516      353.310      480.826      272.789        0.179        0.055       49.709       16.785        0.114      334.171        3.968      866.921
12/17/2013  16:38:00       42.502       53.869        2.420       25.406       16.623       18.755      645.443      276.318      351.766        0.299        0.064       68.617       13.285        0.037      334.140        3.916      866.869
12/17/2013  16:39:00       30.316       18.253        2.180       18.077       15.741       13.154      326.766      247.784      173.039        0.100        0.037       35.387        9.539        0.073      334.128        3.896      866.847
12/17/2013  16:40:00        8.582        2.011       -4.607       19.894       13.111       14.175      395.791      171.909      200.941        0.043        0.038        8.814        9.703        1.212      334.117        3.879      866.870
12/17/2013  16:41:00       -5.043        4.804       -8.417        8.824        9.019        7.544       77.863       81.348       56.908        0.017        0.011        6.965        5.760        0.684      334.100        3.852      866.907
12/17/2013  16:42:00       21.161       18.689        4.008        9.709        5.193        7.892       94.261       26.969       62.287        0.050        0.009       28.233        5.795        0.042      334.160        3.948      866.898
12/17/2013  16:43:00       60.298       40.642        9.678       16.073       11.446       10.427      258.346      131.018      108.725        0.294        0.025       72.716        5.800        0.006      334.175        3.971      866.874
12/17/2013  16:44:00       93.213       52.769        7.922       14.028       12.420       13.023      196.792      154.269      169.592        0.603        0.026      107.113       10.002        0.009      334.164        3.958      866.828
12/17/2013  16:45:00       73.298       44.868        1.757       19.902       17.516       11.332      396.079      306.817      128.425        0.411        0.042       85.940        5.854        0.005      334.145        3.925      866.805
12/17/2013  16:46:00       16.762       14.801        0.433       18.633       15.586       11.845      347.195      242.911      140.294        0.062        0.037       22.361       10.217        0.209      334.117        3.880      866.835
12/17/2013  16:47:00        3.743       38.494       -9.549        4.091        8.079        4.359       16.737       65.263       19.005        0.084        0.005       38.676        5.213        0.018      334.178        3.981      866.876
12/17/2013  16:48:00        8.770       20.184       -0.679        7.706       12.066        5.138       59.380      145.589       26.395        0.036        0.012       22.007        6.922        0.099      334.160        3.950      866.886
12/17/2013  16:49:00       14.923        5.612        0.958       11.809        5.319        5.547      139.459       28.288       30.768        0.023        0.010       15.943        5.941        0.139      334.202        4.020      866.903
12/17/2013  16:50:00       11.378       20.038        7.919       10.417       10.703        7.715      108.511      114.545       59.518        0.044        0.014       23.043        6.634        0.083      334.189        3.996      866.900
12/17/2013  16:51:00       27.490       35.036        1.608        8.132       11.774        5.945       66.132      138.634       35.337        0.111        0.012       44.534        6.070        0.019      334.194        4.002      866.877
12/17/2013  16:52:00       22.008       62.312       -9.379        9.031        8.029        7.803       81.563       64.458       60.887        0.233        0.010       66.084        3.983        0.004      334.167        3.964      866.853
12/17/2013  16:53:00       24.029       34.984       -3.730        9.481       23.273       10.164       89.880      541.639      103.299        0.127        0.037       42.442       12.395        0.085      334.110        3.866      866.874
12/17/2013  16:54:00       29.890       10.550       -0.226       13.008        9.748        8.726      169.202       95.025       76.150        0.067        0.017       31.697        6.896        0.047      334.137        3.912      866.906
12/17/2013  16:55:00       10.019       11.207       -4.960       16.073        5.206        6.012      258.337       27.104       36.147        0.029        0.016       15.033        6.980        0.216      334.183        3.988      866.921
12/17/2013  16:56:00      -11.966       27.505       -2.021       14.847        9.225        5.344      220.431       85.107       28.554        0.062        0.017       29.995        4.520        0.023      334.143        3.922      866.893
12/17/2013  16:57:00        7.361       75.360       -7.751       13.285       35.674       10.852      176.501     1272.638      117.777        0.368        0.078       75.719       16.521        0.048      334.136        3.911      866.815
12/17/2013  16:58:00        7.606       91.631      -16.526        6.987       16.989        5.599       48.819      288.614       31.354        0.455        0.018       91.946        4.361        0.002      334.144        3.922      866.804
12/17/2013  16:59:00        3.997       70.596      -10.957       14.075       17.428       10.185      198.105      303.746      103.742        0.286        0.030       70.709        2.927        0.002      334.189        3.997      866.834
12/17/2013  17:00:00       -6.337        3.946        3.359        6.904       19.219        8.603       47.670      369.375       74.005        0.028        0.025        7.465       11.686        2.450      334.119        3.881      866.848
12/17/2013  17:01:00       -4.256      -12.741        4.327       10.692        9.892       11.179      114.312       97.845      124.971        0.027        0.017       13.434        8.848        0.434      334.061        3.787      866.875
12/17/2013  17:02:00      -18.619       -4.938        1.125       13.069        7.185        6.929      170.788       51.631       48.009        0.032        0.014       19.263        5.769        0.090      333.893        3.508      866.846
12/17/2013  17:03:00       -2.431       -4.722        6.156        7.120        4.922        5.778       50.700       24.225       33.387        0.009        0.005        5.311        5.136        0.935      333.946        3.594      866.795
12/17/2013  17:04:00      -23.111       -9.988       -1.841       12.414        8.777        5.905      154.112       77.037       34.868        0.045        0.013       25.177        5.649        0.050      333.983        3.657      866.796
12/17/2013  17:05:00      -53.107       -0.292       -7.030       15.589        7.044        6.616      243.004       49.621       43.771        0.160        0.017       53.107        6.474        0.015      333.972        3.639      866.806
12/17/2013  17:06:00      -35.983       -0.838       -1.050       16.018       12.476       11.133      256.561      155.652      123.938        0.092        0.027       35.993        5.666        0.025      333.879        3.485      866.807
12/17/2013  17:07:00      -32.729      -21.461        1.428       22.509       12.749       11.110      506.643      162.529      123.441        0.116        0.040       39.137       10.773        0.076      333.884        3.492      866.826
12/17/2013  17:08:00      -12.836      -31.742       -2.209        6.128       13.366        6.889       37.549      178.660       47.458        0.072        0.013       34.239        3.437        0.010      333.962        3.620      866.829
12/17/2013  17:09:00      -24.786        5.049       -2.582        8.156       14.169        4.734       66.526      200.774       22.409        0.047        0.014       25.295        6.777        0.072      333.972        3.639      866.805
12/17/2013  17:10:00      -14.544       28.400        2.338       13.199        6.616        7.129      174.219       43.778       50.821        0.065        0.013       31.907        4.457        0.020      333.996        3.677      866.762
12/17/2013  17:11:00       25.747       12.336        5.449       14.077        8.505        8.593      198.169       72.327       73.834        0.059        0.017       28.550        5.425        0.036      333.973        3.642      866.739
12/17/2013  17:12:00       21.043       10.784        7.361       13.981       15.603       10.446      195.458      243.468      109.124        0.058        0.027       23.645        9.647        0.166      334.072        3.803      866.745
12/17/2013  17:13:00       -2.761      -23.601        3.847       16.289       16.975       10.538      265.345      288.150      111.050        0.062        0.033       23.762        4.826        0.041      334.161        3.952      866.765
12/17/2013  17:14:00      -41.954      -12.086        0.218       14.605       12.840       10.867      213.293      164.873      118.081        0.120        0.025       43.660       10.294        0.056      333.912        3.538      866.784
12/17/2013  17:15:00      -31.715       -4.544       -4.595       16.345       11.156        6.199      267.165      124.451       38.428        0.074        0.022       32.039        8.199        0.065      333.700        3.188      866.795
12/17/2013  17:16:00      -42.038      -12.209       -9.119        6.858        6.250        6.649       47.030       39.062       44.204        0.106        0.007       43.775        3.255        0.006      333.753        3.276      866.802
12/17/2013  17:17:00      -91.700        0.271      -13.552       28.811       12.311       10.979      830.055      151.567      120.529        0.485        0.055       91.700       12.933        0.020      333.726        3.230      866.789
12/17/2013  17:18:00     -116.213        1.263      -12.998       40.619       23.668       22.064     1649.883      560.196      486.803        0.819        0.135      116.219       22.873        0.039      333.561        2.957      866.789
12/17/2013  17:19:00     -101.310       -2.750       -3.249       33.986       21.730       19.593     1155.061      472.189      383.894        0.615        0.101      101.347       19.085        0.035      333.578        2.984      866.798
12/17/2013  17:20:00      -48.313       18.046        0.562       29.576       27.658       20.161      874.711      764.969      406.449        0.235        0.102       51.574       15.050        0.085      333.679        3.152      866.779
12/17/2013  17:21:00      -88.403       16.030       -9.681       34.258       24.367       17.027     1173.580      593.739      289.928        0.511        0.103       89.844       13.535        0.023      333.820        3.386      866.750
12/17/2013  17:22:00     -114.282       31.799      -14.271       53.368       31.655       20.906     2848.189     1002.047      437.045        0.928        0.214      118.623       21.255        0.032      333.762        3.289      866.739
12/17/2013  17:23:00      -78.121       72.786       -8.133       37.118       33.554       18.948     1377.716     1125.881      359.011        0.716        0.143      106.774       14.429        0.018      333.803        3.357      866.709
12/17/2013  17:24:00      -56.321       -5.219       -9.203       32.339       59.896       17.109     1045.797     3587.588      292.705        0.410        0.246       56.562       11.822        0.044      333.892        3.505      866.730
12/17/2013  17:25:00      -96.132      -77.413       -1.974       44.073       32.619       21.724     1942.467     1064.019      471.953        0.936        0.174      123.426       16.379        0.018      333.622        3.057      866.804
12/17/2013  17:26:00     -106.059      -33.819       -4.157       27.552       32.103       15.526      759.092     1030.630      241.047        0.722        0.102      111.320        6.049        0.003      333.497        2.850      866.810
12/17/2013  17:27:00     -113.899        1.671      -12.864       23.528       21.349       14.266      553.557      455.780      203.510        0.718        0.061      113.911       13.365        0.014      333.460        2.789      866.787
12/17/2013  17:28:00     -119.757       17.729       -9.288       32.398       29.080       20.098     1049.652      845.635      403.916        0.852        0.115      121.062        7.528        0.004      333.439        2.753      866.762
12/17/2013  17:29:00     -114.469       48.540       -8.695       41.459       27.753       21.539     1718.813      770.248      463.932        0.924        0.148      124.336       18.340        0.022      333.575        2.979      866.748
12/17/2013  17:30:00     -104.899       23.087      -14.527       25.718       19.525       17.560      661.422      381.209      308.340        0.655        0.068      107.409       11.461        0.011      333.567        2.965      866.743
12/17/2013  17:31:00      -81.253       -6.202       -6.638       26.860       30.363       16.980      721.433      921.902      288.312        0.431        0.097       81.489       13.312        0.027      333.587        2.999      866.758
12/17/2013  17:32:00      -77.056      -13.201       -9.228       29.362       27.886       16.838      862.112      777.607      283.513        0.406        0.096       78.178       13.480        0.030      333.579        2.987      866.776
12/17/2013  17:33:00      -87.225      -37.658       -7.538       25.748       20.586       14.092      662.937      423.801      198.580        0.518        0.064       95.007       11.330        0.014      333.493        2.842      866.778
12/17/2013  17:34:00      -85.344       -7.264       -8.543       30.570       21.289       16.800      934.516      453.223      282.223        0.454        0.083       85.652       16.587        0.038      333.416        2.716      866.772
12/17/2013  17:35:00      -75.142       -1.616       -3.767       37.160       22.078       20.540     1380.899      487.432      421.907        0.398        0.115       75.159       19.311        0.066      333.363        2.628      866.744
12/17/2013  17:36:00      -87.584       53.867      -19.579       32.408       34.673       19.100     1050.301     1202.206      364.798        0.679        0.131      102.823       19.587        0.036      333.524        2.893      866.672
12/17/2013  17:37:00      -60.101       13.305       -8.003       17.161       23.699       13.870      294.490      561.658      192.384        0.245        0.052       61.556       10.742        0.030      333.622        3.058      866.678
12/17/2013  17:38:00      -40.169      -24.590       -5.545       15.366       14.437        8.062      236.109      208.432       64.998        0.138        0.025       47.098        6.842        0.021      333.680        3.154      866.725
12/17/2013  17:39:00      -41.512       -9.116       -0.811       31.477       11.735       14.840      990.784      137.715      220.214        0.158        0.067       42.501       15.250        0.129      333.683        3.159      866.738
12/17/2013  17:40:00      -59.966      -19.255      -10.833       13.869       19.489       10.285      192.351      379.824      105.782        0.238        0.034       62.982        5.632        0.008      333.535        2.914      866.718
12/17/2013  17:41:00      -61.697       -5.806       -7.123       11.035       12.556       12.185      121.772      157.660      148.466        0.216        0.021       61.969        8.081        0.017      333.418        2.719      866.693
12/17/2013  17:42:00      -81.892       -2.287       -6.627       15.368       11.212       12.198      236.179      125.713      148.803        0.363        0.026       81.924        9.504        0.013      333.433        2.744      866.704
12/17/2013  17:43:00      -75.399        0.999      -11.991       24.017       18.496        9.519      576.809      342.108       90.620        0.342        0.050       75.405        9.057        0.014      333.434        2.745      866.715
12/17/2013  17:44:00      -45.186       -6.532       -5.206       23.466       18.385       11.920      550.672      337.999      142.085        0.157        0.052       45.656       13.961        0.094      333.447        2.766      866.731
12/17/2013  17:45:00      -68.912      -15.977       -5.408       20.197       18.604       13.995      407.931      346.092      195.858        0.299        0.047       70.740        9.834        0.019      333.380        2.657      866.774
12/17/2013  17:46:00      -48.558      -24.938       -1.127       27.520       22.498       15.745      757.350      506.172      247.913        0.225        0.076       54.587       14.909        0.075      333.386        2.667      866.797
12/17/2013  17:47:00      -36.347      -15.238        5.495       28.614       25.847       13.887      818.781      668.079      192.860        0.163        0.084       39.412       15.603        0.157      333.430        2.740      866.795
12/17/2013  17:48:00       -0.848      -19.289        0.428       11.573       14.250       11.019      133.941      203.068      121.407        0.042        0.023       19.308        5.592        0.084      333.552        2.942      866.789
12/17/2013  17:49:00      -15.345        2.305        3.375       16.493       10.741        8.396      272.008      115.364       70.491        0.035        0.023       15.517        9.069        0.342      333.481        2.822      866.765
12/17/2013  17:50:00      -55.770       12.928      -10.597       19.651        7.580        7.567      386.170       57.461       57.253        0.195        0.025       57.248        2.734        0.002      333.454        2.778      866.714
12/17/2013  17:51:00      -78.144       13.018      -12.617       15.471       12.753        9.732      239.341      162.629       94.719        0.347        0.025       79.221        6.843        0.007      333.539        2.919      866.688
12/17/2013  17:52:00      -68.220      -21.443       -9.503       17.520       14.616       12.583      306.938      213.617      158.336        0.294        0.034       71.511       10.722        0.022      333.470        2.805      866.733
12/17/2013  17:53:00      -65.000       -7.491       -4.180       22.342       14.454       13.080      499.150      208.907      171.081        0.259        0.044       65.430       12.153        0.035      333.375        2.649      866.786
12/17/2013  17:54:00      -51.288       -9.651       -6.487       18.142       14.938        9.338      329.136      223.155       87.195        0.170        0.032       52.188        8.418        0.026      333.370        2.640      866.807
12/17/2013  17:55:00      -65.675       -7.494       -5.443       16.651       12.304       15.337      277.246      151.389      235.225        0.253        0.033       66.101       10.297        0.024      333.368        2.637      866.804
12/17/2013  17:56:00      -65.560       -6.750       -7.623       15.249       14.088        9.593      232.533      198.485       92.022        0.246        0.026       65.907        6.332        0.009      333.373        2.647      866.801
12/17/2013  17:57:00      -89.072      -14.850       -9.442       12.636       19.151       10.775      159.680      366.776      116.101        0.444        0.032       90.301        6.517        0.005      333.391        2.675      866.802
12/17/2013  17:58:00      -87.126      -20.284       -5.586       26.222       15.690       11.274      687.617      246.189      127.097        0.455        0.053       89.457        8.866        0.010      333.350        2.607      866.816
12/17/2013  17:59:00      -46.614       -6.133       -5.372       18.075       12.043       11.985      326.721      145.027      143.629        0.143        0.031       47.016       10.187        0.047      333.358        2.620      866.812
12/17/2013  18:00:00      -54.820       -0.038       -4.195       20.198        7.078        8.914      407.946       50.092       79.459        0.178        0.027       54.820       10.365        0.036      333.416        2.713      866.797
12/17/2013  18:01:00      -71.085      -22.014      -10.175       13.058        9.786        6.536      170.514       95.768       42.714        0.298        0.015       74.416        1.263        0.000      333.443        2.759      866.817
12/17/2013  18:02:00      -76.525      -12.889       -8.879       24.736       32.524       17.807      611.867     1057.803      317.074        0.404        0.099       77.603       11.951        0.024      333.377        2.653      866.828
12/17/2013  18:03:00      -36.324       18.415        1.371       30.046       18.501       13.884      902.769      342.293      192.754        0.155        0.072       40.725       14.156        0.121      333.321        2.559      866.810
12/17/2013  18:04:00      -10.383       -6.659        1.461       10.678       14.096        7.077      114.024      198.691       50.090        0.026        0.018       12.335        7.850        0.405      333.436        2.749      866.805
12/17/2013  18:05:00      -30.810      -12.392       -2.754       20.825       10.365        7.139      433.670      107.425       50.970        0.085        0.030       33.209        4.792        0.021      333.504        2.862      866.788
12/17/2013  18:06:00      -68.634      -10.216      -10.382       18.632       16.843        9.642      347.135      283.701       92.970        0.282        0.036       69.390        9.174        0.017      333.369        2.639      866.770
12/17/2013  18:07:00     -120.888       -2.066       -9.999       23.635       19.727       16.574      558.595      389.142      274.710        0.797        0.061      120.906       12.696        0.011      333.195        2.349      866.743
12/17/2013  18:08:00      -63.990      -13.191       -1.676       32.930       20.790       15.478     1084.390      432.230      239.566        0.301        0.088       65.336       14.099        0.047      333.155        2.283      866.723
12/17/2013  18:09:00      -75.105       -4.580      -13.486       28.502       22.984       15.420      812.348      528.259      237.765        0.371        0.079       75.245       11.303        0.023      333.186        2.334      866.737
12/17/2013  18:10:00      -50.036      -35.164       -2.282       18.337       24.762       15.000      336.257      613.170      225.015        0.246        0.059       61.157        9.845        0.026      333.244        2.430      866.773
12/17/2013  18:11:00      -61.252      -27.263       -4.852       13.596       27.092       10.564      184.841      733.985      111.588        0.277        0.052       67.045        9.005        0.018      333.253        2.446      866.778
12/17/2013  18:12:00      -80.191       17.961       -9.860        8.119        8.391        7.844       65.926       70.413       61.536        0.352        0.010       82.178        2.516        0.001      333.251        2.440      866.744
12/17/2013  18:13:00      -59.445        3.244       -8.163       11.481       13.474        7.768      131.820      181.543       60.345        0.199        0.019       59.533        3.496        0.003      333.256        2.448      866.723
12/17/2013  18:14:00      -71.606      -16.212      -11.499       13.763       12.098       10.218      189.410      146.358      104.406        0.298        0.022       73.419        8.672        0.014      333.160        2.292      866.723
12/17/2013  18:15:00      -84.151       -8.843       -8.586       25.247       25.578       16.664      637.420      654.249      277.690        0.440        0.078       84.614       14.811        0.031      333.066        2.139      866.725
12/17/2013  18:16:00     -104.415        1.309      -12.019       21.979       12.765       12.595      483.068      162.933      158.633        0.593        0.040      104.423        3.115        0.001      333.052        2.116      866.708
12/17/2013  18:17:00      -80.074       -5.045      -11.713       29.182       22.666       12.067      851.585      513.761      145.606        0.404        0.076       80.233       10.765        0.018      333.040        2.095      866.697
12/17/2013  18:18:00      -30.877      -23.711       -2.836       24.356       14.873        9.831      593.226      221.196       96.647        0.122        0.046       38.931        6.081        0.024      333.138        2.255      866.711
12/17/2013  18:19:00      -67.847      -29.126       -6.258       14.176       15.253        9.220      200.953      232.669       85.007        0.300        0.026       73.835        5.195        0.005      333.113        2.217      866.729
12/17/2013  18:20:00      -50.337      -14.737      -11.031        9.904        9.526        8.958       98.083       90.748       80.239        0.157        0.013       52.450        4.338        0.007      333.111        2.213      866.698
12/17/2013  18:21:00      -55.214        8.388      -13.295       15.584       12.870        8.503      242.868      165.643       72.300        0.189        0.024       55.848        5.584        0.010      333.178        2.324      866.650
12/17/2013  18:22:00      -56.268      -19.618      -12.530       14.470       13.331        5.671      209.387      177.715       32.155        0.206        0.021       59.590        2.291        0.001      333.176        2.320      866.647
12/17/2013  18:23:00      -97.668      -32.678      -15.483       15.687       22.113       10.442      246.073      488.964      109.028        0.585        0.042      102.989        8.440        0.007      333.015        2.054      866.659
12/17/2013  18:24:00      -66.089       -0.776       -8.909       27.045       23.839       13.355      731.459      568.289      178.367        0.296        0.074       66.093       13.342        0.041      332.939        1.927      866.666
12/17/2013  18:25:00      -65.149       -7.271       -4.904       17.694       15.521       12.819      313.080      240.889      164.328        0.252        0.036       65.554        9.654        0.022      332.988        2.008      866.655
12/17/2013  18:26:00      -83.591      -11.149       -7.928       20.278       16.827       14.538      411.204      283.137      211.354        0.404        0.045       84.331        9.550        0.013      333.006        2.038      866.651
12/17/2013  18:27:00      -85.324      -27.868       -9.767       14.651       16.962       11.552      214.641      287.694      133.455        0.439        0.032       89.760        6.557        0.005      333.033        2.083      866.647
12/17/2013  18:28:00     -114.412      -11.822      -13.558       16.366       19.378       15.794      267.846      375.503      249.441        0.715        0.045      115.021       10.006        0.008      333.022        2.063      866.643
12/17/2013  18:29:00     -116.708       -0.629      -13.862       25.296       17.393       17.277      639.879      302.531      298.504        0.753        0.062      116.710       10.305        0.008      332.938        1.928      866.648
12/17/2013  18:30:00      -74.717       16.130       -7.906       22.063       17.458       14.941      486.758      304.766      223.223        0.346        0.051       76.438        8.638        0.013      332.963        1.968      866.631
12/17/2013  18:31:00      -50.971       13.962       -4.206        9.089       14.291        9.143       82.614      204.227       83.594        0.159        0.019       52.849        4.816        0.008      333.176        2.319      866.580
12/17/2013  18:32:00      -71.168      -26.681      -14.062       12.670       15.827        9.962      160.539      250.480       99.247        0.324        0.026       76.004        7.243        0.009      333.123        2.232      866.573
12/17/2013  18:33:00      -98.774      -13.516      -12.668       27.459       22.970       15.573      753.974      527.627      242.534        0.581        0.076       99.694        8.076        0.007      332.941        1.932      866.598
12/17/2013  18:34:00      -58.364        4.557      -10.139       13.143       17.369       12.617      172.749      301.674      159.181        0.208        0.032       58.542        8.598        0.022      332.904        1.871      866.572
12/17/2013  18:35:00      -58.622      -15.671       -3.553       16.580       14.401        8.239      274.906      207.387       67.876        0.212        0.028       60.680        5.021        0.007      333.021        2.063      866.567
12/17/2013  18:36:00      -58.597      -40.462       -8.973       23.391       21.210       13.178      547.121      449.866      173.661        0.316        0.059       71.209        7.806        0.012      333.008        2.042      866.635
12/17/2013  18:37:00      -71.957      -35.184      -12.549       21.355       14.873       11.559      456.043      221.204      133.607        0.369        0.041       80.098        8.185        0.010      332.950        1.946      866.650
12/17/2013  18:38:00      -37.335       -6.965       -9.630       13.125       16.515       10.269      172.272      272.740      105.448        0.104        0.028       37.979        7.576        0.040      332.976        1.988      866.598
12/17/2013  18:39:00      -65.076       -4.769       -8.002       29.610       12.388        8.394      876.767      153.467       70.456        0.271        0.055       65.250        6.493        0.010      332.981        1.998      866.561
12/17/2013  18:40:00     -100.127      -10.252      -18.268       19.451       13.320       14.100      378.349      177.428      198.799        0.561        0.038      100.650        9.910        0.010      332.988        2.010      866.587
12/17/2013  18:41:00      -56.988       -4.087       -7.185       24.500       19.611       16.868      600.270      384.585      284.542        0.229        0.063       57.135       16.985        0.088      332.957        1.957      866.604
12/17/2013  18:42:00      -22.499       14.269       -1.866       21.193       11.039        7.375      449.151      121.868       54.391        0.067        0.031       26.643        9.344        0.123      333.257        2.454      866.575
12/17/2013  18:43:00      -41.021        5.764        3.864       19.879       11.965       10.235      395.175      143.162      104.753        0.119        0.032       41.424       11.509        0.077      333.388        2.670      866.577
12/17/2013  18:44:00      -80.610       -7.269      -12.536       16.257       11.290        9.739      264.278      127.456       94.853        0.360        0.024       80.937        7.517        0.009      333.023        2.068      866.598
12/17/2013  18:45:00      -97.110      -21.134       -8.162       24.830       31.412       12.479      616.521      986.741      155.719        0.585        0.088       99.383        9.516        0.009      332.901        1.865      866.601
12/17/2013  18:46:00      -79.659      -10.809      -10.995       24.953       17.355       14.578      622.664      301.188      212.516        0.386        0.057       80.389       12.729        0.025      332.868        1.814      866.597
12/17/2013  18:47:00      -98.006      -17.598      -12.452       18.890       19.676       15.783      356.841      387.160      249.094        0.553        0.050       99.573       11.597        0.014      332.801        1.701      866.591
12/17/2013  18:48:00      -76.138      -33.911       -7.161       22.214       15.735       16.106      493.450      247.598      259.416        0.400        0.050       83.348       13.269        0.025      332.907        1.876      866.607
12/17/2013  18:49:00      -92.606      -26.231       -8.310       18.537       14.265       11.255      343.630      203.495      126.680        0.500        0.034       96.249        7.795        0.007      332.901        1.868      866.630
12/17/2013  18:50:00      -72.158      -16.772      -10.218       34.512       17.944       15.568     1191.075      321.987      242.376        0.367        0.088       74.082       12.140        0.027      332.883        1.838      866.636
12/17/2013  18:51:00     -114.110        2.473      -12.012       19.610       12.663       14.110      384.543      160.349      199.098        0.696        0.037      114.137       10.603        0.009      332.924        1.902      866.606
12/17/2013  18:52:00      -82.258      -18.526      -10.726       24.762       14.314       13.327      613.138      204.887      177.621        0.411        0.050       84.319       12.569        0.022      332.891        1.850      866.599
12/17/2013  18:53:00      -70.637       -6.965       -9.710       15.062       12.806       10.148      226.852      163.994      102.977        0.281        0.025       70.980        3.595        0.003      332.885        1.840      866.591
12/17/2013  18:54:00     -103.099       -5.368      -16.352       20.381       13.561       11.012      415.381      183.906      121.274        0.582        0.036      103.239        8.595        0.007      332.894        1.855      866.585
12/17/2013  18:55:00     -100.308      -16.389       -9.824       23.994       16.252       11.124      575.699      264.125      123.748        0.570        0.048      101.638        7.599        0.006      332.858        1.796      866.585
12/17/2013  18:56:00      -74.758      -16.388       -5.847       18.277       20.450       13.092      334.045      418.206      171.407        0.341        0.046       76.533        8.497        0.012      332.859        1.798      866.568
12/17/2013  18:57:00     -116.808      -25.237      -10.691       15.975       26.345       11.919      255.197      694.075      142.065        0.774        0.055      119.503        8.207        0.005      332.916        1.890      866.569
12/17/2013  18:58:00     -123.031      -25.221      -10.759       28.398       35.635       21.306      806.448     1269.825      453.939        0.921        0.127      125.589       16.620        0.018      332.854        1.789      866.577
12/17/2013  18:59:00      -76.308       17.528       -4.338       34.741       27.563       21.390     1206.912      759.695      457.520        0.429        0.121       78.296       14.906        0.036      332.798        1.697      866.562
12/17/2013  19:00:00      -37.198       -1.521      -16.047       22.170       30.214       11.384      491.510      912.896      129.602        0.159        0.077       37.229       16.018        0.185      332.946        1.941      866.537
12/17/2013  19:01:00      -25.213      -31.408        1.018       16.984       10.410        9.903      288.443      108.369       98.064        0.106        0.025       40.275        8.777        0.047      333.027        2.073      866.544
12/17/2013  19:02:00      -81.258      -21.387       -8.527       22.163       18.353       10.561      491.197      336.816      111.545        0.404        0.047       84.026        4.403        0.003      332.909        1.879      866.555
12/17/2013  19:03:00      -40.389      -21.959       -5.885       42.729       23.203       18.361     1825.798      538.388      337.113        0.242        0.135       45.972       20.479        0.198      332.851        1.784      866.570
12/17/2013  19:04:00      -54.592      -12.111       -3.386       14.835       13.943       11.046      220.070      194.405      122.018        0.184        0.027       55.920        6.046        0.012      332.826        1.741      866.589
12/17/2013  19:05:00      -75.253      -37.960      -14.295       10.655       16.945       11.590      113.521      287.121      134.318        0.392        0.027       84.285        5.271        0.004      332.854        1.788      866.593
12/17/2013  19:06:00      -45.783      -22.639       -8.294       24.657       18.329       10.834      607.986      335.952      117.374        0.187        0.053       51.074       11.744        0.053      332.830        1.748      866.576
12/17/2013  19:07:00      -22.194      -10.631       -3.755       17.619        8.056       11.142      310.424       64.903      124.153        0.056        0.025       24.609        6.713        0.074      332.850        1.783      866.544
12/17/2013  19:08:00      -85.713       -9.629      -11.825       32.163       17.414       12.895     1034.486      303.263      166.283        0.454        0.075       86.252       12.810        0.022      332.798        1.697      866.542
12/17/2013  19:09:00      -94.503      -27.820       -7.606       28.031       23.675       17.963      785.725      560.485      322.668        0.572        0.083       98.513       19.151        0.038      332.685        1.507      866.558
12/17/2013  19:10:00        1.929      -18.226        7.634       16.288       22.980       12.615      265.301      528.059      159.128        0.067        0.048       18.328        9.423        0.264      332.720        1.566      866.552
12/17/2013  19:11:00      -76.456      -13.075       -7.256       36.653       20.461       13.995     1343.426      418.659      195.853        0.401        0.098       77.566       13.910        0.032      332.665        1.477      866.551
12/17/2013  19:12:00     -101.695       -2.833      -11.203       34.490       19.891       20.151     1189.591      395.654      406.068        0.623        0.100      101.735       22.259        0.048      332.604        1.375      866.551
12/17/2013  19:13:00      -34.280        5.693        2.094       41.030       24.581       18.235     1683.428      604.206      332.504        0.192        0.131       34.750       18.540        0.285      332.608        1.381      866.526
12/17/2013  19:14:00        2.115      -13.966        7.453       12.306        8.699        8.039      151.429       75.671       64.620        0.027        0.015       14.125        7.242        0.263      332.666        1.477      866.498
12/17/2013  19:15:00      -44.486      -16.318       -8.508       16.700        6.633        7.528      278.879       43.995       56.673        0.135        0.019       47.384        2.874        0.004      332.821        1.735      866.515
12/17/2013  19:16:00      -42.450       -6.757       -3.009       11.633       11.279        7.029      135.317      127.212       49.413        0.108        0.016       42.985        4.517        0.011      332.698        1.529      866.509
12/17/2013  19:17:00       15.328       14.409        1.434       21.417       12.521        7.768      458.697      156.783       60.344        0.056        0.034       21.037        5.024        0.057      332.875        1.822      866.476
12/17/2013  19:18:00      -18.940       -9.149       -6.966       27.465       26.045       10.175      754.301      678.359      103.532        0.101        0.077       21.034       13.983        0.442      332.961        1.965      866.509
12/17/2013  19:19:00      -74.099      -23.323      -11.715       25.795       23.445       10.819      665.365      549.660      117.040        0.375        0.067       77.682        9.730        0.016      332.662        1.471      866.533
12/17/2013  19:20:00       -6.218       36.628       -2.259       19.196       15.098       15.596      368.499      227.938      243.248        0.111        0.042       37.152       10.022        0.073      332.732        1.586      866.484
12/17/2013  19:21:00       16.850       16.514        1.633       30.420       16.607        9.529      925.382      275.778       90.796        0.093        0.065       23.593        7.311        0.096      332.919        1.894      866.428
12/17/2013  19:22:00      -13.269       -4.321        3.721       23.021       12.306        7.549      529.973      151.428       56.990        0.047        0.037       13.955        8.775        0.395      333.026        2.071      866.472
12/17/2013  19:23:00      -33.975        2.945        3.537       19.411       10.456        7.811      376.783      109.320       61.015        0.086        0.027       34.103        7.093        0.043      332.591        1.352      866.487
12/17/2013  19:24:00       20.010       12.562        5.997       10.930        8.584        8.064      119.458       73.681       65.030        0.043        0.013       23.627        5.634        0.057      332.922        1.898      866.432
12/17/2013  19:25:00       -9.801       24.189       -7.961       19.192       11.130        4.804      368.345      123.878       23.082        0.063        0.026       26.099        7.408        0.081      333.129        2.240      866.417
12/17/2013  19:26:00      -33.542      -11.750       -2.725       10.344       10.599        4.722      106.989      112.342       22.301        0.076        0.012       35.541        4.251        0.014      332.821        1.734      866.432
12/17/2013  19:27:00       20.334        4.545        5.444       20.418       11.952       11.476      416.875      142.842      131.704        0.058        0.035       20.836        8.725        0.175      332.971        1.981      866.414
12/17/2013  19:28:00       12.176       21.747        1.569       18.434       16.244        7.636      339.813      263.882       58.310        0.064        0.033       24.924        8.192        0.108      333.026        2.069      866.393
12/17/2013  19:29:00      -21.126       17.652       -7.819       18.197       26.783        5.993      331.134      717.321       35.914        0.095        0.054       27.530        6.079        0.049      333.018        2.058      866.409
12/17/2013  19:30:00      -14.923      -13.233       -1.331       12.318        9.365        7.064      151.725       87.698       49.900        0.034        0.014       19.945        3.687        0.034      332.683        1.505      866.434
12/17/2013  19:31:00       28.763       10.482        6.114        7.778       11.277       10.528       60.502      127.169      110.831        0.064        0.015       30.613        4.324        0.020      333.008        2.042      866.421
12/17/2013  19:32:00        6.754       35.176       -0.937        8.814       25.255        9.574       77.685      637.821       91.652        0.105        0.040       35.818       13.135        0.134      333.047        2.107      866.400
12/17/2013  19:33:00        7.029       32.095       -5.530        8.257       13.698        5.608       68.174      187.623       31.449        0.070        0.014       32.856        3.517        0.011      333.130        2.243      866.396
12/17/2013  19:34:00       10.000       -2.251       -1.905       12.038        8.898        8.228      144.918       79.170       67.693        0.020        0.015       10.251        7.743        0.571      333.128        2.241      866.405
12/17/2013  19:35:00      -42.586       -1.954       -1.554       24.632        6.405        7.575      606.731       41.018       57.382        0.126        0.035       42.630        9.461        0.049      332.838        1.762      866.395
12/17/2013  19:36:00      -81.912        5.985       -8.209       16.186        8.396        6.101      261.976       70.489       37.224        0.359        0.018       82.131        3.891        0.002      332.470        1.153      866.390
12/17/2013  19:37:00      -20.894       14.731       -8.812       46.897       12.829       12.884     2199.356      164.580      165.998        0.163        0.126       25.564       15.255        0.356      332.620        1.401      866.359
12/17/2013  19:38:00       28.248       15.785        2.347       18.916       11.454       10.649      357.805      131.193      113.398        0.083        0.030       32.359        7.720        0.057      333.089        2.177      866.331
12/17/2013  19:39:00      -16.399       13.838       -1.420       11.704       18.553        8.296      136.980      344.214       68.817        0.051        0.028       21.458        5.854        0.074      333.048        2.107      866.343
12/17/2013  19:40:00      -49.546      -22.930       -7.837       12.680       14.178        8.267      160.791      201.011       68.350        0.174        0.022       54.595        7.417        0.018      332.486        1.179      866.367
12/17/2013  19:41:00      -54.863       -8.762      -13.058       12.580        9.003        7.431      158.258       81.061       55.225        0.178        0.015       55.558        3.702        0.004      332.439        1.101      866.362
12/17/2013  19:42:00      -65.011       -4.918      -11.470       12.127        7.735       10.284      147.072       59.832      105.759        0.235        0.016       65.197        5.621        0.007      332.437        1.099      866.355
12/17/2013  19:43:00      -65.251       -1.380      -11.808        8.737        7.016        6.599       76.338       49.228       43.551        0.228        0.008       65.265        2.424        0.001      332.395        1.029      866.342
12/17/2013  19:44:00      -62.198       -8.172       -6.996        8.888        6.884        4.893       78.989       47.383       23.941        0.207        0.008       62.732        2.222        0.001      332.485        1.177      866.328
12/17/2013  19:45:00      -54.227       -3.008      -10.984        8.614        5.767        5.675       74.194       33.261       32.202        0.160        0.007       54.311        3.573        0.004      332.486        1.180      866.310
12/17/2013  19:46:00      -40.058       -9.662       -5.879        8.392        9.820        6.797       70.425       96.436       46.201        0.097        0.011       41.206        6.298        0.023      332.490        1.184      866.308
12/17/2013  19:47:00      -33.420      -26.178       -4.081        7.501        9.410        7.781       56.264       88.552       60.548        0.101        0.010       42.452        3.933        0.009      332.672        1.486      866.341
12/17/2013  19:48:00      -71.467      -10.655       -7.469       15.731       14.353       10.447      247.469      205.999      109.147        0.292        0.028       72.257        5.466        0.006      332.507        1.216      866.380
12/17/2013  19:49:00      -99.131        4.657      -13.458       19.927        9.703       10.727      397.094       94.149      115.062        0.532        0.030       99.241        6.011        0.004      332.342        0.941      866.365
12/17/2013  19:50:00      -79.794       -1.636       -9.512       20.745       10.345       10.065      430.342      107.023      101.298        0.355        0.032       79.811       10.984        0.019      332.346        0.948      866.341
12/17/2013  19:51:00      -49.884       -8.843      -11.098       10.228       12.265        6.873      104.622      150.422       47.235        0.150        0.015       50.661        4.185        0.007      332.304        0.878      866.337
12/17/2013  19:52:00      -75.236      -17.223      -10.523       10.717        9.434        7.700      114.862       89.005       59.296        0.317        0.013       77.182        2.709        0.001      332.291        0.857      866.342
12/17/2013  19:53:00      -68.565       -4.774      -13.046       11.193        7.521        6.442      125.287       56.562       41.496        0.256        0.011       68.731        4.261        0.004      332.412        1.058      866.322
12/17/2013  19:54:00      -49.268       -4.991       -5.511        6.340       11.112        8.011       40.192      123.482       64.184        0.136        0.011       49.520        5.524        0.012      332.462        1.139      866.313
12/17/2013  19:55:00      -46.119      -23.714       -3.653       16.092       15.451        9.585      258.944      238.738       91.874        0.165        0.029       51.858        5.344        0.011      332.571        1.319      866.337
12/17/2013  19:56:00      -58.665      -20.037       -9.546       19.233       15.828       11.447      369.909      250.525      131.028        0.234        0.038       61.992        5.548        0.008      332.428        1.083      866.373
12/17/2013  19:57:00      -89.034      -13.929      -10.278       27.814       15.980       13.053      773.596      255.364      170.377        0.471        0.060       90.117       15.007        0.028      332.310        0.889      866.392
12/17/2013  19:58:00      -78.723      -13.092       -5.785       18.709       16.857       12.407      350.010      284.150      153.935        0.360        0.039       79.804        9.272        0.013      332.316        0.898      866.400
12/17/2013  19:59:00      -75.345       -2.857      -11.284       13.590       13.742       10.639      184.686      188.841      113.188        0.315        0.024       75.399        7.166        0.009      332.366        0.982      866.394
12/17/2013  20:00:00      -93.507       -4.033       -9.812       17.122       14.858       13.353      293.178      220.756      178.298        0.477        0.035       93.594        9.655        0.011      332.361        0.972      866.381
12/17/2013  20:01:00      -88.266       -2.798       -8.329       14.557       13.204       15.131      211.910      174.356      228.940        0.424        0.031       88.310        9.182        0.011      332.351        0.957      866.371
12/17/2013  20:02:00      -43.845      -11.729       -6.090       17.550        7.550        7.189      308.018       57.002       51.682        0.126        0.021       45.386        7.380        0.026      332.486        1.180      866.344
12/17/2013  20:03:00      -36.049        1.682        4.725       24.646       20.963       18.774      607.414      439.466      352.473        0.136        0.070       36.088       15.691        0.189      332.778        1.664      866.349
12/17/2013  20:04:00     -115.008      -27.288      -15.196       19.708       22.778       10.574      388.408      518.854      111.805        0.761        0.051      118.201        8.476        0.005      332.373        0.993      866.373
12/17/2013  20:05:00      -88.808       -1.280       -7.274       30.314       29.387       15.632      918.938      863.599      244.345        0.498        0.101       88.817       13.052        0.022      332.286        0.850      866.333
12/17/2013  20:06:00       -2.719       14.501        2.757       14.354        9.926        8.468      206.023       98.518       71.713        0.030        0.019       14.754        7.688        0.272      332.680        1.501      866.246
12/17/2013  20:07:00      -73.033      -36.145      -10.926       31.208       26.896       11.504      973.915      723.387      132.335        0.429        0.091       81.488       13.316        0.027      332.559        1.298      866.296
12/17/2013  20:08:00     -112.631      -57.077      -16.239       28.358       24.460       19.361      804.193      598.270      374.841        0.899        0.089      126.268       12.342        0.010      332.318        0.902      866.376
12/17/2013  20:09:00      -39.534        5.221       -5.147       28.009       20.545       12.662      784.476      422.084      160.333        0.149        0.068       39.877       14.737        0.137      332.239        0.773      866.329
12/17/2013  20:10:00      -10.674        3.763       -1.196       28.882       13.234       11.950      834.160      175.143      142.804        0.064        0.058       11.318       15.063        1.771      332.672        1.486      866.279
12/17/2013  20:11:00      -75.560      -27.805      -10.994       13.844       17.633       10.999      191.643      310.920      120.981        0.361        0.031       80.514        7.493        0.009      332.436        1.098      866.335
12/17/2013  20:12:00      -58.308      -41.390      -10.252       19.735       18.379       13.182      389.460      337.798      173.767        0.306        0.045       71.505        6.881        0.009      332.406        1.048      866.345
12/17/2013  20:13:00      -63.014       -2.252       -5.816       22.210       14.711       12.323      493.296      216.406      151.866        0.244        0.043       63.054       11.178        0.031      332.364        0.978      866.323
12/17/2013  20:14:00     -100.422      -10.892      -11.248       22.642       13.557       11.610      512.664      183.801      134.784        0.558        0.042      101.011        8.409        0.007      332.250        0.792      866.343
12/17/2013  20:15:00      -89.204      -12.376       -4.200       36.598       21.657       17.375     1339.420      469.017      301.889        0.512        0.106       90.059       17.038        0.036      332.212        0.730      866.354
12/17/2013  20:16:00      -62.572        0.791       -5.909       24.109       21.619       18.220      581.234      467.362      331.950        0.267        0.069       62.577       10.276        0.027      332.242        0.778      866.326
12/17/2013  20:17:00      -68.217      -10.325       -9.383       35.008       14.692       10.145     1225.529      215.860      102.916        0.320        0.077       68.994       13.632        0.039      332.239        0.773      866.332
12/17/2013  20:18:00      -90.234      -38.548      -10.719       20.396       14.937       13.002      415.981      223.116      169.055        0.528        0.040       98.122        8.055        0.007      332.250        0.792      866.365
12/17/2013  20:19:00     -142.817        0.885      -19.915       31.845       24.484       20.043     1014.098      599.444      401.729        1.140        0.101      142.820       14.645        0.011      332.184        0.684      866.351
12/17/2013  20:20:00     -112.920       -5.809       -9.668       40.889       24.231       17.602     1671.942      587.127      309.835        0.772        0.128      113.070       19.372        0.029      332.133        0.599      866.336
12/17/2013  20:21:00      -58.512      -11.899      -10.762       40.182       19.057       11.794     1614.608      363.164      139.089        0.290        0.106       59.710       12.312        0.043      332.135        0.600      866.308
12/17/2013  20:22:00      -36.630        6.843        2.028       14.130       11.259        8.602      199.652      126.755       73.998        0.090        0.020       37.264        6.940        0.035      332.371        0.990      866.286
12/17/2013  20:23:00      -97.382      -50.006      -13.059       21.823       23.759        9.269      476.263      564.474       85.907        0.664        0.056      109.471        6.267        0.003      332.237        0.770      866.325
12/17/2013  20:24:00      -80.092      -17.051      -13.816       27.431       34.792       15.672      752.452     1210.471      245.612        0.455        0.110       81.886        9.115        0.012      332.190        0.691      866.323
12/17/2013  20:25:00      -61.594       -5.044       -7.088       30.714       16.891       10.997      943.321      285.290      120.925        0.261        0.067       61.800        7.431        0.014      332.135        0.601      866.269
12/17/2013  20:26:00     -103.926      -47.771      -16.767       23.302       38.513       17.802      542.973     1483.279      316.918        0.785        0.117      114.380       13.958        0.015      332.134        0.599      866.290
12/17/2013  20:27:00      -87.827      -69.138       -7.737       42.860       37.156       20.155     1837.017     1380.559      406.215        0.809        0.181      111.775       25.357        0.051      332.116        0.570      866.319
12/17/2013  20:28:00      -70.811      -11.621       -8.315       15.615       16.321       15.085      243.824      266.381      227.543        0.298        0.037       71.758        8.007        0.012      332.136        0.603      866.285
12/17/2013  20:29:00      -48.523       -8.929      -10.454       14.560       16.161       10.801      212.001      261.177      116.663        0.157        0.029       49.338        8.300        0.028      332.233        0.763      866.260
12/17/2013  20:30:00      -84.836      -33.836      -10.726       20.257       14.328       10.514      410.365      205.281      110.542        0.459        0.036       91.335        8.600        0.009      332.211        0.727      866.278
12/17/2013  20:31:00      -42.552      -18.207        1.699       36.043       18.473       16.458     1299.122      341.267      270.870        0.203        0.096       46.284       17.217        0.138      332.206        0.719      866.291
12/17/2013  20:32:00      -58.001      -21.816      -11.338       14.536       14.045       11.438      211.305      197.272      130.818        0.225        0.027       61.968        7.326        0.014      332.143        0.615      866.260
12/17/2013  20:33:00      -72.420      -31.623       -7.693       18.728       14.997       11.205      350.749      224.904      125.559        0.350        0.035       79.024        5.354        0.005      332.224        0.748      866.233
12/17/2013  20:34:00     -104.871      -40.914       -6.581       18.975       21.619       13.137      360.069      467.397      172.568        0.686        0.050      112.569       10.889        0.009      332.245        0.784      866.239
12/17/2013  20:35:00      -97.599       -2.897      -13.436       30.308       23.097       14.845      918.595      533.459      220.382        0.569        0.084       97.642       14.377        0.022      332.212        0.729      866.205
12/17/2013  20:36:00      -65.539      -18.032       -6.579       21.960       15.951        9.480      482.224      254.437       89.868        0.275        0.041       67.975        2.993        0.002      332.263        0.812      866.175
12/17/2013  20:37:00      -72.790      -49.077      -10.579       19.013       16.491       13.076      361.501      271.952      170.992        0.431        0.040       87.789        9.864        0.013      332.271        0.827      866.173
12/17/2013  20:38:00     -152.034      -29.975      -14.658       31.294       28.503       17.209      979.332      812.417      296.152        1.316        0.104      154.961       18.125        0.014      332.207        0.721      866.152
12/17/2013  20:39:00      -89.398      -22.215        1.560       37.094       36.670       27.013     1375.932     1344.704      729.702        0.597        0.173       92.117       24.050        0.068      332.131        0.595      866.124
12/17/2013  20:40:00      -63.721      -13.424       -1.634       35.866       28.640       25.299     1286.357      820.242      640.041        0.349        0.137       65.120       24.794        0.145      332.152        0.631      866.119
12/17/2013  20:41:00     -112.218      -10.302       -5.909       37.619       35.177       22.314     1415.193     1237.453      497.917        0.794        0.158      112.690       20.643        0.034      332.165        0.652      866.114
12/17/2013  20:42:00     -121.657      -32.488       -7.617       40.611       39.331       20.663     1649.278     1546.923      426.952        0.977        0.181      125.920       16.097        0.016      332.117        0.570      866.115
12/17/2013  20:43:00     -111.699      -35.194       -4.983       29.691       34.387       18.368      881.550     1182.497      337.387        0.807        0.120      117.112       17.693        0.023      332.094        0.533      866.128
12/17/2013  20:44:00      -79.700      -13.732       -8.158       35.525       27.660       17.335     1262.032      765.095      300.517        0.447        0.116       80.874       20.070        0.062      332.127        0.589      866.126
12/17/2013  20:45:00      -91.028      -25.043       -7.166       33.748       29.201       17.156     1138.936      852.699      294.326        0.562        0.114       94.410       17.416        0.034      332.121        0.577      866.114
12/17/2013  20:46:00      -83.201      -10.973       -5.910       39.095       28.105       19.873     1528.411      789.882      394.924        0.490        0.136       83.921       17.890        0.045      332.089        0.525      866.096
12/17/2013  20:47:00     -122.085       31.116       -5.788       59.452       32.180       20.193     3534.562     1035.563      407.757        1.044        0.249      125.988       18.492        0.022      332.200        0.709      866.081
12/17/2013  20:48:00     -135.119        5.082       -8.855       34.841       33.911       20.137     1213.875     1149.935      405.507        1.056        0.138      135.215       13.299        0.010      332.193        0.697      866.077
12/17/2013  20:49:00      -95.139       12.215       -0.673       57.624       33.413       24.354     3320.472     1116.427      593.100        0.711        0.251       95.920       26.077        0.074      332.167        0.654      866.072
12/17/2013  20:50:00     -128.691      -35.339      -10.383       22.805       25.574       13.207      520.066      654.017      174.426        0.963        0.067      133.455        7.335        0.003      332.200        0.710      866.109
12/17/2013  20:51:00      -88.139      -31.805       -1.889       26.754       33.367       18.181      715.783     1113.387      330.549        0.547        0.108       93.702       14.008        0.022      332.192        0.697      866.128
12/17/2013  20:52:00     -116.893       -3.246      -14.204       24.975       19.754       12.350      623.762      390.211      152.528        0.752        0.058      116.938        9.747        0.007      332.236        0.769      866.118
12/17/2013  20:53:00     -133.024       -5.006      -13.647       45.105       26.310       21.838     2034.480      692.226      476.900        1.055        0.160      133.118       21.908        0.027      332.233        0.762      866.110
12/17/2013  20:54:00     -130.761       -6.248       -7.757       39.185       30.306       28.995     1535.463      918.440      840.706        1.025        0.165      130.910       25.214        0.037      332.205        0.717      866.105
12/17/2013  20:55:00      -88.799       -9.172       -3.998       28.006       27.046       19.754      784.352      731.482      390.229        0.495        0.095       89.271       15.772        0.031      332.168        0.656      866.084
12/17/2013  20:56:00      -75.845       -8.825       -9.523       21.322       27.269       17.868      454.631      743.584      319.271        0.372        0.076       76.357       10.060        0.017      332.177        0.671      866.088
12/17/2013  20:57:00      -95.829        1.988       -6.363       25.796       28.083       15.638      665.435      788.653      244.553        0.546        0.085       95.850       10.875        0.013      332.120        0.576      866.101
12/17/2013  20:58:00     -110.109       19.236       -4.256       36.575       31.065       25.031     1337.698      965.056      626.560        0.772        0.146      111.777       19.868        0.032      332.102        0.546      866.083
12/17/2013  20:59:00      -88.961        2.856       -8.045       29.068       22.863       14.183      844.947      522.696      201.164        0.478        0.078       89.006        9.662        0.012      332.099        0.542      866.062
12/17/2013  21:00:00      -94.764      -30.587      -15.409       36.808       38.962       20.159     1354.811     1518.027      406.372        0.672        0.164       99.578       14.631        0.022      332.141        0.611      866.065
12/17/2013  21:01:00      -69.338      -23.210       -7.611       38.255       26.972       20.111     1463.410      727.484      404.466        0.400        0.130       73.119       18.639        0.065      332.051        0.463      866.089
12/17/2013  21:02:00      -94.810       24.986       -8.433       27.764       31.918       19.365      770.823     1018.734      375.009        0.592        0.108       98.047       11.718        0.014      332.013        0.398      866.077
12/17/2013  21:03:00      -93.598       34.454      -10.012       43.955       28.868       20.561     1932.074      833.354      422.755        0.662        0.159       99.738       18.502        0.034      332.026        0.422      866.075
12/17/2013  21:04:00      -93.142      -29.455       -6.887       25.121       31.122       16.470      631.087      968.590      271.250        0.573        0.094       97.688        9.896        0.010      332.024        0.417      866.106
12/17/2013  21:05:00      -47.786      -17.990        1.754       51.039       31.449       16.979     2605.012      989.071      288.289        0.325        0.194       51.060       21.756        0.182      332.002        0.381      866.114
12/17/2013  21:06:00      -40.454      -10.921       -8.126       27.089       17.762       16.851      733.800      315.482      283.959        0.158        0.067       41.902       12.284        0.086      331.959        0.311      866.111
12/17/2013  21:07:00      -65.293      -33.125      -10.218       15.161       20.386       12.512      229.857      415.595      156.544        0.313        0.040       73.214       11.323        0.024      331.972        0.332      866.140
12/17/2013  21:08:00      -20.304      -14.455       -3.964       15.295       15.156       10.534      233.947      229.708      110.971        0.061        0.029       24.924        6.454        0.067      332.029        0.426      866.160
12/17/2013  21:09:00      -51.841      -32.807       -8.315       16.540       17.865        8.484      273.577      319.172       71.981        0.225        0.033       61.350        8.045        0.017      332.049        0.460      866.169
12/17/2013  21:10:00      -68.291      -19.867      -11.438       13.859       10.376        7.804      192.082      107.659       60.896        0.277        0.018       71.122        5.276        0.006      332.001        0.381      866.175
12/17/2013  21:11:00      -66.230       -9.063      -14.464       17.171       17.056        9.949      294.838      290.895       98.991        0.268        0.034       66.847        8.003        0.014      331.998        0.376      866.170
12/17/2013  21:12:00      -84.626      -16.435      -12.906       15.366       14.581       10.259      236.126      212.613      105.249        0.408        0.028       86.207        7.915        0.008      331.973        0.332      866.163
12/17/2013  21:13:00      -61.480      -32.780      -13.854       26.437       15.243       11.845      698.924      232.335      140.307        0.306        0.054       69.673        8.927        0.016      331.954        0.303      866.163
12/17/2013  21:14:00      -51.223      -35.182      -11.043       15.493       10.262       10.538      240.032      105.303      111.058        0.222        0.023       62.141        6.531        0.011      331.942        0.282      866.157
12/17/2013  21:15:00      -52.837      -27.156      -11.511       18.023       11.250        8.283      324.840      126.553       68.608        0.209        0.026       59.407        6.927        0.014      331.982        0.348      866.156
12/17/2013  21:16:00      -72.345      -26.439      -14.085       10.172        7.876        7.025      103.467       62.037       49.356        0.317        0.011       77.025        3.858        0.003      331.925        0.254      866.136
12/17/2013  21:17:00      -43.847      -43.033      -12.103       20.039       14.306       13.956      401.577      204.651      194.776        0.236        0.040       61.437       10.411        0.029      331.990        0.363      866.108
12/17/2013  21:18:00      -20.595      -28.385       -7.208       14.989       17.763       12.853      224.679      315.511      165.201        0.099        0.035       35.069        9.195        0.069      332.284        0.846      866.077
12/17/2013  21:19:00      -10.715      -18.762       -5.209        9.588       13.948        7.713       91.922      194.542       59.483        0.042        0.017       21.606        4.907        0.052      332.361        0.974      866.060
12/17/2013  21:20:00      -17.852      -28.731        1.137       19.947       15.928       19.397      397.877      253.686      376.229        0.109        0.051       33.826       13.530        0.160      332.074        0.501      866.083
12/17/2013  21:21:00      -10.432      -15.517        9.357       23.989       14.977       11.940      575.496      224.321      142.558        0.069        0.047       18.698       12.010        0.413      331.998        0.376      866.089
12/17/2013  21:22:00       -4.798        0.832       -1.652        5.114        7.779        6.426       26.153       60.516       41.294        0.008        0.006        4.870        5.599        1.322      331.953        0.302      866.052
12/17/2013  21:23:00      -24.047        3.062       -1.808       14.482       13.378        5.270      209.716      178.963       27.778        0.050        0.021       24.241        5.535        0.052      332.134        0.598      866.044
12/17/2013  21:24:00      -36.734      -29.993       -6.599       21.542       12.521       10.009      464.077      156.765      100.179        0.151        0.036       47.423        9.176        0.037      332.066        0.488      866.060
12/17/2013  21:25:00       -7.596       -2.475       -2.801       12.607        5.672        5.690      158.931       32.173       32.371        0.015        0.011        7.989        4.773        0.357      331.999        0.377      866.063
12/17/2013  21:26:00      -26.325        1.749       -0.331       14.980        9.283        5.243      224.395       86.179       27.485        0.052        0.017       26.383        4.071        0.024      332.063        0.483      866.025
12/17/2013  21:27:00      -51.246       15.484       -6.220       19.360       11.020        9.862      374.820      121.448       97.253        0.175        0.030       53.535       10.423        0.038      332.184        0.684      865.982
12/17/2013  21:28:00      -59.825      -17.087       -8.392       15.908       15.638        8.337      253.058      244.533       69.514        0.225        0.028       62.217        4.141        0.004      332.060        0.478      865.976
12/17/2013  21:29:00      -37.471      -27.735       -2.314       24.698       12.004       10.948      609.996      144.099      119.868        0.153        0.044       46.619       11.684        0.063      331.930        0.261      865.993
12/17/2013  21:30:00      -82.615      -35.183      -15.332       13.923       15.133        9.759      193.854      229.000       95.229        0.441        0.026       89.795        6.699        0.006      331.875        0.172      866.003
12/17/2013  21:31:00      -73.593      -12.960      -11.125        7.189        9.866        9.787       51.684       97.347       95.780        0.298        0.012       74.725        5.095        0.005      331.851        0.133      865.991
12/17/2013  21:32:00      -85.644       -1.721      -12.576       13.234       12.485        7.398      175.141      155.888       54.729        0.394        0.019       85.662        6.825        0.006      331.930        0.261      865.976
12/17/2013  21:33:00      -56.149       -0.180       -8.826       18.117       10.744       11.326      328.215      115.435      128.288        0.190        0.029       56.150        9.937        0.031      331.953        0.301      865.963
12/17/2013  21:34:00      -75.209       -6.252      -11.729       23.123       13.511       10.279      534.659      182.542      105.659        0.333        0.041       75.469       11.973        0.025      331.969        0.327      865.956
12/17/2013  21:35:00      -96.469      -19.778      -11.848       23.059       15.904       10.553      531.736      252.922      111.370        0.537        0.045       98.475        7.342        0.006      331.960        0.312      865.966
12/17/2013  21:36:00      -69.257       -1.436       -4.911       25.032       15.116       13.654      626.613      228.497      186.437        0.293        0.052       69.272        9.032        0.017      331.959        0.310      865.975
12/17/2013  21:37:00      -60.465      -13.610       -4.550       10.879       10.161        5.944      118.361      103.245       35.333        0.206        0.013       61.978        4.425        0.005      331.985        0.355      865.993
12/17/2013  21:38:00      -71.445       -3.918       -5.868       10.718        7.438        6.248      114.865       55.329       39.041        0.268        0.010       71.552        4.149        0.003      332.082        0.515      866.009
12/17/2013  21:39:00      -83.496       -0.011       -9.225       13.630        6.609        6.367      185.787       43.685       40.535        0.366        0.014       83.496        7.234        0.008      332.070        0.492      865.992
12/17/2013  21:40:00      -73.711      -11.202       -8.571        9.062        8.071        6.052       82.123       65.149       36.630        0.291        0.009       74.558        4.638        0.004      332.076        0.504      865.959
12/17/2013  21:41:00      -68.270      -21.287       -5.170       17.103       11.126        5.928      292.526      123.787       35.146        0.280        0.023       71.512        3.560        0.002      332.066        0.488      865.963
12/17/2013  21:42:00      -60.878      -34.893       -3.811       16.216        8.358        7.938      262.948       69.854       63.011        0.267        0.020       70.169        4.865        0.005      332.000        0.379      865.994
12/17/2013  21:43:00      -32.588      -23.444       -4.830        9.627       11.365        6.044       92.684      129.174       36.528        0.095        0.013       40.145        5.093        0.016      332.067        0.490      865.994
12/17/2013  21:44:00      -66.981       -1.642       -7.034       22.167        7.887        6.897      491.385       62.208       47.567        0.257        0.030       67.001        7.268        0.012      332.099        0.540      865.963
12/17/2013  21:45:00      -99.904       -1.974      -13.471       11.518       12.591        9.350      132.657      158.531       87.431        0.527        0.019       99.924        3.117        0.001      332.013        0.399      865.946
12/17/2013  21:46:00      -44.735      -19.408       -0.344       17.991       12.904       10.878      323.689      166.514      118.337        0.149        0.030       48.764        9.957        0.042      331.974        0.334      865.945
12/17/2013  21:47:00      -39.073      -23.706        3.071       24.914       15.843        8.598      620.732      251.008       73.919        0.152        0.047       45.702        9.996        0.048      332.073        0.497      865.953
12/17/2013  21:48:00      -31.433      -13.285        2.753       20.368       11.235        9.779      414.856      126.226       95.630        0.090        0.032       34.125       10.851        0.101      332.082        0.514      865.959
12/17/2013  21:49:00      -62.863      -18.007        6.714       14.489       12.413        9.318      209.945      154.093       86.833        0.239        0.023       65.391        5.068        0.006      331.972        0.332      865.972
12/17/2013  21:50:00      -13.532      -17.845       -0.002       16.674       13.196        4.726      278.008      174.123       22.336        0.049        0.024       22.395        3.402        0.023      331.991        0.364      865.981
12/17/2013  21:51:00      -42.649      -20.320       -3.672       12.764        5.522        7.304      162.927       30.491       53.347        0.125        0.012       47.242        5.855        0.015      332.035        0.436      866.020
12/17/2013  21:52:00      -64.751      -17.295       -7.354       11.307       10.152        7.403      127.851      103.068       54.802        0.242        0.014       67.021        4.632        0.005      331.927        0.258      866.028
12/17/2013  21:53:00      -95.269      -11.500       -8.953       19.841       13.394       12.364      393.685      179.386      152.856        0.501        0.036       95.961       12.418        0.017      331.915        0.237      865.997
12/17/2013  21:54:00      -91.396      -39.463        1.393       28.343       27.018       16.855      803.349      729.987      284.078        0.586        0.091       99.551       16.015        0.026      331.895        0.204      865.990
12/17/2013  21:55:00      -85.787      -44.777        6.503       46.246       24.069       21.352     2138.696      579.337      455.888        0.629        0.159       96.770       23.051        0.057      331.835        0.106      866.011
12/17/2013  21:56:00      -41.918      -29.686       10.375       43.422       28.944       18.766     1885.498      837.754      352.159        0.291        0.154       51.365       13.536        0.069      331.894        0.201      866.018
12/17/2013  21:57:00     -102.159      -47.220        8.300       26.678       24.442       17.642      711.727      597.398      311.244        0.718        0.081      112.544       15.510        0.019      331.904        0.219      866.003
12/17/2013  21:58:00      -98.554      -45.652       -5.482       25.270       29.316       13.857      638.582      859.450      192.018        0.676        0.085      108.613        7.772        0.005      331.907        0.224      865.995
12/17/2013  21:59:00      -86.329      -16.566       -1.639       25.561       21.710       14.397      653.365      471.306      207.261        0.453        0.067       87.904       12.067        0.019      331.855        0.139      865.961
12/17/2013  22:00:00     -118.051      -27.716       -5.965       26.567       18.466       12.617      705.829      340.979      159.190        0.797        0.060      121.261       11.684        0.009      331.786        0.026      865.965
12/17/2013  22:01:00     -129.829      -48.453       -1.446       37.301       28.520       19.516     1391.376      813.406      380.858        1.089        0.129      138.575       17.599        0.016      331.738       -0.052      866.000
12/17/2013  22:02:00      -66.185      -25.984       -1.606       22.654       22.052       14.558      513.215      486.308      211.931        0.313        0.061       71.103       12.139        0.029      331.745       -0.041      865.990
12/17/2013  22:03:00      -99.191      -24.612       -4.766       43.422       24.111       16.020     1885.446      581.324      256.641        0.659        0.136      102.199       15.892        0.024      331.741       -0.048      865.973
12/17/2013  22:04:00     -114.133      -52.221       -3.178       50.559       35.743       22.935     2556.248     1277.559      526.010        1.006        0.218      125.512       19.476        0.024      331.751       -0.031      865.978
12/17/2013  22:05:00      -43.437      -26.267       -3.173       39.350       23.464       14.959     1548.425      550.558      223.777        0.245        0.116       50.762       13.776        0.074      331.742       -0.046      865.980
12/17/2013  22:06:00      -77.728      -11.552       -3.896       49.533       14.270       13.783     2453.487      203.628      189.966        0.452        0.142       78.582       20.281        0.067      331.718       -0.085      865.994
12/17/2013  22:07:00     -147.737      -29.802      -11.862       27.210       19.637       13.652      740.373      385.617      186.388        1.208        0.066      150.713        8.804        0.003      331.702       -0.110      866.035
12/17/2013  22:08:00      -72.609      -17.944       -0.742       43.710       19.489       16.966     1910.590      379.806      287.835        0.409        0.129       74.794       19.004        0.065      331.667       -0.168      866.006
12/17/2013  22:09:00      -37.370      -23.084        2.879       25.946       12.341       11.072      673.209      152.312      122.595        0.144        0.047       43.924       13.117        0.089      331.692       -0.128      865.953
12/17/2013  22:10:00     -108.299      -50.903      -16.058       25.298       25.475       12.848      639.982      648.994      165.083        0.802        0.073      119.665       12.353        0.011      331.729       -0.067      865.950
12/17/2013  22:11:00      -76.722      -60.707       -5.157       54.730       47.388       25.213     2995.372     2245.583      635.719        0.774        0.294       97.835       25.825        0.070      331.692       -0.127      866.002
12/17/2013  22:12:00      -41.483       -7.486        8.959       38.515       26.513       18.820     1483.407      702.952      354.209        0.220        0.127       42.153       23.971        0.323      331.645       -0.207      866.007
12/17/2013  22:13:00      -91.890       -9.400      -14.240       34.285       25.390       13.987     1175.469      644.665      195.644        0.537        0.101       92.369       13.646        0.022      331.630       -0.230      865.960
12/17/2013  22:14:00     -117.829      -12.361       -7.717       64.655       43.999       35.573     4180.318     1935.899     1265.408        1.074        0.369      118.476       37.119        0.098      331.559       -0.347      865.943
12/17/2013  22:15:00      -51.038        3.995       15.557       61.850       47.804       29.736     3825.400     2285.237      884.241        0.493        0.350       51.194       25.717        0.252      331.522       -0.409      865.912
12/17/2013  22:16:00      -64.933        1.716        5.357       57.123       41.906       20.957     3263.013     1756.079      439.215        0.485        0.273       64.956       19.379        0.089      331.587       -0.301      865.896
12/17/2013  22:17:00      -84.234      -23.001       -4.016       38.162       23.563       15.744     1456.306      555.227      247.864        0.495        0.113       87.318       12.802        0.021      331.556       -0.354      865.951
12/17/2013  22:18:00     -102.937      -21.646      -14.977       29.271       18.452       15.377      856.771      340.458      236.440        0.636        0.072      105.188       11.629        0.012      331.486       -0.471      865.978
12/17/2013  22:19:00     -122.914      -70.227       -9.930       51.857       34.210       22.026     2689.156     1170.308      485.133        1.224        0.217      141.561       20.571        0.021      331.474       -0.491      866.014
12/17/2013  22:20:00      -12.361      -39.950       16.228       41.023       24.698       21.302     1682.865      609.967      453.761        0.238        0.137       41.819       23.420        0.314      331.534       -0.388      865.993
12/17/2013  22:21:00      -27.937      -13.813       -7.543       13.147       12.524       10.629      172.843      156.850      112.983        0.074        0.022       31.165        6.468        0.043      331.514       -0.423      865.951
12/17/2013  22:22:00      -83.744      -23.764      -10.045       15.863       12.970        9.853      251.640      168.218       97.077        0.410        0.026       87.050        4.928        0.003      331.531       -0.394      865.945
12/17/2013  22:23:00     -105.039       -4.761      -15.369        9.911       13.124       11.173       98.233      172.249      124.845        0.584        0.020      105.147        3.607        0.001      331.549       -0.365      865.907
12/17/2013  22:24:00      -54.693      -12.038      -10.086       33.700       15.908       14.274     1135.719      253.057      203.736        0.241        0.080       56.002       17.873        0.102      331.487       -0.468      865.856
12/17/2013  22:25:00       -1.157      -24.823       -5.691       14.697       13.459       12.080      215.991      181.154      145.921        0.060        0.027       24.850        6.104        0.060      331.657       -0.188      865.891
12/17/2013  22:26:00      -25.706      -21.133       -7.918       24.654       18.963       15.370      607.797      359.605      236.245        0.119        0.060       33.278       14.331        0.185      331.752       -0.030      865.942
12/17/2013  22:27:00        3.404      -16.816        1.633       17.746       10.113       11.301      314.921      102.275      127.721        0.042        0.027       17.157        6.848        0.159      331.735       -0.060      865.930
12/17/2013  22:28:00      -45.932       -7.984       -6.157       11.058       10.551       13.331      122.274      111.327      177.704        0.131        0.021       46.621        7.677        0.027      331.636       -0.220      865.923
12/17/2013  22:29:00      -78.786        7.591       -9.186       21.870       16.779        8.791      478.294      281.521       77.283        0.359        0.042       79.151        6.085        0.006      331.610       -0.264      865.889
12/17/2013  22:30:00      -85.388        1.533      -14.829       38.476       23.540       16.088     1480.410      554.153      258.824        0.490        0.115       85.402       20.417        0.057      331.579       -0.313      865.851
12/17/2013  22:31:00      -55.459      -33.932       -5.357       23.213       17.255       12.557      538.858      297.725      157.677        0.262        0.050       65.016       11.007        0.029      331.541       -0.378      865.908
12/17/2013  22:32:00      -85.357      -13.327       -8.199       20.159       19.193       15.162      406.372      368.371      229.874        0.427        0.050       86.391        9.542        0.012      331.523       -0.407      865.918
12/17/2013  22:33:00      -87.529       13.200      -15.294       18.881       13.898       13.310      356.481      193.151      177.159        0.440        0.036       88.518        8.280        0.009      331.549       -0.364      865.893
12/17/2013  22:34:00      -78.929       12.171      -12.990       10.694       11.143        6.924      114.358      124.163       47.942        0.342        0.014       79.862        5.941        0.006      331.558       -0.350      865.839
12/17/2013  22:35:00      -83.506      -15.341      -11.177       15.811       16.221       11.354      249.981      263.106      128.906        0.399        0.032       84.903        9.880        0.014      331.538       -0.383      865.817
12/17/2013  22:36:00     -109.994      -39.462      -17.631       16.445       20.063       14.115      270.440      402.507      199.242        0.742        0.044      116.858        9.239        0.006      331.458       -0.514      865.846
12/17/2013  22:37:00     -104.434       -2.331      -11.999       19.541       23.825       15.089      381.869      567.608      227.677        0.612        0.059      104.460        6.433        0.004      331.398       -0.612      865.846
12/17/2013  22:38:00     -115.304       -1.261      -17.288       18.929       25.031       11.237      358.304      626.557      126.270        0.735        0.056      115.311        3.447        0.001      331.417       -0.580      865.822
12/17/2013  22:39:00     -102.193      -36.905      -13.865       29.345       24.061       15.102      861.103      578.922      228.084        0.683        0.083      108.653       16.035        0.022      331.408       -0.596      865.855
12/17/2013  22:40:00      -65.854       -3.278        3.888       63.653       29.614       23.327     4051.737      876.996      544.135        0.492        0.274       65.936       29.791        0.204      331.462       -0.509      865.857
12/17/2013  22:41:00       -9.023       -9.624       12.208       25.693       20.758       13.163      660.139      430.911      173.259        0.079        0.063       13.192       11.298        0.733      331.462       -0.509      865.797
12/17/2013  22:42:00      -43.633      -17.646      -11.548       16.634       20.892        8.946      276.697      436.494       80.028        0.157        0.040       47.066        7.952        0.029      331.518       -0.416      865.770
12/17/2013  22:43:00      -59.785      -38.653      -12.405       14.966       12.109        8.454      223.987      146.621       71.472        0.283        0.022       71.192        4.459        0.004      331.543       -0.374      865.752
12/17/2013  22:44:00      -93.311      -26.479      -10.112       20.108       21.169       12.314      404.346      448.110      151.641        0.526        0.050       96.995        6.310        0.004      331.517       -0.418      865.740
12/17/2013  22:45:00     -108.649       -9.475      -18.355       21.167       23.178       14.065      448.025      537.211      197.823        0.671        0.059      109.061       10.396        0.009      331.422       -0.572      865.700
12/17/2013  22:46:00     -118.786      -24.960      -12.127       33.618       24.094       15.723     1130.201      580.517      247.205        0.842        0.098      121.380        6.423        0.003      331.445       -0.537      865.694
12/17/2013  22:47:00     -103.964      -25.416       -2.234       43.928       24.988       19.016     1929.671      624.389      361.604        0.719        0.146      107.026       17.232        0.026      331.453       -0.522      865.690
12/17/2013  22:48:00      -56.240      -42.826        0.886       29.115       18.129       19.334      847.700      328.672      373.805        0.327        0.078       70.689       20.019        0.080      331.454       -0.521      865.673
12/17/2013  22:49:00      -98.188      -12.480      -13.917       28.935       18.975       10.270      837.209      360.058      105.482        0.565        0.065       98.978        2.771        0.001      331.477       -0.485      865.694
12/17/2013  22:50:00      -91.648        6.694      -13.304       12.182       12.070       10.487      148.396      145.696      109.977        0.451        0.020       91.892        6.332        0.005      331.442       -0.540      865.673
12/17/2013  22:51:00      -93.631      -32.751      -14.043       10.410       18.063        8.337      108.370      326.268       69.512        0.527        0.025       99.194        4.241        0.002      331.499       -0.449      865.684
12/17/2013  22:52:00     -128.683      -11.302      -19.010       12.516       14.564       10.649      156.658      212.116      113.395        0.877        0.024      129.179        3.760        0.001      331.453       -0.525      865.682
12/17/2013  22:53:00     -114.064      -24.379      -15.919       13.872       18.074       13.538      192.436      326.684      183.285        0.728        0.035      116.640       10.302        0.008      331.426       -0.567      865.663
12/17/2013  22:54:00      -49.352      -31.096      -10.041       28.626       19.796       14.070      819.423      391.889      197.955        0.246        0.070       58.331        8.670        0.022      331.483       -0.474      865.674
12/17/2013  22:55:00      -62.027        0.093       -7.282       17.647       20.915       21.942      311.431      437.426      481.466        0.257        0.062       62.027       13.693        0.049      331.494       -0.457      865.627
12/17/2013  22:56:00      -85.437      -18.040       -8.863       17.896       22.105       14.489      320.254      488.639      209.932        0.436        0.051       87.321        9.276        0.011      331.539       -0.380      865.613
12/17/2013  22:57:00      -78.453      -39.467       -6.579       30.116       28.444       13.479      906.986      809.051      181.694        0.483        0.095       87.821       12.222        0.019      331.416       -0.584      865.645
12/17/2013  22:58:00      -65.591      -30.742       -8.786       21.481       19.525       15.514      461.440      381.241      240.681        0.320        0.054       72.438       11.182        0.024      331.398       -0.614      865.639
12/17/2013  22:59:00      -78.201      -17.502      -14.249       20.955       21.351       10.361      439.115      455.876      107.355        0.381        0.050       80.136        8.840        0.012      331.393       -0.620      865.617
12/17/2013  23:00:00      -98.026       -3.057      -16.603       20.023       19.417       11.679      400.922      377.014      136.402        0.540        0.046       98.074        8.296        0.007      331.385       -0.633      865.608
12/17/2013  23:01:00      -57.375       -9.506       -9.548       24.627       19.407       12.156      606.466      376.641      147.760        0.230        0.057       58.157        8.767        0.023      331.421       -0.574      865.596
12/17/2013  23:02:00      -45.153       -8.298       -9.122       11.775       12.631       14.446      138.656      159.542      208.695        0.135        0.025       45.909        5.310        0.013      331.417       -0.581      865.568
12/17/2013  23:03:00      -41.205      -31.757       -2.968       23.440       16.601       13.281      549.453      275.579      176.380        0.186        0.050       52.023       13.072        0.063      331.459       -0.512      865.572
12/17/2013  23:04:00      -60.887      -13.486       -3.521       32.618       14.694       10.195     1063.935      215.908      103.934        0.264        0.069       62.362       13.921        0.050      331.495       -0.455      865.585
12/17/2013  23:05:00      -83.690      -36.251       -9.849       12.828       14.092       10.009      164.560      198.580      100.184        0.444        0.023       91.204        7.139        0.006      331.519       -0.414      865.582
12/17/2013  23:06:00      -77.883      -32.330      -10.219       16.259       18.582       11.308      264.342      345.286      127.864        0.398        0.037       84.326        9.239        0.012      331.458       -0.515      865.566
12/17/2013  23:07:00      -76.782      -20.535      -13.519       19.234        9.180        7.052      369.935       84.266       49.728        0.350        0.025       79.481        2.727        0.001      331.473       -0.491      865.534
12/17/2013  23:08:00     -115.557      -44.180      -20.672       11.526       11.646       11.272      132.845      135.633      127.061        0.806        0.020      123.715        4.711        0.001      331.437       -0.549      865.530
12/17/2013  23:09:00      -75.293      -41.016       -6.401       25.574       19.403       15.827      654.045      376.488      250.504        0.434        0.064       85.740       17.520        0.042      331.415       -0.584      865.521
12/17/2013  23:10:00      -68.749       -5.774      -10.255       15.379       13.546        9.259      236.509      183.503       85.731        0.269        0.025       68.991        6.281        0.008      331.462       -0.509      865.477
12/17/2013  23:11:00      -88.164      -45.776      -10.932       21.871       19.299       20.642      478.359      372.444      426.089        0.563        0.064       99.340        8.516        0.007      331.437       -0.550      865.483
12/17/2013  23:12:00      -35.659      -21.695        3.505       43.024       17.726       20.721     1851.028      314.199      429.370        0.217        0.130       41.740       24.018        0.331      331.457       -0.517      865.477
12/17/2013  23:13:00       -9.363       -6.102       10.436       22.490       13.302       15.846      505.779      176.931      251.099        0.058        0.047       11.175       16.908        2.289      331.549       -0.365      865.387
12/17/2013  23:14:00      -62.524        9.059       -4.116       18.899       18.346       12.016      357.185      336.563      144.388        0.242        0.042       63.177        5.347        0.007      331.587       -0.301      865.335
12/17/2013  23:15:00      -84.408      -46.230       -8.963       18.957       21.886       14.572      359.370      478.998      212.345        0.520        0.053       96.239        8.925        0.009      331.502       -0.442      865.389
12/17/2013  23:16:00     -101.300      -30.457      -10.406       19.125       25.042       15.935      365.767      627.088      253.937        0.627        0.062      105.780        4.996        0.002      331.410       -0.592      865.410
12/17/2013  23:17:00      -72.685       11.922        1.256       33.099       27.289       21.277     1095.559      744.697      452.715        0.386        0.115       73.656       19.643        0.071      331.353       -0.686      865.368
12/17/2013  23:18:00      -97.332      -16.383      -12.687       30.132       25.658       14.810      907.942      658.309      219.332        0.584        0.089       98.701       12.377        0.016      331.320       -0.741      865.361
12/17/2013  23:19:00      -88.637      -49.214      -10.914       24.309       23.675       15.737      590.906      560.528      247.644        0.590        0.070      101.383        7.930        0.006      331.358       -0.679      865.377
12/17/2013  23:20:00      -79.244       -9.058       -9.641       23.757       16.665       17.155      564.380      277.718      294.296        0.380        0.057       79.760       11.230        0.020      331.280       -0.805      865.367
12/17/2013  23:21:00      -93.714       -9.287       -7.983       19.880       15.580       15.192      395.222      242.746      230.793        0.490        0.043       94.173        9.431        0.010      331.254       -0.849      865.331
12/17/2013  23:22:00      -96.397       -9.218      -11.624       13.589       18.474       12.516      184.672      341.300      156.656        0.510        0.034       96.837        7.735        0.006      331.260       -0.838      865.284
12/17/2013  23:23:00     -133.706      -29.260      -14.824       24.911       18.275       12.365      620.562      333.993      152.884        1.003        0.055      136.870        9.368        0.005      331.272       -0.820      865.285
12/17/2013  23:24:00      -55.447      -18.714      -12.561       29.297       30.949       12.890      858.324      957.856      166.153        0.278        0.099       58.520        4.357        0.006      331.298       -0.777      865.277
12/17/2013  23:25:00      -41.668       16.629       -2.930       14.550       12.406        8.674      211.690      153.911       75.246        0.123        0.022       44.864        5.235        0.014      331.345       -0.699      865.215
12/17/2013  23:26:00      -58.881      -26.896       -6.257       15.745       15.996        9.638      247.892      255.879       92.884        0.241        0.030       64.733        5.497        0.007      331.427       -0.566      865.233
12/17/2013  23:27:00      -13.017       -2.487        3.339       15.540       11.817       10.544      241.482      139.644      111.178        0.034        0.025       13.252        8.507        0.412      331.397       -0.614      865.259
12/17/2013  23:28:00       22.763        9.502       18.278       14.880        7.524       13.568      221.429       56.614      184.088        0.070        0.023       24.666        5.448        0.049      331.445       -0.537      865.208
12/17/2013  23:29:00       -0.023       -4.232       -2.420       18.361        9.226        5.566      337.141       85.113       30.977        0.024        0.023        4.232        7.582        3.209      331.553       -0.359      865.207
12/17/2013  23:30:00      -27.404       -4.619       -4.149       17.365        7.946        6.289      301.542       63.140       39.546        0.060        0.020       27.790        7.040        0.064      331.518       -0.416      865.212
12/17/2013  23:31:00       32.757       22.238       17.943       16.248       10.531        9.465      263.996      110.895       89.591        0.118        0.023       39.592        4.961        0.016      331.644       -0.207      865.144
12/17/2013  23:32:00      -31.288       -5.581       -1.643       35.989       13.932       10.129     1295.237      194.102      102.603        0.130        0.080       31.782       14.472        0.207      331.618       -0.250      865.143
12/17/2013  23:33:00      -68.767      -25.736      -11.741       43.780       20.626       17.746     1916.690      425.428      314.916        0.409        0.133       73.425       12.503        0.029      331.361       -0.672      865.189
12/17/2013  23:34:00        4.060       -8.839        7.277       16.788       13.193       10.832      281.848      174.060      117.324        0.036        0.029        9.727        8.307        0.729      331.392       -0.621      865.168
12/17/2013  23:35:00      -18.316        4.786        9.972       11.115        9.454        5.927      123.532       89.381       35.134        0.035        0.012       18.931        5.192        0.075      331.543       -0.373      865.132
12/17/2013  23:36:00      -59.967        3.451       -3.682       13.912       13.356        9.839      193.544      178.372       96.814        0.205        0.023       60.066        8.595        0.020      331.527       -0.399      865.121
12/17/2013  23:37:00      -72.450       -0.889      -14.351       11.189        8.862        9.355      125.202       78.540       87.515        0.287        0.015       72.456        6.581        0.008      331.380       -0.640      865.085
12/17/2013  23:38:00     -123.293      -20.069      -16.295       24.636       11.983       12.422      606.914      143.597      154.299        0.839        0.045      124.916        9.303        0.006      331.375       -0.651      865.084
12/17/2013  23:39:00      -80.914       -0.479      -10.120       43.966       15.845       17.824     1932.985      251.057      317.691        0.458        0.125       80.915       20.697        0.065      331.301       -0.772      865.066
12/17/2013  23:40:00      -59.109      -19.010       -2.371       12.072       17.351       11.071      145.731      301.057      122.572        0.222        0.028       62.090        8.118        0.017      331.352       -0.688      865.029
12/17/2013  23:41:00      -58.951      -31.585       -8.227       22.605       21.910       14.216      510.991      480.034      202.090        0.287        0.060       66.879        7.960        0.014      331.330       -0.724      865.052
12/17/2013  23:42:00      -90.528      -36.284      -12.484       28.081       22.917       15.971      788.558      525.194      255.063        0.562        0.078       97.529       11.011        0.013      331.254       -0.848      865.054
12/17/2013  23:43:00      -95.587      -20.185      -13.748       26.825       31.788       17.149      719.583     1010.485      294.084        0.588        0.101       97.695       15.593        0.025      331.255       -0.846      865.020
12/17/2013  23:44:00      -99.575        6.599      -10.776       31.919       23.063       16.292     1018.843      531.889      265.436        0.595        0.091       99.793       14.255        0.020      331.251       -0.853      864.995
12/17/2013  23:45:00      -88.660      -24.861       -4.390       27.775       19.990       12.451      771.468      399.616      155.016        0.491        0.066       92.080        9.148        0.010      331.261       -0.837      864.999
12/17/2013  23:46:00      -84.729      -30.729       -4.435       32.858       18.346       10.405     1079.623      336.571      108.265        0.483        0.076       90.129       14.439        0.026      331.258       -0.842      865.029
12/17/2013  23:47:00      -32.657      -17.153       -2.009       17.480       10.699       10.880      305.547      114.476      118.366        0.095        0.027       36.887       12.199        0.109      331.304       -0.767      865.001
12/17/2013  23:48:00      -87.418       -4.503       -8.628       24.519       18.958       15.321      601.203      359.403      234.744        0.447        0.060       87.534       12.864        0.022      331.235       -0.880      864.995
12/17/2013  23:49:00      -80.181       -8.021      -10.965       19.671       10.874       11.818      386.957      118.239      139.665        0.363        0.032       80.582        8.007        0.010      331.230       -0.889      864.982
12/17/2013  23:50:00      -81.873       -9.222       -7.271       23.650       18.304       13.135      559.305      335.022      172.518        0.395        0.053       82.390        7.870        0.009      331.275       -0.813      864.933
12/17/2013  23:51:00      -79.747       -1.282      -12.515       28.166       15.969       14.838      793.308      254.994      220.164        0.389        0.063       79.757       13.803        0.030      331.281       -0.803      864.905
12/17/2013  23:52:00     -102.338        1.032      -10.836       37.301       21.704       18.799     1391.357      471.045      353.387        0.640        0.111      102.343       19.519        0.036      331.209       -0.922      864.893
12/17/2013  23:53:00      -90.664      -11.186       -5.417       27.010       29.442       18.243      729.549      866.839      332.800        0.515        0.096       91.351       14.366        0.025      331.161       -1.003      864.917
12/17/2013  23:54:00      -54.367        0.157       -1.360       31.792       17.095       13.326     1010.740      292.231      177.570        0.222        0.074       54.367       12.127        0.050      331.129       -1.055      864.917
12/17/2013  23:55:00      -52.331        0.527       -6.887       20.257       13.755       10.099      410.329      189.193      101.995        0.174        0.035       52.334        8.992        0.030      331.143       -1.032      864.895
12/17/2013  23:56:00      -71.056      -18.186      -12.649       14.039       11.750        6.926      197.088      138.072       47.963        0.296        0.019       73.346        3.476        0.002      331.156       -1.009      864.892
12/17/2013  23:57:00      -48.552      -19.948       -6.847       10.753        9.826        6.423      115.631       96.553       41.257        0.153        0.013       52.490        4.990        0.009      331.200       -0.937      864.865
12/17/2013  23:58:00      -69.116      -21.560       -8.420       10.942       12.342        6.713      119.722      152.318       45.066        0.281        0.016       72.401        4.023        0.003      331.268       -0.825      864.848
12/17/2013  23:59:00     -121.499      -23.178      -16.265       25.927       18.715       12.021      672.228      350.245      144.507        0.837        0.058      123.690       11.744        0.009      331.157       -1.009      864.834
